[[{"header":{"parameterUnit":"m.s-1","parameterCategory":1,"la1":30.6,"la2":28.766,"lo1":-90.7593,"lo2":-88.6598,"dy":0.0162,"dx":0.0183,"nx":116,"ny":114,"refTime":"2024-04-15T06:00:00:Z","depth":0,"parameterNumber":2,"parameterNumberName":"U-component_of_WINDS"},"data":[0.0,0.0,0.0,0.0,0.0,0.0,0.0,0.0,0.0,0.0,0.0,0.0,0.0,0.0,0.0,0.0,0.0,0.0,0.0,0.0,0.0,0.0,0.0,0.0,0.0,0.0,0.0,0.0,0.0,0.0,0.0,0.0,0.0,0.0,0.0,0.0,0.0,0.0,0.0,0.0,0.0,0.0,0.0,0.0,0.0,0.0,0.0,0.0,0.0,0.0,0.0,0.0,0.0,0.0,0.0,0.0,0.0,0.0,0.0,0.0,0.0,0.0,0.0,0.0,0.0,0.0,0.0,0.0,0.0,0.0,0.0,0.0,0.0,0.0,0.0,0.0,0.0,0.0,0.0,0.0,0.0,0.0,0.0,0.0,0.0,0.0,0.0,0.0,0.0,0.0,0.0,0.0,0.0,0.0,0.0,0.0,0.0,0.0,0.0,0.0,0.0,0.0,0.0,0.0,0.0,0.0,0.0,0.0,0.0,0.0,0.0,0.0,0.0,0.0,0.0,0.0,0.0,0.0,0.0,0.0,0.0,0.0,0.0,0.0,0.0,0.0,0.0,0.0,0.0,0.0,0.0,0.0,0.0,0.0,0.0,0.0,0.0,0.0,0.0,0.0,0.0,0.0,0.0,0.0,0.0,0.0,0.0,0.0,0.0,0.0,0.0,0.0,0.0,0.0,0.0,0.0,0.0,0.0,0.0,0.0,0.0,0.0,0.0,0.0,0.0,0.0,0.0,0.0,0.0,0.0,0.0,0.0,0.0,0.0,0.0,0.0,0.0,0.0,0.0,0.0,0.0,0.0,0.0,0.0,0.0,0.0,0.0,0.0,0.0,0.0,0.0,0.0,0.0,0.0,0.0,0.0,0.0,0.0,0.0,0.0,0.0,0.0,0.0,0.0,0.0,0.0,0.0,0.0,0.0,0.0,0.0,0.0,0.0,0.0,0.0,0.0,0.0,0.0,0.0,0.0,0.0,0.0,0.0,0.0,0.0,0.0,0.0,0.0,0.0,0.0,0.0,0.0,0.0,0.0,0.0,0.0,0.0,0.0,0.0,0.0,0.0,0.0,0.0,0.0,0.0,0.0,0.0,0.0,0.0,0.0,0.0,0.0,0.0,0.0,0.0,0.0,0.0,0.0,0.0,0.0,0.0,0.0,0.0,0.0,0.0,0.0,0.0,0.0,0.0,0.0,0.0,0.0,0.0,0.0,0.0,0.0,0.0,0.0,0.0,0.0,0.0,0.0,0.0,0.0,0.0,0.0,0.0,0.0,0.0,0.0,0.0,0.0,0.0,0.0,0.0,0.0,0.0,0.0,0.0,0.0,0.0,0.0,0.0,0.0,0.0,0.0,0.0,0.0,0.0,0.0,0.0,0.0,0.0,0.0,0.0,0.0,0.0,0.0,0.0,0.0,0.0,0.0,0.0,0.0,0.0,0.0,0.0,0.0,0.0,0.0,0.0,0.0,0.0,0.0,0.0,0.0,0.0,0.0,0.0,0.0,0.0,0.0,0.0,0.0,0.0,0.0,0.0,0.0,0.0,0.0,0.0,0.0,0.0,0.0,0.0,0.0,0.0,0.0,0.0,0.0,0.0,0.0,0.0,0.0,0.0,0.0,0.0,0.0,0.0,0.0,0.0,0.0,0.0,0.0,0.0,0.0,0.0,0.0,0.0,0.0,0.0,0.0,0.0,0.0,0.0,0.0,0.0,0.0,0.0,0.0,0.0,0.0,0.0,0.0,0.0,0.0,0.0,0.0,0.0,0.0,0.0,0.0,0.0,0.0,0.0,0.0,0.0,0.0,0.0,0.0,0.0,0.0,0.0,0.0,0.0,0.0,0.0,0.0,0.0,0.0,0.0,0.0,0.0,0.0,0.0,0.0,0.0,0.0,0.0,0.0,0.0,0.0,0.0,0.0,0.0,0.0,0.0,0.0,0.0,0.0,0.0,0.0,0.0,0.0,0.0,0.0,0.0,0.0,0.0,0.0,0.0,0.0,0.0,0.0,0.0,0.0,0.0,0.0,0.0,0.0,0.0,0.0,0.0,0.0,0.0,0.0,0.0,0.0,0.0,0.0,0.0,0.0,0.0,0.0,0.0,0.0,0.0,0.0,0.0,0.0,0.0,0.0,0.0,0.0,0.0,0.0,0.0,0.0,0.0,0.0,0.0,0.0,0.0,0.0,0.0,0.0,0.0,0.0,0.0,0.0,0.0,0.0,0.0,0.0,0.0,0.0,0.0,0.0,0.0,0.0,0.0,0.0,0.0,0.0,0.0,0.0,0.0,0.0,0.0,0.0,0.0,0.0,0.0,0.0,0.0,0.0,0.0,0.0,0.0,0.0,0.0,0.0,0.0,0.0,0.0,0.0,0.0,0.0,0.0,0.0,0.0,0.0,0.0,0.0,0.0,0.0,0.0,0.0,0.0,0.0,0.0,0.0,0.0,0.0,0.0,0.0,0.0,0.0,0.0,0.0,0.0,0.0,0.0,0.0,0.0,0.0,0.0,0.0,0.0,0.0,0.0,0.0,0.0,0.0,0.0,0.0,0.0,0.0,0.0,0.0,0.0,0.0,0.0,0.0,0.0,0.0,0.0,0.0,0.0,0.0,0.0,0.0,0.0,0.0,0.0,0.0,0.0,0.0,0.0,0.0,0.0,0.0,0.0,0.0,0.0,0.0,0.0,0.0,0.0,0.0,0.0,0.0,0.0,0.0,0.0,0.0,0.0,0.0,0.0,0.0,0.0,0.0,0.0,0.0,0.0,0.0,0.0,0.0,0.0,0.0,0.0,0.0,0.0,0.0,0.0,0.0,0.0,0.0,0.0,0.0,0.0,0.0,0.0,0.0,0.0,0.0,0.0,0.0,0.0,0.0,0.0,0.0,0.0,0.0,0.0,0.0,0.0,0.0,0.0,0.0,0.0,0.0,0.0,0.0,0.0,0.0,0.0,0.0,0.0,0.0,0.0,0.0,0.0,0.0,0.0,0.0,0.0,0.0,0.0,0.0,0.0,0.0,0.0,0.0,0.0,0.0,0.0,0.0,0.0,0.0,0.0,0.0,0.0,0.0,0.0,0.0,0.0,0.0,0.0,0.0,0.0,0.0,0.0,0.0,0.0,0.0,0.0,0.0,0.0,0.0,0.0,0.0,0.0,0.0,0.0,0.0,0.0,0.0,0.0,0.0,0.0,0.0,0.0,0.0,0.0,0.0,0.0,0.0,0.0,0.0,0.0,0.0,0.0,0.0,0.0,0.0,0.0,0.0,0.0,0.0,0.0,0.0,0.0,0.0,0.0,0.0,0.0,0.0,0.0,0.0,0.0,0.0,0.0,0.0,0.0,0.0,0.0,0.0,0.0,0.0,0.0,0.0,0.0,0.0,0.0,0.0,0.0,0.0,0.0,0.0,0.0,0.0,0.0,0.0,0.0,0.0,0.0,0.0,0.0,0.0,0.0,0.0,0.0,0.0,0.0,0.0,0.0,0.0,0.0,0.0,0.0,0.0,0.0,0.0,0.0,0.0,0.0,0.0,0.0,0.0,0.0,0.0,0.0,0.0,0.0,0.0,0.0,0.0,0.0,0.0,0.0,0.0,0.0,0.0,0.0,0.0,0.0,0.0,0.0,0.0,0.0,0.0,0.0,0.0,0.0,0.0,0.0,0.0,0.0,0.0,0.0,0.0,0.0,0.0,0.0,0.0,0.0,0.0,0.0,0.0,0.0,0.0,0.0,0.0,0.0,0.0,0.0,0.0,0.0,0.0,0.0,0.0,0.0,0.0,0.0,0.0,0.0,0.0,0.0,0.0,0.0,0.0,0.0,0.0,0.0,0.0,0.0,0.0,0.0,0.0,0.0,0.0,0.0,0.0,0.0,0.0,0.0,0.0,0.0,0.0,0.0,0.0,0.0,0.0,0.0,0.0,0.0,0.0,0.0,0.0,0.0,0.0,0.0,0.0,0.0,0.0,0.0,0.0,0.0,0.0,0.0,0.0,0.0,0.0,0.0,0.0,0.0,0.0,0.0,0.0,0.0,0.0,0.0,0.0,0.0,0.0,0.0,0.0,0.0,0.0,0.0,0.0,0.0,0.0,0.0,0.0,0.0,0.0,0.0,0.0,0.0,0.0,0.0,0.0,0.0,0.0,0.0,0.0,0.0,0.0,0.0,0.0,0.0,0.0,0.0,0.0,0.0,0.0,0.0,0.0,0.0,0.0,0.0,0.0,0.0,0.0,0.0,0.0,0.0,0.0,0.0,0.0,0.0,0.0,0.0,0.0,0.0,0.0,0.0,0.0,0.0,0.0,0.0,0.0,0.0,0.0,0.0,0.0,0.0,0.0,0.0,0.0,0.0,0.0,0.0,0.0,0.0,0.0,0.0,0.0,0.0,0.0,0.0,0.0,0.0,0.0,0.0,0.0,0.0,0.0,0.0,0.0,0.0,0.0,0.0,0.0,0.0,0.0,0.0,0.0,0.0,0.0,0.0,0.0,0.0,0.0,0.0,0.0,0.0,0.0,0.0,0.0,0.0,0.0,0.0,0.0,0.0,0.0,0.0,0.0,0.0,0.0,0.0,0.0,0.0,0.0,0.0,0.0,0.0,0.0,0.0,0.0,0.0,0.0,0.0,0.0,0.0,0.0,0.0,0.0,0.0,0.0,0.0,0.0,0.0,0.0,0.0,0.0,0.0,0.0,0.0,0.0,0.0,0.0,0.0,0.0,0.0,0.0,0.0,0.0,0.0,0.0,0.0,0.0,0.0,0.0,0.0,0.0,0.0,0.0,0.0,0.0,0.0,0.0,0.0,0.0,0.0,0.0,0.0,0.0,0.0,0.0,0.0,0.0,0.0,0.0,0.0,0.0,0.0,0.0,0.0,0.0,0.0,0.0,0.0,0.0,0.0,0.0,0.0,0.0,0.0,0.0,0.0,0.0,0.0,0.0,0.0,0.0,0.0,0.0,0.0,0.0,0.0,0.0,0.0,0.0,0.0,0.0,0.0,0.0,0.0,0.0,0.0,0.0,0.0,0.0,0.0,0.0,0.0,0.0,0.0,0.0,0.0,0.0,0.0,0.0,0.0,0.0,0.0,0.0,0.0,0.0,0.0,0.0,0.0,0.0,0.0,0.0,0.0,0.0,0.0,0.0,0.0,0.0,0.0,0.0,0.0,0.0,0.0,0.0,0.0,0.0,0.0,0.0,0.0,0.0,0.0,0.0,0.0,0.0,0.0,0.0,0.0,0.0,0.0,0.0,0.0,0.0,0.0,0.0,0.0,0.0,0.0,0.0,0.0,0.0,0.0,0.0,0.0,0.0,0.0,0.0,0.0,0.0,0.0,0.0,0.0,0.0,0.0,0.0,0.0,0.0,0.0,0.0,0.0,0.0,0.0,0.0,0.0,0.0,0.0,0.0,0.0,0.0,0.0,0.0,0.0,0.0,0.0,0.0,0.0,0.0,0.0,0.0,0.0,0.0,0.0,0.0,0.0,0.0,0.0,0.0,0.0,0.0,0.0,0.0,0.0,0.0,0.0,0.0,0.0,0.0,0.0,0.0,0.0,0.0,0.0,0.0,0.0,0.0,0.0,0.0,0.0,0.0,0.0,0.0,0.0,0.0,0.0,0.0,0.0,0.0,0.0,0.0,0.0,0.0,0.0,0.0,0.0,0.0,0.0,0.0,0.0,0.0,0.0,0.0,0.0,0.0,0.0,0.0,0.0,0.0,0.0,0.0,0.0,0.0,0.0,0.0,0.0,0.0,0.0,0.0,0.0,0.0,0.0,0.0,0.0,0.0,0.0,0.0,0.0,0.0,0.0,0.0,0.0,0.0,0.0,0.0,0.0,0.0,0.0,0.0,0.0,0.0,0.0,0.0,0.0,0.0,0.0,0.0,0.0,0.0,0.0,0.0,0.0,0.0,0.0,0.0,0.0,0.0,0.0,0.0,0.0,0.0,0.0,0.0,0.0,0.0,0.0,0.0,0.0,0.0,0.0,0.0,0.0,0.0,0.0,0.0,0.0,0.0,0.0,0.0,0.0,0.0,0.0,0.0,0.0,0.0,0.0,0.0,0.0,0.0,0.0,0.0,0.0,0.0,0.0,0.0,0.0,0.0,-3.0061,0.0,0.0,0.0,0.0,0.0,0.0,0.0,0.0,0.0,0.0,0.0,0.0,0.0,0.0,0.0,0.0,0.0,0.0,0.0,0.0,0.0,0.0,0.0,0.0,-3.0767,-3.0747,-3.0704,-3.07,-3.0691,-3.0694,0.0,0.0,0.0,0.0,0.0,-3.33,-3.3713,-3.4147,-3.4607,-3.5016,-3.5259,-3.5303,-3.4863,-3.462,-3.4594,0.0,0.0,0.0,0.0,0.0,0.0,0.0,0.0,0.0,0.0,0.0,0.0,0.0,0.0,0.0,0.0,0.0,0.0,0.0,0.0,0.0,0.0,0.0,0.0,0.0,0.0,0.0,0.0,0.0,0.0,0.0,0.0,0.0,0.0,0.0,0.0,0.0,0.0,0.0,0.0,0.0,0.0,0.0,0.0,0.0,0.0,0.0,0.0,0.0,0.0,0.0,0.0,0.0,0.0,0.0,0.0,0.0,0.0,0.0,0.0,0.0,0.0,0.0,0.0,0.0,0.0,0.0,0.0,0.0,0.0,0.0,-3.0136,0.0,0.0,0.0,0.0,0.0,0.0,0.0,0.0,0.0,0.0,0.0,0.0,0.0,0.0,0.0,0.0,0.0,0.0,0.0,0.0,0.0,-3.0796,-3.0785,-3.0781,-3.0768,-3.0704,-3.0691,-3.0756,-3.0925,-3.161,0.0,0.0,-3.306,-3.3858,-3.4567,-3.4722,-3.5162,-3.5897,-3.5913,-3.594,-3.599,-3.6007,-3.5964,-3.5914,-3.5899,0.0,0.0,0.0,0.0,0.0,0.0,0.0,0.0,0.0,0.0,0.0,0.0,0.0,0.0,0.0,0.0,0.0,0.0,0.0,0.0,0.0,0.0,0.0,0.0,0.0,0.0,0.0,0.0,0.0,0.0,0.0,0.0,0.0,0.0,0.0,0.0,0.0,0.0,0.0,0.0,0.0,0.0,0.0,0.0,0.0,0.0,0.0,0.0,0.0,0.0,0.0,0.0,0.0,0.0,0.0,0.0,0.0,0.0,0.0,0.0,0.0,0.0,0.0,-3.0598,-3.0598,-3.0598,-3.0598,-3.0593,-3.0588,-3.053,-3.04,-3.0254,-3.0182,0.0,0.0,0.0,0.0,0.0,0.0,0.0,0.0,0.0,0.0,0.0,0.0,0.0,0.0,0.0,0.0,0.0,0.0,0.0,-3.0777,-3.0722,-3.0778,-3.0767,-3.0714,-3.0704,-3.1028,-3.1779,-3.1945,-3.2338,-3.3099,-3.3915,-3.4408,-3.4501,-3.5255,-3.5735,-3.5902,-3.5954,-3.5994,-3.6009,-3.6001,-3.5997,-3.5976,-3.5936,-3.5907,-3.5887,0.0,0.0,0.0,0.0,0.0,0.0,0.0,0.0,0.0,0.0,0.0,0.0,0.0,0.0,0.0,0.0,0.0,0.0,0.0,0.0,0.0,0.0,0.0,0.0,0.0,0.0,0.0,0.0,0.0,0.0,0.0,0.0,0.0,0.0,0.0,0.0,0.0,0.0,0.0,0.0,0.0,-3.0694,-3.0694,0.0,0.0,0.0,0.0,0.0,0.0,0.0,0.0,0.0,0.0,0.0,0.0,0.0,-3.0598,-3.0598,-3.0598,-3.0598,-3.0598,-3.0598,-3.0598,-3.0598,-3.0598,-3.0564,-3.0501,-3.0496,0.0,-3.0453,-3.0385,0.0,0.0,0.0,0.0,0.0,0.0,0.0,0.0,0.0,0.0,0.0,0.0,0.0,0.0,0.0,0.0,0.0,0.0,0.0,0.0,0.0,-3.0797,-3.0787,-3.0753,-3.1196,-3.1655,-3.2023,-3.2939,-3.3628,-3.402,-3.4793,-3.5236,-3.5236,-3.5651,-3.5868,-3.5894,-3.597,-3.5992,-3.5992,-3.6009,-3.6007,-3.6006,-3.5974,-3.5964,-3.5958,-3.5926,0.0,0.0,0.0,0.0,0.0,0.0,0.0,0.0,0.0,0.0,0.0,0.0,0.0,0.0,0.0,0.0,0.0,0.0,0.0,0.0,0.0,0.0,0.0,0.0,0.0,0.0,0.0,0.0,0.0,0.0,0.0,0.0,0.0,0.0,0.0,0.0,0.0,0.0,0.0,-3.0694,-3.0694,-3.0694,-3.113,-3.1429,0.0,0.0,0.0,0.0,0.0,0.0,0.0,0.0,0.0,-3.2005,-3.2005,-3.2005,-3.2005,-3.2005,-3.2005,-3.2005,-3.2005,-3.2005,-3.2005,-3.2005,-3.2,-3.1965,-3.192,-3.1899,-3.183,-3.0821,-3.0273,-3.0109,0.0,0.0,0.0,0.0,-2.9883,-2.9888,0.0,0.0,0.0,0.0,0.0,0.0,0.0,0.0,0.0,0.0,0.0,0.0,-3.0876,-3.0839,-3.0797,-3.0795,-3.1603,-3.2181,-3.2423,-3.3791,-3.4698,-3.4915,-3.5491,-3.5795,-3.5795,-3.5872,-3.5907,-3.5898,-3.5966,-3.5992,-3.5992,-3.5992,-3.5992,-3.5992,-3.6006,-3.5997,-3.6007,-3.5958,-3.5934,-3.5912,0.0,0.0,0.0,0.0,0.0,0.0,0.0,0.0,0.0,0.0,0.0,0.0,0.0,0.0,0.0,0.0,0.0,0.0,0.0,0.0,0.0,0.0,0.0,0.0,0.0,0.0,0.0,0.0,0.0,0.0,0.0,0.0,0.0,0.0,0.0,0.0,0.0,-3.1215,-3.1374,-3.1374,-3.1933,-3.2314,0.0,0.0,0.0,0.0,0.0,0.0,-3.3107,-3.3107,-3.3107,-3.3107,-3.3107,-3.3107,-3.3107,-3.3107,-3.3107,-3.3107,-3.3107,-3.3107,-3.3107,-3.3107,-3.3107,-3.3102,-3.3045,-3.3023,-3.2871,-3.1366,-3.0605,-3.0414,-3.0185,-3.0022,-2.9902,-2.9942,-3.0015,-3.0115,0.0,0.0,0.0,0.0,0.0,0.0,0.0,0.0,0.0,0.0,0.0,-3.0878,-3.0814,-3.0795,-3.0795,-3.0791,-3.1595,-3.2455,-3.3277,-3.4129,-3.4979,-3.5791,-3.5802,-3.5795,-3.5795,-3.587,-3.5907,-3.5898,-3.5966,-3.5992,-3.5992,-3.5992,-3.5992,-3.5992,-3.5992,-3.6007,-3.5999,-3.6007,-3.5984,-3.5984,-3.5934,0.0,0.0,0.0,0.0,0.0,0.0,0.0,0.0,0.0,0.0,0.0,0.0,0.0,0.0,0.0,0.0,0.0,0.0,0.0,0.0,0.0,0.0,0.0,0.0,0.0,0.0,0.0,0.0,0.0,0.0,0.0,0.0,0.0,0.0,0.0,0.0,0.0,0.0,-3.3177,-3.3215,0.0,0.0,0.0,0.0,-3.3203,-3.3209,-3.3161,-3.3107,-3.3107,-3.3107,-3.3107,-3.3107,-3.3107,-3.3107,-3.3107,-3.3107,-3.3107,-3.3107,-3.3107,-3.3107,-3.3107,-3.3107,-3.3107,-3.3102,-3.3056,-3.2929,-3.2017,-3.1527,-3.125,-3.0414,-3.0022,-2.9918,-3.0044,-3.0082,-3.0129,0.0,0.0,0.0,0.0,0.0,-3.0898,-3.0898,-3.0898,-3.0897,-3.0896,-3.0896,-3.0897,-3.0879,-3.0859,-3.1093,-3.1659,-3.2459,-3.332,-3.4179,-3.5033,-3.562,-3.5896,-3.5889,-3.5855,-3.5851,-3.5883,-3.5918,-3.5967,-3.5998,-3.5992,-3.5992,-3.5992,-3.5992,-3.5992,-3.5992,-3.5991,-3.6007,-3.5999,-3.5995,-3.5994,-3.5964,-3.5936,0.0,0.0,0.0,0.0,0.0,0.0,0.0,0.0,0.0,0.0,0.0,0.0,0.0,0.0,0.0,0.0,0.0,0.0,0.0,0.0,0.0,0.0,0.0,0.0,0.0,0.0,0.0,0.0,0.0,0.0,0.0,0.0,0.0,0.0,0.0,0.0,0.0,-3.3293,-3.3759,0.0,-3.407,-3.4555,-3.4859,-3.4817,-3.4812,-3.4807,-3.4775,-3.4775,-3.4775,-3.4775,-3.4775,-3.4775,-3.4775,-3.4775,-3.5027,-3.5544,-3.5544,-3.5544,-3.5544,-3.5544,-3.5259,-3.4775,-3.4734,-3.4706,-3.4608,-3.3698,-3.2942,-3.2327,-3.2013,-3.1564,-3.1064,-3.1111,-3.0759,-3.0305,0.0,0.0,0.0,0.0,0.0,-3.0898,-3.0898,-3.0898,-3.0898,-3.0898,-3.0898,-3.0898,-3.0898,-3.0898,-3.125,-3.2129,-3.2949,-3.3768,-3.4644,-3.5487,-3.5947,-3.5908,-3.59,-3.5896,-3.5908,-3.5897,-3.5935,-3.5992,-3.5992,-3.5992,-3.5992,-3.5992,-3.5992,-3.5992,-3.5992,-3.5992,-3.5992,-3.6006,-3.6004,-3.6002,-3.5994,-3.5966,-3.5921,0.0,0.0,0.0,0.0,0.0,0.0,0.0,0.0,0.0,0.0,0.0,0.0,0.0,0.0,0.0,0.0,0.0,0.0,0.0,0.0,0.0,0.0,0.0,0.0,0.0,0.0,0.0,0.0,0.0,0.0,0.0,0.0,0.0,0.0,0.0,-3.4148,-3.4148,-3.4614,-3.4944,-3.4944,-3.5452,-3.5784,-3.5742,-3.5713,-3.5824,-3.6126,-3.6115,-3.6245,-3.6535,-3.6535,-3.6535,-3.6535,-3.6535,-3.6806,-3.7348,-3.7348,-3.7348,-3.7348,-3.7348,-3.7058,-3.6535,-3.6507,-3.6458,-3.6382,-3.5753,-3.4963,-3.4103,-3.3237,-3.2564,-3.2102,-3.2102,-3.1737,-3.1231,0.0,0.0,0.0,0.0,0.0,-3.0898,-3.0898,-3.0898,-3.0898,-3.0898,-3.0898,-3.0898,-3.0898,-3.0898,-3.1269,-3.2168,-3.2949,-3.3788,-3.4683,-3.5476,-3.5895,-3.5898,-3.5908,-3.5908,-3.5898,-3.5898,-3.5934,-3.5992,-3.6031,-3.6031,-3.6031,-3.607,-3.607,-3.6031,-3.6031,-3.6031,-3.5992,-3.5992,-3.5992,-3.5991,-3.6004,-3.5999,-3.5999,0.0,0.0,0.0,0.0,0.0,0.0,0.0,0.0,0.0,0.0,0.0,0.0,0.0,0.0,0.0,0.0,0.0,0.0,0.0,0.0,0.0,0.0,0.0,0.0,0.0,0.0,0.0,0.0,0.0,0.0,0.0,0.0,0.0,-3.4653,-3.5274,-3.5795,-3.5795,-3.5795,-3.5795,-3.5795,-3.5795,-3.5806,-3.5842,-3.5781,-3.612,-3.6985,-3.6978,-3.7328,-3.8174,-3.8193,-3.8193,-3.8193,-3.8193,-3.8212,-3.8232,-3.8232,-3.8232,-3.8232,-3.8232,-3.8232,-3.8193,-3.8201,-3.8151,-3.808,-3.804,-3.7497,-3.6481,-3.3987,-3.2987,-3.2949,-3.2949,-3.291,-3.2891,0.0,0.0,0.0,-3.0898,-3.0898,-3.0898,-3.0898,-3.0898,-3.0898,-3.0898,-3.0898,-3.0898,-3.0898,-3.0898,-3.1484,-3.2949,-3.3262,-3.4042,-3.5542,-3.5859,-3.5957,-3.5898,-3.5898,-3.5898,-3.5898,-3.5951,-3.598,-3.5992,-3.6636,-3.6931,-3.697,-3.7594,-3.7555,-3.6931,-3.6931,-3.6597,-3.5992,-3.5992,-3.5992,-3.5992,-3.6009,-3.6006,-3.5999,0.0,0.0,0.0,0.0,0.0,0.0,0.0,0.0,0.0,0.0,0.0,0.0,0.0,0.0,0.0,0.0,0.0,0.0,0.0,0.0,0.0,0.0,0.0,0.0,0.0,0.0,0.0,0.0,0.0,0.0,0.0,-3.5639,-3.5717,-3.5484,-3.5639,-3.5795,-3.5795,-3.5795,-3.5795,-3.5795,-3.5795,-3.6058,-3.6701,-3.673,-3.7075,-3.7901,-3.7929,-3.799,-3.8193,-3.8193,-3.8193,-3.8193,-3.8193,-3.8528,-3.9133,-3.9133,-3.9133,-3.9133,-3.9133,-3.8798,-3.8193,-3.8201,-3.8151,-3.808,-3.804,-3.7863,-3.7507,-3.618,-3.4911,-3.384,-3.384,-3.343,-3.2891,0.0,0.0,0.0,-3.0898,-3.0898,-3.0898,-3.0898,-3.0898,-3.0898,-3.0898,-3.0898,-3.0898,-3.0898,-3.0898,-3.1562,-3.3242,-3.3398,-3.414,-3.5894,-3.6007,-3.5971,-3.5898,-3.5936,-3.5933,-3.5933,-3.598,-3.6187,-3.6539,-3.7048,-3.7497,-3.7869,-3.8357,-3.8337,-3.7849,-3.7849,-3.736,-3.6539,-3.6539,-3.6324,-3.5992,-3.5992,-3.6009,-3.6004,-3.6004,-3.5999,-3.5992,-3.5992,-3.6007,-3.5984,-3.5958,0.0,0.0,0.0,0.0,0.0,0.0,0.0,0.0,0.0,0.0,0.0,0.0,0.0,0.0,0.0,0.0,0.0,0.0,0.0,0.0,0.0,0.0,0.0,0.0,-3.5795,-3.5795,-3.5795,-3.5795,-3.5795,-3.5795,-3.5795,-3.5931,-3.63,-3.633,-3.6666,-3.7531,-3.7589,-3.7927,-3.8753,-3.88,-3.8957,-3.9282,-3.9282,-3.9282,-3.9282,-3.9282,-3.9533,-4.0042,-4.0042,-4.0042,-4.0042,-4.0042,-3.9771,-3.9301,-3.9264,-3.9213,-3.9141,-3.9119,-3.8871,0.0,0.0,0.0,0.0,0.0,-3.493,-3.4449,0.0,0.0,0.0,-3.0898,-3.0898,-3.0898,-3.0898,-3.0898,-3.0898,-3.0898,-3.0898,-3.0898,-3.0898,-3.0898,-3.1543,-3.3125,-3.3359,-3.4139,-3.5894,-3.6001,-3.5964,-3.5917,-3.5965,-3.5992,-3.5992,-3.6109,-3.6539,-3.7301,-3.7497,-3.7985,-3.8747,-3.8845,-3.8825,-3.8747,-3.8747,-3.8201,-3.7301,-3.7301,-3.6794,-3.5992,-3.5992,-3.5992,-3.5992,-3.5992,-3.6007,-3.6001,-3.6001,-3.5995,-3.6007,-3.6007,0.0,0.0,0.0,0.0,0.0,0.0,0.0,0.0,0.0,0.0,0.0,0.0,0.0,0.0,0.0,0.0,0.0,0.0,0.0,0.0,0.0,0.0,0.0,0.0,-3.5795,-3.5795,-3.5795,-3.5872,-3.595,-3.595,-3.595,-3.628,-3.7154,-3.719,-3.7526,-3.8375,-3.8393,-3.8748,-3.96,0.0,0.0,0.0,0.0,-4.0797,-4.0797,-4.0797,-4.0797,-4.0797,-4.0797,-4.0797,-4.0797,-4.0797,-4.0797,-4.079,-4.0733,-4.0661,-4.0607,-4.0603,-4.0142,-3.9342,-3.8373,-3.8007,-3.7911,-3.7142,-3.6846,-3.6731,0.0,0.0,0.0,-3.0898,-3.0898,-3.0898,-3.0898,-3.0898,-3.0898,-3.0898,-3.0898,-3.0898,-3.0898,-3.0898,-3.1309,-3.2344,-3.3027,-3.414,-3.5894,-3.6001,-3.5995,-3.598,-3.5995,-3.5992,-3.5992,-3.6696,-3.7126,-3.7301,-3.8648,-3.9409,-3.9585,-4.0289,-4.025,-3.9566,-3.9566,-3.8726,-3.7301,-3.7301,-3.6794,-3.5992,-3.5992,-3.5992,-3.5992,-3.5992,-3.5991,-3.6009,-3.6009,-3.6009,-3.6006,-3.5999,-3.5997,-3.5995,-3.6007,-3.6005,0.0,0.0,0.0,0.0,0.0,0.0,0.0,0.0,0.0,0.0,0.0,0.0,0.0,0.0,0.0,0.0,0.0,0.0,0.0,-3.5795,-3.5795,-3.5795,-3.5795,-3.6416,-3.6848,-3.6848,-3.6848,-3.7169,-3.7982,-3.8112,-3.8476,-3.9281,-3.933,-3.9688,-4.051,-4.0543,-4.0628,-4.0797,-4.0797,-4.0797,-4.0797,-4.0797,-4.0797,-4.0797,0.0,0.0,-4.0797,-4.0797,-4.0797,-4.079,-4.0733,-4.0661,-4.0607,-4.0603,-4.0469,-4.0131,-3.8584,-3.8007,-3.7988,-3.7815,-3.7757,-3.7738,0.0,0.0,0.0,-3.0898,-3.0898,-3.0898,-3.0898,-3.0898,-3.0898,-3.0898,-3.0898,-3.0898,-3.0898,-3.0898,-3.1406,-3.2695,-3.3964,-3.5076,-3.5949,-3.5999,-3.5992,-3.5992,-3.5992,-3.5992,-3.5992,-3.6852,-3.7516,-3.7947,-3.9195,-4.0015,-4.0464,-4.0894,-4.0875,-4.0444,-4.0444,-3.9527,-3.7947,-3.7947,-3.7204,-3.5992,-3.5992,-3.5992,-3.5992,-3.5992,-3.5992,-3.5992,-3.5992,-3.5992,-3.5992,-3.6007,-3.6006,-3.6006,-3.6001,-3.5999,-3.5999,0.0,0.0,0.0,0.0,0.0,0.0,0.0,0.0,0.0,0.0,0.0,0.0,0.0,0.0,-3.5795,-3.5795,0.0,-3.5795,-3.5795,-3.5795,-3.595,-3.6397,-3.6828,-3.71,-3.71,-3.7489,-3.8086,-3.8927,-3.8991,-3.9325,-4.0148,-4.0195,-4.0386,-4.0776,-4.0796,-4.0809,-4.0797,-4.0797,-4.099,-4.139,-4.139,-4.1622,-4.2048,-4.2048,-4.2048,-4.2048,-4.2048,-4.2048,-4.2028,-4.1545,-4.1325,-4.1272,-4.0783,-4.0565,-4.0419,-3.9592,-3.9238,-3.92,-3.8796,-3.8642,-3.8584,0.0,0.0,0.0,-3.0877,-3.0898,-3.0898,-3.0898,-3.0898,-3.0898,-3.0898,-3.0898,-3.0898,-3.0898,-3.0898,-3.1562,-3.3242,-3.4685,-3.5638,-3.5987,-3.5998,-3.5992,-3.5992,-3.5992,-3.5992,-3.5992,-3.6852,-3.7731,-3.8591,-3.9409,-4.0249,-4.1109,-4.1109,-4.1109,-4.109,-4.0914,-4.0016,-3.8591,-3.8415,-3.7438,-3.5992,-3.5992,-3.5992,-3.5992,-3.5992,-3.5992,-3.5992,-3.5992,-3.5992,-3.5992,-3.5992,-3.5992,-3.5992,-3.5992,-3.5992,-3.5991,-3.6004,-3.5964,0.0,0.0,0.0,0.0,0.0,0.0,0.0,0.0,0.0,-3.5795,-3.5795,-3.5795,-3.5795,-3.5795,-3.5795,-3.5795,-3.5795,-3.5931,-3.63,-3.7003,-3.7392,-3.7605,-3.7605,-3.8227,-3.8984,-3.9849,-3.9874,-4.0114,-4.0743,-4.08,-4.0809,-4.0797,-4.0951,-4.1029,-4.1029,-4.1203,-4.1603,-4.2241,-4.2241,-4.2609,-4.3305,-4.3305,-4.3305,-4.3305,-4.3305,-4.3305,-4.3266,-4.2544,-4.2234,-4.2161,-4.1388,-4.0958,-4.0773,-4.0766,-4.065,-4.0419,-3.9765,-3.9534,-3.9438,0.0,0.0,0.0,0.0,0.0,-3.0898,-3.0898,-3.0898,-3.0898,-3.0898,-3.0898,-3.0898,-3.0898,-3.0898,-3.1562,-3.3242,-3.3572,-3.435,-3.5893,-3.6,-3.5992,-3.5992,-3.5992,-3.5992,-3.5992,-3.6852,-3.7731,-3.8591,-3.9409,-4.0249,-4.1109,-4.1109,-4.1109,-4.107,-4.0288,-3.9449,-3.8552,-3.777,-3.6891,-3.5992,-3.5992,-3.5992,-3.5992,-3.5992,-3.5992,-3.5992,-3.5992,-3.5992,-3.5992,-3.5992,-3.5992,-3.5992,-3.5992,-3.5992,-3.5992,-3.5991,-3.5994,-3.5996,-3.5996,-3.5996,-3.5968,-3.5909,-3.5897,-3.5877,0.0,0.0,-3.5795,-3.5795,-3.5795,-3.5795,-3.5795,-3.5795,-3.5795,-3.5795,-3.6459,-3.6984,-3.7081,-3.8441,-3.9407,-3.9407,-3.9509,-3.9869,-4.0694,-4.0752,-4.0771,-4.0806,-4.0804,-4.0792,-4.0797,-4.1487,-4.1874,-4.1874,-4.2628,-4.3053,-4.315,-4.315,-4.3208,-4.3305,-4.3305,-4.3305,-4.3305,-4.3305,-4.3305,-4.3279,-4.3123,-4.3071,-4.3057,-4.2899,-4.2399,-4.1736,-4.1678,-4.1181,-4.0496,-4.04,-4.0362,-4.0342,0.0,0.0,0.0,0.0,0.0,-3.0855,-3.0898,-3.0898,-3.0898,-3.0898,-3.0898,-3.0898,-3.0898,-3.1348,-3.1934,-3.2637,-3.3592,-3.4467,-3.5209,-3.5727,-3.5992,-3.5992,-3.5992,-3.5992,-3.5992,-3.6852,-3.7477,-3.7849,-3.8689,-3.9294,-3.9645,-3.9645,-3.9645,-3.9626,-3.9255,-3.863,-3.783,-3.7458,-3.6794,-3.5992,-3.5992,-3.5992,-3.5992,-3.5992,-3.5992,-3.5992,-3.5992,-3.5992,0.0,-3.5992,-3.5992,-3.5992,-3.5992,-3.5992,-3.5992,-3.5992,-3.5992,-3.5992,-3.5992,-3.5992,-3.5986,-3.5927,-3.5895,-3.5877,-3.5815,-3.5795,-3.5795,-3.5795,-3.5795,-3.5795,-3.5795,-3.5795,-3.5795,0.0,-3.6537,-3.7275,-3.778,-3.8926,-3.9873,-4.0344,-4.0402,-4.0534,-4.0869,-4.0903,-4.0888,-4.0851,-4.1294,-4.1561,-4.1557,-4.2325,-4.2763,-4.2763,-4.3111,-4.3537,-4.4052,-4.4059,-4.4291,-4.4755,-4.4755,-4.4755,-4.4755,-4.4755,-4.4504,-4.4052,-4.4026,-4.3696,-4.3199,-4.3163,-4.2946,-4.2591,-4.2576,-4.2013,-4.12,-4.0689,-4.0496,-4.0496,0.0,0.0,0.0,0.0,0.0,-3.077,-3.0856,-3.0898,-3.0898,-3.0898,-3.0898,-3.0898,-3.0898,-3.1465,-3.1934,-3.2187,-3.3299,-3.4195,-3.4663,-3.5299,-3.5741,-3.5992,-3.5992,-3.5992,-3.5992,-3.6617,-3.7067,-3.7301,-3.7927,-3.8357,-3.8591,-3.8591,-3.8591,-3.8591,-3.8357,-3.7888,-3.7282,-3.7048,-3.6578,-3.5992,-3.5992,-3.5992,-3.5992,-3.5992,-3.5992,-3.5992,-3.5992,-3.5992,-3.5992,-3.5992,-3.5992,-3.5992,-3.5992,-3.5992,-3.5992,-3.5992,-3.5992,-3.5992,-3.5992,-3.5992,-3.5986,-3.5927,-3.5895,-3.5877,-3.5815,-3.5795,-3.5795,-3.5795,-3.5795,-3.5795,-3.5795,-3.5795,-3.5795,-3.5795,-3.6731,-3.7683,-3.8309,-3.9334,-4.0247,-4.083,-4.0907,-4.0907,-4.0907,-4.0908,-4.0985,-4.1202,-4.1765,-4.2194,-4.2428,-4.3215,-4.3653,-4.3653,-4.3866,-4.4291,-4.4929,-4.4929,-4.522,-4.5807,-4.5807,-4.5807,-4.5807,-4.5807,-4.5471,-4.4929,-4.4929,-4.4548,-4.3909,-4.3921,-4.3743,-4.3478,-4.3474,-4.2922,-4.2082,-4.1458,-4.092,-4.0496,0.0,0.0,0.0,0.0,0.0,-3.0645,-3.0774,-3.0856,-3.0898,-3.0898,-3.0898,-3.0898,-3.0898,-3.0918,-3.1289,-3.2129,-3.2187,-3.2908,-3.4584,-3.4717,-3.5121,-3.5953,-3.5992,-3.5992,-3.5992,-3.6031,-3.6441,-3.7301,-3.7321,-3.777,-3.8591,-3.8591,-3.8591,-3.8552,-3.7711,-3.7321,-3.7243,-3.6402,-3.6012,-3.5992,-3.5992,-3.5992,-3.5992,-3.5992,-3.5992,-3.5992,-3.5992,-3.5992,-3.5992,-3.5992,-3.5992,-3.5992,-3.5992,-3.5992,-3.5992,-3.5992,-3.5992,-3.5992,-3.5992,-3.5992,-3.5986,-3.5927,-3.5895,-3.5877,-3.5815,-3.5795,-3.5795,-3.5795,-3.5795,-3.5795,-3.5795,-3.5795,-3.5795,-3.5795,-3.7236,-3.8367,-3.8406,-3.982,-4.0869,-4.0907,-4.0907,-4.0907,0.0,-4.0907,-4.1213,-4.1989,-4.2081,-4.2445,-4.3208,-4.4098,-4.4555,-4.4555,-4.5316,-4.5749,-4.5768,-4.5768,-4.5787,-4.5807,-4.5807,-4.5807,-4.5807,-4.5807,-4.5787,-4.5768,-4.5768,-4.5749,-4.5722,-4.5725,-4.5228,-4.444,-4.4384,-4.3824,-4.3065,-4.3025,-4.195,-4.0496,0.0,0.0,0.0,0.0,0.0,0.0,-3.0653,-3.0765,-3.0855,-3.0898,-3.0898,0.0,0.0,0.0,0.0,0.0,-3.1795,-3.2359,-3.2943,-3.405,-3.4825,-3.5115,-3.568,-3.5992,-3.5992,-3.5992,-3.6148,-3.6441,-3.6441,-3.6597,-3.6872,-3.6872,-3.6872,-3.6852,-3.6578,-3.6441,-3.6422,-3.6129,-3.5992,-3.5992,-3.5992,-3.5992,-3.5992,-3.5992,-3.5992,-3.5992,0.0,-3.5992,-3.5992,-3.5992,-3.5992,-3.5992,-3.5992,-3.5992,-3.5992,-3.5992,-3.5992,-3.5992,-3.5992,-3.5992,-3.5986,-3.5927,-3.5895,-3.5877,-3.5815,-3.5795,-3.5795,-3.5795,-3.5795,-3.5795,-3.5795,-3.5795,-3.5795,-3.5795,-3.7256,-3.8406,-3.8406,-3.9839,-4.0907,-4.0907,-4.0907,0.0,0.0,0.0,0.0,-4.2145,-4.3194,-4.3935,-4.4208,-4.4976,-4.5394,-4.5394,-4.5671,-4.5807,-4.5807,-4.5807,-4.5807,-4.5807,-4.5807,-4.5807,-4.5807,-4.5807,-4.5807,-4.5807,-4.5807,-4.5807,-4.5807,-4.5793,-4.5636,-4.5363,-4.5333,-4.4801,-4.4018,-4.3978,-4.323,-4.2144,0.0,0.0,0.0,0.0,0.0,0.0,0.0,0.0,0.0,0.0,0.0,0.0,0.0,0.0,0.0,0.0,0.0,-3.1794,-3.2084,-3.3154,-3.4047,-3.4666,-3.5232,-3.568,-3.5992,-3.5992,-3.5992,-3.5992,-3.5992,-3.5992,-3.5992,-3.5992,-3.5992,-3.5992,-3.5992,-3.5992,-3.5992,-3.5992,-3.5992,-3.5992,-3.5992,-3.5992,-3.5992,-3.5992,-3.5992,0.0,-3.5992,-3.5992,-3.5992,-3.5992,-3.5992,-3.5992,-3.5992,-3.5992,-3.5992,-3.5992,-3.5992,-3.5992,-3.5992,-3.5992,-3.5986,-3.5927,-3.5895,-3.5877,-3.5815,-3.5795,-3.5795,-3.5795,-3.5795,-3.5795,-3.5795,-3.5795,-3.5892,-3.6203,-3.7469,-3.8503,-3.881,-4.0033,-4.0907,-4.0907,-4.0907,-4.1238,0.0,0.0,0.0,-4.3073,-4.4084,-4.4826,-4.5111,-4.5577,-4.5821,-4.5807,-4.5807,-4.5807,-4.5807,-4.5807,-4.5807,-4.5807,-4.5807,-4.5807,-4.5807,-4.5807,-4.5807,-4.5807,-4.5807,-4.5807,-4.5807,-4.5807,-4.5793,-4.5803,-4.5795,-4.5464,-4.4951,-4.4893,-4.4302,-4.34,0.0,0.0,0.0,0.0,0.0,0.0,0.0,0.0,0.0,0.0,0.0,0.0,0.0,0.0,0.0,0.0,0.0,0.0,-3.1987,-3.2084,-3.2842,-3.4492,-3.4647,-3.5096,-3.5914,-3.5973,-3.5992,-3.5992,-3.5992,-3.5992,-3.5992,-3.5992,-3.5992,-3.5992,-3.5991,-3.5989,-3.5989,-3.5988,-3.5988,-3.5989,-3.5989,-3.5991,-3.5992,-3.5992,-3.5992,-3.5992,-3.5992,-3.5992,-3.5992,-3.5992,-3.5992,-3.5992,-3.5992,-3.5992,-3.5992,-3.5992,-3.5992,-3.5992,-3.5992,-3.5992,-3.5986,-3.5927,-3.5895,-3.5877,-3.5815,-3.5795,-3.5795,-3.5795,-3.5795,-3.5795,0.0,0.0,-3.6067,-3.6906,-3.78,-3.8697,-3.9528,-4.0364,-4.0907,0.0,0.0,0.0,0.0,0.0,0.0,-4.4697,0.0,-4.5095,-4.5867,-4.59,-4.586,-4.5807,-4.5807,-4.5807,-4.5807,-4.5807,-4.5807,-4.5807,-4.5807,-4.5807,-4.5807,-4.5807,-4.5807,-4.5807,-4.5807,-4.5807,-4.5807,-4.5807,-4.5807,-4.58,-4.5803,-4.5807,-4.5788,-4.5723,-4.5182,-4.4237,0.0,0.0,0.0,0.0,0.0,0.0,0.0,0.0,0.0,0.0,0.0,0.0,0.0,0.0,0.0,0.0,0.0,0.0,-3.1187,-3.1767,-3.2308,-3.2735,-3.4003,-3.4803,-3.5037,-3.566,-3.5992,-3.5992,-3.5992,-3.5992,-3.5992,-3.5992,-3.5992,-3.5991,-3.5945,-3.5929,-3.5926,-3.582,-3.583,-3.5929,-3.5929,-3.5968,-3.5992,-3.5992,-3.5992,-3.5992,-3.5992,-3.5992,-3.5992,-3.5992,-3.5992,-3.5992,-3.5992,-3.5992,-3.5992,-3.5992,-3.5992,-3.5992,-3.5992,-3.5992,-3.5986,-3.5927,-3.5895,-3.5877,-3.5815,-3.5795,-3.5795,-3.5795,-3.5795,-3.5795,-3.5795,0.0,0.0,-3.6105,-3.7411,0.0,-3.8697,-3.9975,0.0,-4.0907,0.0,-4.151,-4.3025,-4.3374,0.0,0.0,-4.5678,-4.5747,-4.5899,-4.5893,-4.586,-4.5807,-4.5807,-4.5807,-4.5807,-4.5807,-4.5807,-4.5807,-4.5807,-4.5807,-4.5807,-4.5807,-4.5807,-4.5807,-4.5807,-4.5807,-4.5807,-4.5807,-4.5807,-4.5807,-4.5793,-4.5793,-4.5805,-4.5788,-4.563,-4.5287,0.0,0.0,0.0,0.0,0.0,0.0,0.0,0.0,0.0,0.0,0.0,0.0,0.0,0.0,0.0,0.0,0.0,0.0,0.0,-3.118,-3.1601,-3.2004,-3.2978,-3.3865,-3.4647,-3.5167,-3.5621,-3.5992,-3.5978,-3.5968,-3.5949,-3.5907,-3.5877,-3.5875,-3.5824,-3.5807,-3.5804,-3.5737,-3.5745,0.0,0.0,-3.5864,-3.5968,-3.5968,-3.598,-3.5992,-3.5992,-3.5992,-3.5992,-3.5992,-3.5992,-3.5992,-3.5992,-3.5992,-3.5992,-3.5992,-3.5992,-3.5992,-3.5992,-3.5992,-3.5983,-3.5916,-3.5903,-3.588,-3.5856,-3.5823,-3.5795,-3.5795,-3.5795,-3.5795,-3.5795,-3.5795,-3.5931,0.0,0.0,0.0,-3.8868,-3.9781,-4.0499,0.0,-4.0907,0.0,-4.333,-4.3505,-4.421,0.0,-4.6005,-4.5983,-4.5955,-4.5918,-4.5887,-4.5847,-4.5814,-4.5807,-4.5807,-4.5807,-4.5807,-4.5807,-4.5807,-4.5807,-4.5807,-4.5807,-4.5807,-4.5807,0.0,-4.5807,-4.5807,-4.5807,-4.5807,-4.5807,-4.5807,-4.5807,-4.58,-4.5798,-4.5803,-4.5723,0.0,0.0,0.0,0.0,0.0,0.0,0.0,0.0,0.0,0.0,-3.0593,-3.0591,0.0,0.0,0.0,0.0,0.0,0.0,0.0,0.0,-3.0944,-3.1688,-3.1899,-3.2688,-3.4211,-3.4523,-3.5045,-3.5804,-3.5844,-3.5878,-3.5875,-3.5753,-3.5698,-3.5698,-3.5685,-3.57,-3.57,-3.5687,-3.5687,-3.57,-3.57,-3.5753,-3.5878,0.0,-3.5936,-3.5986,-3.5991,-3.5992,-3.5992,-3.5992,-3.5992,-3.5992,-3.5992,-3.5992,-3.5992,-3.5992,-3.5992,-3.5992,-3.5992,-3.5992,-3.5979,-3.5917,-3.5894,-3.5892,-3.5904,-3.5862,-3.5811,-3.5799,-3.5795,-3.5795,-3.5795,-3.5795,-3.6047,-3.6809,0.0,-3.7664,-3.9295,-3.9621,-3.9994,-4.0791,-4.0907,-4.1587,-4.333,-4.3505,-4.421,-4.5866,-4.6002,-4.6005,-4.5997,-4.5949,-4.5893,-4.5893,-4.5821,-4.5807,-4.5807,-4.5807,-4.5807,-4.5807,-4.5807,-4.5807,-4.5807,-4.5807,-4.5807,-4.5807,-4.5807,-4.5807,-4.5807,-4.5807,-4.5807,-4.5807,-4.5807,-4.5807,-4.5807,-4.5807,-4.5805,-4.5795,0.0,0.0,0.0,0.0,0.0,0.0,0.0,0.0,0.0,0.0,-3.0535,-3.058,0.0,0.0,0.0,0.0,0.0,0.0,0.0,0.0,0.0,-3.083,-3.1524,-3.2055,-3.237,-3.3783,-3.4607,-3.4763,-3.5403,-3.5741,-3.5741,-3.5706,-3.5698,-3.5693,-3.5636,-3.5614,-3.5609,-3.5565,-3.5564,-3.5614,-3.5614,-3.566,-3.5749,-3.5869,0.0,0.0,-3.5983,-3.5992,-3.5992,-3.5992,-3.5992,-3.5992,-3.5992,-3.5992,-3.5992,-3.5992,-3.5992,-3.5992,-3.5992,-3.5992,-3.5979,-3.5917,-3.5898,-3.5893,-3.5892,-3.588,0.0,-3.5811,-3.5795,-3.5795,-3.5795,-3.5795,-3.5853,-3.6008,-3.6634,-3.745,-3.8484,-3.9256,-3.9994,0.0,-4.0907,-4.1587,-4.333,-4.3505,0.0,0.0,-4.6002,-4.6005,-4.5997,-4.5949,-4.5861,-4.5814,-4.5807,-4.5807,-4.5807,-4.5807,-4.5807,-4.5807,-4.5807,-4.5807,-4.5807,-4.5807,-4.5807,-4.5807,-4.5807,0.0,-4.5807,-4.5807,-4.5807,-4.5807,-4.5807,-4.5807,-4.5807,-4.5807,-4.58,-4.5793,0.0,0.0,0.0,0.0,0.0,0.0,0.0,-3.0398,-3.0406,-3.041,-3.0453,-3.049,-3.0455,-3.0472,-3.0495,0.0,0.0,0.0,0.0,0.0,0.0,0.0,0.0,0.0,-3.1844,-3.2699,-3.3363,-3.3813,0.0,-3.4967,-3.4986,-3.5391,-3.5596,-3.559,-3.5552,-3.5547,-3.554,-3.5508,-3.5521,-3.5547,-3.5547,-3.5585,-3.565,0.0,0.0,0.0,0.0,-3.5945,-3.5949,-3.5986,-3.5992,-3.5992,-3.5992,-3.5992,-3.5992,-3.5992,-3.5992,-3.5992,-3.5992,-3.5992,-3.5995,-3.5968,-3.5936,-3.5898,-3.5903,0.0,0.0,-3.5856,-3.584,-3.5849,-3.5803,-3.5795,-3.5795,-3.5795,-3.6144,-3.6731,-3.7605,-3.846,-3.9334,-4.0189,-4.0655,-4.1587,-4.333,-4.3505,-4.421,-4.5866,-4.6002,-4.5997,-4.6,-4.5935,-4.5886,-4.5854,-4.5814,-4.5807,-4.5807,-4.5807,-4.5807,-4.5807,-4.5807,-4.5807,-4.5807,-4.5807,-4.5807,-4.5807,-4.5807,-4.5807,-4.5807,-4.5807,-4.5807,-4.5807,-4.5807,-4.5807,-4.5807,-4.5807,-4.5807,-4.5807,0.0,0.0,0.0,0.0,0.0,0.0,-3.0411,-3.0406,-3.0394,-3.0404,-3.0404,-3.0404,-3.0404,-3.0404,-3.0404,0.0,0.0,0.0,0.0,0.0,0.0,0.0,0.0,0.0,0.0,0.0,0.0,-3.2888,-3.363,0.0,0.0,0.0,0.0,0.0,-3.4942,-3.4942,-3.4942,-3.4942,-3.4942,0.0,0.0,-3.4976,0.0,0.0,0.0,0.0,0.0,0.0,-3.5916,-3.5981,-3.5992,-3.5992,-3.5992,-3.5992,-3.5992,-3.5992,-3.5992,-3.5992,-3.5992,-3.5992,-3.5992,-3.5992,-3.5968,-3.5917,-3.5898,-3.5894,-3.5896,-3.5897,-3.5897,-3.5875,-3.5834,-3.5807,-3.5795,0.0,-3.5795,-3.6105,-3.6984,-3.7838,-3.8712,-3.9601,-4.0402,0.0,-4.333,-4.3505,0.0,-4.5866,-4.6003,-4.6022,-4.5991,-4.5947,-4.5899,-4.59,-4.5854,-4.5814,-4.5807,-4.5834,-4.5835,-4.5835,-4.5861,-4.5854,-4.5854,-4.5854,-4.5854,-4.5854,-4.5854,-4.5854,-4.5854,-4.5854,-4.5854,-4.5854,-4.5854,-4.5854,-4.5854,-4.5854,-4.5854,-4.5854,0.0,0.0,0.0,0.0,0.0,0.0,-3.041,-3.041,-3.0404,-3.0404,-3.0404,-3.0404,-3.0404,-3.0404,-3.0404,0.0,0.0,0.0,0.0,0.0,0.0,0.0,0.0,0.0,0.0,0.0,0.0,-3.1831,-3.2646,0.0,0.0,0.0,0.0,0.0,0.0,-3.3141,-3.3141,-3.3141,0.0,0.0,0.0,0.0,0.0,0.0,0.0,0.0,0.0,-3.5908,-3.5916,-3.5981,-3.5992,-3.5992,-3.5992,-3.5992,-3.5992,-3.5992,0.0,0.0,-3.5992,-3.5992,-3.5992,-3.5992,-3.5994,-3.5963,-3.5917,0.0,-3.5897,-3.5897,-3.5901,-3.5908,-3.5883,-3.5849,-3.5795,-3.5795,-3.5795,-3.6105,-3.6984,-3.7838,-3.8712,-3.9601,0.0,0.0,-4.333,-4.3505,-4.421,-4.5866,-4.6067,-4.6067,-4.6008,-4.5997,-4.5962,-4.59,-4.5893,-4.586,-4.5807,-4.5929,-4.5986,-4.5986,-4.6039,-4.608,-4.608,-4.608,-4.608,-4.608,-4.608,-4.608,0.0,-4.608,-4.608,-4.608,-4.608,-4.608,-4.608,-4.608,-4.608,-4.6068,0.0,0.0,0.0,0.0,0.0,0.0,-3.0404,-3.0404,-3.0404,-3.0404,-3.0404,-3.0404,-3.0404,-3.0404,-3.0404,-3.0404,0.0,0.0,0.0,0.0,0.0,0.0,0.0,0.0,0.0,0.0,-3.0923,-3.0923,-3.1756,0.0,0.0,0.0,0.0,0.0,0.0,0.0,-3.2891,0.0,0.0,0.0,0.0,0.0,0.0,0.0,0.0,0.0,0.0,0.0,-3.5146,-3.5749,-3.5976,-3.5992,-3.5992,-3.5992,-3.5992,0.0,-3.5992,-3.5992,-3.5992,-3.5992,-3.5992,-3.5992,-3.5992,-3.5995,-3.5966,0.0,-3.5953,-3.5916,-3.5909,-3.5899,-3.5898,-3.5877,-3.5863,-3.5863,-3.5863,0.0,-3.6323,-3.7581,-3.8572,-3.8881,-4.012,0.0,0.0,0.0,-4.4222,-4.5982,-4.6145,-4.6145,-4.6112,-4.6082,-4.6049,-4.6014,-4.6024,-4.6007,-4.5978,-4.602,-4.6052,-4.6052,-4.6098,-4.6092,-4.6102,-4.6092,-4.6089,-4.6098,-4.6098,-4.6098,0.0,-4.6098,-4.6098,-4.6098,-4.6098,-4.6098,-4.6098,-4.6098,-4.6098,-4.6095,0.0,0.0,0.0,0.0,0.0,-3.0323,-3.0398,-3.0404,-3.0404,-3.0404,-3.0404,-3.0404,-3.0404,-3.0404,-3.0404,-3.0404,-3.0404,0.0,0.0,0.0,0.0,0.0,0.0,0.0,0.0,0.0,-3.0404,-3.0404,-3.1,-3.1308,0.0,0.0,0.0,0.0,0.0,0.0,0.0,0.0,0.0,0.0,0.0,0.0,0.0,0.0,0.0,0.0,0.0,0.0,0.0,0.0,0.0,-3.563,-3.5911,0.0,0.0,0.0,-3.5992,-3.5992,-3.5992,-3.5992,-3.5992,-3.5992,-3.5992,-3.5992,-3.5992,0.0,-3.5998,-3.5934,-3.5917,-3.5898,-3.5909,-3.59,-3.5895,0.0,0.0,-3.5907,-3.5897,-3.7404,-3.8475,-3.8432,0.0,-4.1332,0.0,-4.3281,-4.4548,-4.6083,-4.6192,-4.6198,-4.6198,-4.6161,-4.6135,-4.6091,-4.6092,-4.6098,-4.6105,-4.6114,-4.6137,-4.6137,-4.6143,-4.6152,-4.6167,-4.6152,-4.6169,-4.6162,-4.6158,-4.6155,0.0,-4.6155,-4.6155,-4.6155,-4.6155,-4.6155,-4.6155,-4.6155,-4.6155,-4.6153,0.0,0.0,0.0,0.0,0.0,-3.0176,-3.0367,-3.0404,-3.0404,-3.0404,-3.0404,-3.0404,-3.0404,-3.0404,-3.0404,-3.0404,-3.0404,0.0,0.0,0.0,0.0,0.0,0.0,0.0,0.0,0.0,-3.0404,-3.0404,-3.0404,-3.0404,-3.0404,-3.0423,-3.0423,-3.0423,0.0,0.0,0.0,0.0,0.0,0.0,0.0,0.0,0.0,0.0,0.0,0.0,0.0,0.0,0.0,0.0,0.0,0.0,0.0,-3.5992,-3.5992,-3.5992,-3.5992,-3.5992,-3.5992,-3.5992,-3.5992,-3.5992,-3.5992,-3.5992,-3.5992,-3.5992,-3.5992,-3.5992,-3.5952,-3.5898,-3.5898,-3.5891,-3.5895,-3.5895,-3.5895,0.0,-3.5895,-3.7399,-3.8494,0.0,0.0,-4.134,-4.2215,-4.3874,-4.5242,-4.6124,-4.6207,0.0,-4.6191,-4.6258,-4.6248,-4.6093,-4.6108,-4.6097,-4.6105,-4.6177,-4.6195,-4.6195,-4.6269,-4.6306,-4.6302,-4.6306,-4.6307,-4.6307,-4.6308,-4.6308,0.0,-4.6308,-4.6308,-4.6308,-4.6308,-4.6308,-4.6308,-4.6308,-4.6308,-4.6289,0.0,0.0,0.0,0.0,0.0,0.0,-3.0041,-3.0135,-3.0196,-3.0196,-3.0311,-3.0404,-3.0404,-3.0404,-3.0404,-3.0404,-3.0404,0.0,0.0,0.0,0.0,0.0,0.0,0.0,0.0,-3.0404,-3.0404,-3.0404,-3.0404,-3.0404,-3.0404,-3.0404,-3.0373,-3.0342,-3.0379,0.0,0.0,0.0,0.0,0.0,0.0,0.0,0.0,0.0,0.0,0.0,0.0,0.0,0.0,0.0,0.0,0.0,0.0,0.0,0.0,-3.5992,-3.5992,-3.5992,-3.5992,-3.5992,-3.5992,-3.5992,-3.5992,-3.5992,-3.5992,-3.5992,-3.5992,-3.5992,-3.5979,-3.5965,-3.5965,-3.597,-3.5973,-3.5973,-3.5973,0.0,0.0,0.0,0.0,-3.8517,-4.0012,-4.1638,0.0,0.0,-4.4684,-4.6168,-4.6261,-4.6276,-4.6276,-4.6287,-4.6272,-4.6247,-4.6249,-4.623,-4.623,-4.6269,-4.6269,-4.6269,-4.6284,-4.63,-4.6301,-4.63,-4.6302,-4.6307,-4.6307,-4.6308,0.0,-4.6308,-4.6308,-4.6308,-4.6308,-4.6308,-4.6308,-4.6308,-4.6308,-4.6308,0.0,0.0,0.0,0.0,0.0,0.0,-2.9886,-2.9962,-3.0022,-3.0022,-3.0169,-3.0292,-3.0292,-3.0292,-3.0292,-3.0292,-3.0292,0.0,0.0,0.0,0.0,0.0,0.0,0.0,-3.0348,-3.0367,-3.0361,-3.0368,-3.0368,-3.0368,-3.0368,-3.0368,-3.0343,-3.0305,-3.0343,-3.0343,0.0,0.0,0.0,0.0,0.0,0.0,-3.0404,0.0,0.0,0.0,0.0,0.0,0.0,0.0,0.0,0.0,0.0,0.0,0.0,0.0,-3.5992,-3.5992,-3.5992,-3.5992,-3.5992,-3.5992,-3.5992,-3.5992,-3.5992,-3.5992,-3.5992,-3.5992,-3.5992,-3.5992,-3.5992,-3.5992,-3.5992,-3.5992,-3.5992,0.0,0.0,0.0,0.0,-3.9414,0.0,0.0,0.0,-4.3696,-4.4426,-4.6163,-4.63,-4.63,-4.63,-4.63,-4.63,-4.63,-4.6306,-4.629,-4.6293,-4.6297,-4.6299,-4.6299,-4.6295,-4.6294,-4.6295,-4.6294,-4.6297,-4.6303,-4.6305,-4.6307,0.0,-4.6308,-4.6308,-4.6308,-4.6308,-4.6308,-4.6308,-4.6308,-4.6308,-4.6308,0.0,0.0,0.0,0.0,0.0,0.0,0.0,-2.9869,-2.9878,-2.9878,-3.0,-3.0095,-3.0095,-3.0095,-3.0095,-3.0095,-3.0095,0.0,0.0,0.0,0.0,0.0,0.0,0.0,-3.026,-3.0254,-3.026,-3.0279,-3.0279,-3.0279,-3.0292,-3.0292,-3.0305,-3.0286,-3.0312,-3.0292,-3.0292,-3.0311,-3.0304,-3.031,-3.0373,-3.0404,0.0,0.0,0.0,0.0,0.0,0.0,0.0,0.0,0.0,0.0,0.0,0.0,0.0,0.0,0.0,0.0,0.0,-3.5992,-3.5992,-3.5992,-3.5992,-3.5992,-3.5992,-3.5992,0.0,-3.5992,-3.5992,-3.5992,-3.5992,-3.5992,-3.5992,-3.5992,-3.5992,0.0,0.0,-3.7497,0.0,0.0,-4.1109,0.0,-4.353,-4.3705,-4.4426,-4.6163,-4.63,-4.63,-4.63,-4.63,-4.63,-4.63,-4.63,-4.6305,-4.6293,-4.6293,-4.6293,-4.6293,-4.6293,-4.6308,-4.63,-4.6308,-4.6293,0.0,-4.6299,0.0,0.0,-4.6307,-4.6308,-4.6308,-4.6308,-4.6308,-4.6308,-4.6308,-4.6308,-4.6308,0.0,0.0,0.0,0.0,0.0,0.0,0.0,0.0,0.0,0.0,-2.9826,-2.9958,-2.9958,-2.9958,-2.9958,0.0,0.0,0.0,0.0,0.0,0.0,0.0,0.0,0.0,-2.9931,-2.9872,-2.9912,-3.0071,-3.0071,-3.0147,-3.0292,-3.0292,-3.0273,-3.0227,-3.0279,-3.0292,-3.0292,-3.0299,-3.0299,-3.031,-3.0316,-3.0348,0.0,0.0,0.0,0.0,-3.0404,-3.0404,0.0,0.0,0.0,0.0,0.0,0.0,0.0,0.0,-3.5992,-3.5992,-3.5992,0.0,-3.5992,-3.5992,-3.5992,-3.5992,0.0,-3.5992,-3.5992,0.0,-3.5992,0.0,-3.5992,-3.5992,-3.5992,-3.5992,0.0,-3.5992,-3.5992,0.0,0.0,-4.0894,-4.1109,-4.1773,-4.353,-4.3705,-4.4426,-4.6163,-4.63,-4.63,-4.63,-4.63,-4.63,-4.63,-4.63,-4.6302,-4.6303,-4.6303,-4.6303,-4.6303,-4.6303,-4.6303,-4.63,-4.6303,-4.6306,-4.6293,-4.6295,0.0,-4.6303,-4.6303,-4.6305,-4.6307,-4.6307,-4.6308,-4.6308,-4.6308,-4.6308,-4.6308,0.0,0.0,0.0,0.0,0.0,0.0,0.0,0.0,0.0,0.0,-2.9672,-2.9769,-2.9769,-2.9769,-2.9769,0.0,0.0,0.0,0.0,0.0,0.0,0.0,0.0,-2.9856,-2.9769,-2.9773,-2.9859,-2.995,-3.0053,-3.0152,-3.0246,-3.0246,-3.0233,-3.0194,-3.0233,-3.0246,-3.0246,-3.026,-3.0254,-3.0254,-3.0292,0.0,0.0,0.0,0.0,0.0,-3.0342,-3.0348,0.0,-3.0348,-3.0751,-3.1417,0.0,0.0,0.0,0.0,-3.565,-3.5992,-3.5992,-3.5992,-3.5992,-3.5992,-3.5992,-3.5992,-3.5992,-3.5992,-3.5992,0.0,-3.5992,0.0,0.0,-3.5992,-3.5992,0.0,-3.5992,0.0,0.0,0.0,-3.9216,-4.0894,-4.1109,-4.1773,0.0,-4.3705,-4.4426,-4.6163,-4.63,-4.63,-4.63,-4.63,-4.63,-4.63,-4.63,-4.63,-4.63,-4.63,-4.63,-4.63,-4.63,-4.63,-4.63,-4.63,-4.6303,-4.6308,-4.6308,0.0,-4.6299,-4.6299,-4.6301,-4.6305,-4.6306,-4.6307,-4.6308,-4.6308,-4.6308,-4.6308,0.0,0.0,0.0,0.0,0.0,0.0,0.0,0.0,0.0,0.0,0.0,0.0,0.0,0.0,0.0,0.0,0.0,0.0,0.0,0.0,0.0,0.0,-2.9724,-2.9707,-2.9598,-2.9731,-2.9815,-2.9855,-3.0049,-3.0164,-3.0211,-3.0211,-3.0211,-3.0211,-3.0211,-3.0211,-3.0211,-3.0194,-3.0207,-3.0195,-3.0266,0.0,0.0,0.0,0.0,0.0,0.0,0.0,0.0,-3.0304,-3.0384,-3.0651,-3.1521,0.0,0.0,0.0,0.0,0.0,-3.5983,-3.5985,-3.5986,-3.5991,-3.5992,-3.5992,-3.5992,-3.5992,0.0,0.0,0.0,0.0,0.0,-3.5992,0.0,0.0,0.0,0.0,-3.8376,-3.8708,-3.9352,-4.0914,-4.1109,0.0,-4.353,-4.3705,-4.4426,-4.6163,-4.63,-4.63,-4.63,-4.63,-4.63,-4.63,-4.63,-4.63,-4.63,-4.63,-4.63,-4.63,-4.63,-4.63,-4.63,-4.63,-4.63,-4.63,0.0,0.0,-4.6291,-4.6291,-4.6295,-4.6301,-4.6305,-4.6306,-4.6307,-4.6308,-4.6308,-4.6308,0.0,0.0,0.0,0.0,0.0,0.0,0.0,0.0,0.0,0.0,0.0,0.0,0.0,0.0,0.0,0.0,0.0,0.0,0.0,0.0,0.0,-2.9214,-2.9363,-2.9392,-2.9211,-2.9324,-2.9475,-2.9644,-2.9855,-3.0034,-3.0211,-3.0211,-3.0211,-3.0211,-3.0211,-3.0211,-3.0211,-3.0192,-3.0206,-3.0188,-3.0214,0.0,0.0,0.0,0.0,0.0,0.0,0.0,0.0,-3.0298,-3.0392,-3.0646,-3.1536,0.0,0.0,0.0,0.0,0.0,-3.5889,-3.5921,-3.5931,-3.5986,-3.5992,-3.5992,-3.5992,-3.5992,-3.5992,0.0,0.0,0.0,0.0,-3.5992,-3.5992,0.0,0.0,-3.7458,0.0,0.0,-3.9995,-4.0973,0.0,-4.1773,-4.353,-4.3705,-4.4426,-4.6163,-4.63,-4.63,-4.63,-4.63,-4.63,-4.63,-4.63,-4.63,-4.63,-4.63,-4.63,-4.63,-4.63,-4.63,-4.63,-4.63,-4.63,-4.63,0.0,-4.6302,-4.6303,-4.6303,-4.6308,-4.6295,-4.6295,-4.6301,-4.6307,-4.6307,-4.6308,-4.6308,0.0,0.0,0.0,0.0,0.0,0.0,0.0,0.0,0.0,0.0,0.0,0.0,0.0,0.0,0.0,0.0,0.0,0.0,0.0,0.0,-2.9085,-2.9051,-2.9134,-2.9145,-2.9051,-2.9206,-2.9405,-2.9608,-2.9813,-3.0003,-3.0211,-3.0211,-3.0211,-3.0211,-3.0211,-3.0211,-3.0211,-3.0211,-3.0199,-3.0206,0.0,0.0,0.0,0.0,0.0,0.0,0.0,0.0,0.0,0.0,-3.031,-3.045,-3.0863,0.0,0.0,0.0,0.0,0.0,-3.5852,-3.5908,-3.5921,-3.5985,-3.5992,-3.5992,-3.5992,-3.5992,-3.5992,0.0,0.0,0.0,0.0,0.0,-3.5992,-3.5992,0.0,-3.7594,-3.8474,-3.9292,-4.0112,0.0,0.0,-4.1597,-4.2864,-4.3411,-4.4231,-4.55,-4.6027,-4.63,-4.63,-4.63,-4.63,-4.63,-4.63,-4.63,-4.63,-4.63,-4.63,-4.63,-4.63,-4.63,-4.63,-4.63,-4.63,-4.63,0.0,-4.63,-4.63,-4.63,-4.6303,-4.6306,-4.6291,-4.6296,-4.6301,-4.6306,-4.6308,-4.6308,0.0,0.0,0.0,0.0,0.0,0.0,0.0,0.0,0.0,0.0,0.0,0.0,0.0,0.0,0.0,0.0,0.0,0.0,0.0,-2.904,-2.9005,-2.9005,-2.9005,-2.9005,-2.9005,-2.9195,-2.9375,-2.9532,-2.9725,-2.9905,-3.0057,-3.0057,-3.0057,-3.0064,-3.0113,-3.0135,-3.0135,-3.0171,-3.0211,-3.0211,0.0,0.0,0.0,0.0,0.0,0.0,0.0,0.0,0.0,0.0,0.0,0.0,0.0,0.0,0.0,-3.3056,-3.4298,-3.5674,-3.5802,-3.5824,-3.584,-3.5916,-3.5962,-3.5992,-3.5992,-3.5992,-3.5992,-3.5992,0.0,0.0,0.0,-3.5992,0.0,-3.6265,-3.7048,-3.7906,-3.8767,-3.9585,-4.0346,-4.1012,-4.1109,-4.1439,-4.2318,-4.3001,-4.384,-4.4912,-4.5617,-4.6085,-4.628,-4.63,-4.63,-4.63,-4.63,-4.63,-4.63,-4.63,-4.63,-4.63,-4.63,-4.63,-4.63,-4.63,-4.63,-4.63,-4.63,-4.63,-4.63,-4.63,-4.63,-4.6302,-4.6308,-4.6291,-4.6294,-4.6304,-4.6307,-4.6308,0.0,0.0,0.0,0.0,0.0,0.0,0.0,0.0,0.0,0.0,0.0,0.0,0.0,0.0,0.0,0.0,0.0,0.0,0.0,-2.9005,-2.9005,-2.9005,-2.9005,-2.9005,-2.9005,-2.9195,-2.9304,-2.9324,-2.9532,-2.9635,-2.9644,-2.9644,-2.9644,-2.9653,-2.9847,-2.9913,-2.9921,-3.0128,-3.0211,-3.0211,-3.0211,0.0,0.0,0.0,0.0,0.0,0.0,0.0,0.0,0.0,0.0,0.0,0.0,0.0,-3.2904,-3.2917,-3.4141,-3.5522,-3.5602,-3.5614,-3.564,-3.5693,-3.5853,-3.5992,-3.5992,-3.5992,-3.5992,-3.5992,0.0,0.0,0.0,-3.5992,-3.6265,-3.7067,-3.7947,-3.8786,-3.9605,0.0,-4.1031,-4.109,-4.1109,-4.1439,-4.2318,-4.2454,-4.3196,-4.4873,-4.5068,-4.5441,-4.6261,-4.63,-4.63,-4.63,-4.63,-4.63,-4.63,-4.63,-4.63,-4.63,-4.63,-4.63,-4.63,-4.63,-4.63,-4.63,-4.63,-4.63,-4.63,-4.63,-4.63,-4.63,-4.6302,-4.6306,-4.6294,-4.6301,-4.6302,-4.6303,0.0,0.0,0.0,0.0,0.0,0.0,0.0,0.0,0.0,0.0,0.0,0.0,0.0,0.0,0.0,0.0,0.0,0.0,0.0,-2.9005,-2.9005,-2.9005,-2.9005,-2.9005,-2.9005,-2.9078,-2.9163,-2.9304,-2.9504,-2.9608,-2.9608,-2.9608,-2.9608,-2.9608,-2.9681,-2.9707,-2.9725,-2.9921,-3.0011,-3.0026,-3.015,-3.0211,0.0,0.0,0.0,0.0,0.0,0.0,0.0,0.0,-3.0194,-3.0195,-3.0228,-3.1424,-3.2844,-3.2838,-3.4068,-3.5442,-3.5525,-3.5577,-3.5614,-3.5676,-3.5764,-3.5804,-3.5804,-3.5875,-3.5938,-3.5938,-3.5978,0.0,0.0,0.0,-3.6285,-3.7165,-3.8025,-3.8884,-3.9683,-4.0542,-4.1109,-4.1109,-4.1109,-4.1226,-4.1557,-4.2084,-4.2669,-4.3333,-4.3899,-4.4348,-4.466,-4.468,-4.468,-4.468,-4.468,-4.468,-4.468,-4.5226,-4.55,-4.55,-4.6046,-4.63,-4.63,-4.63,-4.63,-4.63,-4.63,-4.63,-4.63,-4.63,-4.63,-4.63,-4.63,-4.6306,-4.6293,-4.6296,-4.6299,-4.6301,0.0,0.0,0.0,0.0,0.0,0.0,0.0,0.0,0.0,0.0,0.0,0.0,0.0,0.0,0.0,0.0,0.0,0.0,-2.9005,-2.9005,-2.9005,-2.9005,-2.9005,-2.9005,-2.9005,-2.9005,-2.9067,-2.9206,-2.9334,-2.9405,-2.9405,-2.9405,-2.9405,-2.9405,-2.9484,-2.9513,-2.9523,-2.9716,-2.9813,-2.9822,-2.9953,-3.0,0.0,0.0,0.0,0.0,0.0,0.0,0.0,0.0,-3.0199,-3.02,-3.0207,-3.1402,-3.2809,-3.2797,-3.4026,-3.5374,-3.5419,-3.5489,-3.5531,-3.5565,0.0,0.0,-3.5611,-3.5721,-3.584,-3.584,-3.5872,-3.5921,-3.5955,0.0,0.0,0.0,-3.8201,-3.8982,-4.0054,-4.0717,-4.1109,-4.1109,-4.1109,-4.1109,-4.1109,-4.1635,-4.2103,-4.2376,-4.2942,-4.3411,-4.3686,-4.3705,-4.3705,-4.3705,-4.3705,-4.3705,-4.3705,-4.4289,-4.4582,-4.4602,-4.5187,-4.5773,-4.63,-4.63,-4.63,-4.63,-4.63,-4.63,-4.63,-4.63,-4.63,-4.63,-4.63,-4.6305,-4.6309,-4.6309,-4.6136,-4.5886,0.0,0.0,0.0,0.0,0.0,0.0,0.0,0.0,-2.8224,-2.8551,-2.8834,0.0,0.0,0.0,0.0,0.0,0.0,0.0,-2.8994,-2.8994,-2.8994,-2.8994,-2.9005,-2.9005,-2.9005,-2.9005,-2.9005,-2.9005,-2.9005,-2.9005,-2.9005,-2.9005,-2.9005,-2.9017,-2.9206,-2.9293,-2.9314,-2.9513,-2.9598,-2.9598,-2.9608,-2.9608,-2.9608,0.0,0.0,0.0,0.0,0.0,0.0,0.0,-3.0204,-3.0192,-3.02,-3.1388,-3.28,-3.279,-3.3985,-3.5308,-3.5308,-3.5357,-3.5379,-3.5315,0.0,0.0,-3.5405,-3.5546,-3.5693,-3.5698,-3.5698,-3.5745,-3.5878,-3.5908,0.0,-3.8292,-3.8591,-3.9196,-4.0854,-4.1108,-4.1108,-4.1108,-4.1108,-4.1108,-4.1108,-4.1108,-4.1459,-4.2316,-4.2394,-4.2767,-4.3627,-4.3686,-4.3686,-4.3686,-4.3686,-4.3686,-4.3686,-4.3686,-4.3686,-4.3686,-4.3705,-4.4602,-4.628,-4.628,-4.628,-4.628,-4.628,-4.628,-4.628,-4.628,-4.628,-4.628,-4.628,-4.628,-4.628,-4.628,-4.5734,-4.4992,0.0,0.0,0.0,0.0,0.0,0.0,0.0,0.0,-2.8399,-2.8268,-2.852,0.0,0.0,0.0,0.0,0.0,0.0,0.0,-2.8688,-2.8718,-2.8718,-2.8718,-2.8893,-2.9005,-2.9005,-2.9005,-2.9005,-2.9005,-2.9005,-2.9005,-2.9005,-2.9005,-2.9005,-2.9005,-2.9067,-2.91,-2.9093,-2.9293,-2.9395,-2.9405,-2.9551,-2.9608,-2.9608,0.0,0.0,0.0,0.0,0.0,0.0,0.0,0.0,0.0,-3.0109,-3.1279,-3.2551,-3.268,-3.3945,-3.5308,-3.5308,-3.5312,0.0,-3.5289,0.0,0.0,0.0,-3.5445,0.0,0.0,-3.5698,-3.5706,-3.5753,-3.6258,0.0,-3.8201,-3.8948,-3.9739,-4.0742,-4.0974,-4.0986,-4.0898,-4.089,-4.089,-4.089,-4.0974,-4.1137,-4.139,-4.1464,-4.1596,-4.1851,-4.187,-4.187,-4.187,-4.187,-4.187,-4.187,-4.2474,-4.2786,-4.2786,-4.3411,-4.3979,-4.4465,-4.4465,-4.4465,-4.4465,-4.4465,-4.4465,-4.4465,-4.4465,-4.4465,-4.4465,-4.4465,-4.4465,-4.4465,-4.4465,-4.4309,-4.4094,0.0,0.0,0.0,0.0,0.0,0.0,0.0,0.0,-2.8179,-2.7968,-2.8215,-2.8321,0.0,0.0,0.0,0.0,0.0,0.0,-2.8386,-2.8404,-2.8456,-2.8589,-2.8755,-2.8893,-2.8994,-2.9005,-2.9005,-2.9005,-2.9005,-2.9005,-2.9005,-2.9005,-2.9005,-2.9005,-2.9005,-2.9005,-2.9017,-2.9127,-2.9174,-2.9185,-2.9304,-2.9355,-2.9355,0.0,0.0,0.0,0.0,0.0,0.0,0.0,0.0,0.0,-2.9897,-3.1084,-3.2422,-3.2542,-3.3859,-3.5261,-3.5261,-3.5273,0.0,-3.5262,-3.527,-3.5304,-3.5304,0.0,0.0,0.0,-3.5614,-3.563,-3.5655,-3.6377,0.0,-3.8145,-3.905,-3.9898,-4.0679,-4.0878,-4.0886,-4.0806,-4.0806,-4.0806,-4.0796,-4.0874,-4.0926,-4.0918,-4.0964,-4.0964,-4.0938,-4.0938,-4.0938,-4.0938,-4.0964,-4.0986,-4.0986,-4.1499,-4.1755,-4.1774,-4.2301,-4.2557,-4.2577,-4.3359,-4.3705,-4.3705,-4.3705,-4.3705,-4.3705,-4.3705,-4.3705,-4.3705,-4.3705,-4.3705,-4.3705,-4.3705,-4.3489,-4.3177,0.0,0.0,-2.7299,-2.7299,0.0,0.0,0.0,0.0,-2.7701,-2.7672,-2.7897,-2.8061,0.0,0.0,0.0,0.0,0.0,0.0,0.0,-2.8061,-2.8197,-2.8551,-2.8601,-2.8755,-2.8994,-2.9005,-2.9005,-2.9005,-2.9005,-2.9005,-2.9005,-2.9005,-2.9005,-2.9005,-2.9005,-2.9005,-2.9005,-2.9005,-2.9005,-2.9005,-2.9005,-2.9005,-2.9005,-2.9005,0.0,0.0,0.0,0.0,0.0,0.0,0.0,0.0,-2.9589,-3.0874,-3.2387,-3.2386,-3.3731,-3.5209,-3.5209,-3.5234,-3.5277,-3.5218,-3.5253,0.0,-3.5304,-3.5346,-3.5405,-3.5486,0.0,-3.5521,-3.5587,-3.6281,-3.7185,-3.8127,-3.8942,-3.9772,-4.064,-4.0762,-4.0776,-4.0765,-4.0761,-4.0766,-4.0765,-4.0771,-4.0762,-4.078,-4.0786,-4.0761,-4.069,-4.071,-4.071,-4.071,-4.0756,-4.0791,-4.0791,-4.0791,-4.0781,-4.0781,-4.0806,-4.0806,-4.0849,-4.2643,-4.3468,-4.3452,-4.3452,-4.3452,-4.3452,-4.3452,-4.3452,-4.3452,-4.3452,-4.3452,-4.3452,-4.3452,-4.2962,-4.2279,0.0,0.0,-2.7299,-2.7299,0.0,0.0,0.0,0.0,0.0,-2.7405,0.0,0.0,0.0,0.0,0.0,0.0,0.0,0.0,0.0,-2.7786,-2.7911,-2.8197,-2.8663,-2.894,-2.9005,-2.9005,-2.9005,-2.9005,-2.9005,-2.9005,-2.9005,-2.9005,-2.9005,-2.9005,-2.9005,-2.9005,-2.9005,-2.9005,-2.9005,-2.9005,-2.9005,-2.9005,-2.9005,-2.9005,-2.9005,0.0,0.0,0.0,0.0,0.0,0.0,0.0,-2.9504,-3.0782,-3.2213,-3.2351,-3.3731,-3.5209,-3.5209,-3.5209,0.0,-3.5209,-3.5209,-3.5245,-3.5285,-3.53,-3.5339,-3.5405,-3.542,-3.5434,-3.5515,-3.6161,-3.6962,-3.7918,-3.8788,-3.9625,-4.0441,-4.0563,-4.0538,-4.0496,-4.0489,-4.0489,-4.0481,-4.053,-4.0559,-4.0552,-4.067,-4.0715,-4.069,-4.071,-4.071,-4.071,-4.0715,-4.0721,-4.0721,-4.0726,-4.0726,0.0,-4.0771,-4.0771,-4.0736,-4.1314,-4.1603,-4.1656,-4.1656,-4.1656,-4.1656,-4.1656,-4.1656,-4.1656,-4.1656,-4.1656,-4.1656,-4.1656,-4.1539,-4.1382,0.0,0.0,0.0,0.0,0.0,0.0,0.0,0.0,0.0,0.0,0.0,0.0,0.0,0.0,0.0,0.0,0.0,0.0,0.0,0.0,-2.755,-2.7855,-2.8255,-2.8563,-2.8761,-2.8576,-2.8533,-2.867,-2.867,-2.8773,-2.9005,-2.9005,-2.9005,-2.9005,-2.9005,-2.9005,-2.9023,-2.9373,-2.955,-2.9574,-2.9496,-2.9496,-2.9483,-2.9099,-2.8929,-2.8912,-2.894,0.0,0.0,0.0,0.0,0.0,0.0,0.0,-3.1975,-3.2047,-3.3392,-3.4879,-3.5018,0.0,0.0,-3.5185,0.0,-3.5209,-3.5234,-3.5277,-3.53,-3.5339,-3.535,-3.5364,-3.5405,-3.6048,-3.6903,-3.7805,-3.8658,-3.9492,-4.0323,-4.0449,-4.043,-4.0351,-4.0379,-4.0398,-4.0362,-4.0406,-4.0442,-4.0407,-4.0465,-4.0501,-4.0499,-4.0499,-4.0499,-4.0499,-4.0501,-4.0509,-4.0509,-4.0549,-4.0556,-4.0556,-4.0596,-4.0617,-4.0609,-4.0806,-4.091,-4.0951,-4.0958,-4.0961,-4.0961,-4.103,-4.1059,-4.1061,-4.1083,-4.1109,-4.1109,-4.1109,-4.1109,-4.1109,0.0,0.0,0.0,0.0,0.0,0.0,0.0,0.0,0.0,0.0,0.0,0.0,0.0,0.0,0.0,0.0,0.0,0.0,0.0,0.0,0.0,-2.755,-2.7768,-2.8069,-2.8383,-2.8083,-2.8006,-2.8232,-2.8232,-2.8446,-2.8905,-2.897,-2.8952,-2.8929,-2.8982,-2.9067,-2.922,-2.9862,-3.0222,-3.0387,-3.0271,-3.0271,-3.0259,-2.9576,-2.929,-2.9241,-2.9272,-2.9174,-2.9028,-2.9071,0.0,0.0,0.0,0.0,-3.1752,-3.1707,-3.3004,-3.4518,-3.4753,0.0,-3.4889,-3.5098,-3.5141,0.0,-3.5201,-3.5234,-3.5277,-3.5277,-3.5289,-3.53,-3.5308,-3.5875,-3.6642,-3.7532,-3.8213,-3.8952,-3.9823,-4.0064,-4.0142,-4.0088,-4.0267,-4.0353,-4.0317,-4.0344,-4.0372,-4.0298,-4.0289,-4.029,-4.031,-4.0301,-4.0301,-4.0301,-4.0309,-4.0289,-4.0289,-4.0363,-4.0381,-4.0381,-4.0381,-4.0408,-4.0468,-4.0642,-4.0749,-4.0791,-4.0796,-4.0806,-4.081,-4.0926,-4.0974,-4.0981,-4.1033,-4.1051,-4.1051,-4.1051,-4.1055,-4.108,0.0,0.0,0.0,0.0,0.0,0.0,0.0,0.0,0.0,0.0,-2.7024,-2.704,0.0,0.0,0.0,0.0,0.0,0.0,-2.6991,0.0,0.0,-2.7409,-2.7739,-2.7926,-2.7982,-2.7926,-2.7926,-2.7936,-2.7936,-2.8129,-2.8502,-2.8773,-2.8815,-2.8651,-2.8893,-2.9355,-2.9966,-3.0118,-3.0564,-3.115,-3.12,-3.1225,-3.1207,-3.1034,-3.096,-3.0947,-3.0914,-3.0432,-2.9831,-2.9843,-2.9387,0.0,0.0,0.0,-3.1626,-3.1626,-3.2901,-3.4345,-3.4434,0.0,-3.4622,0.0,-3.4945,-3.4992,0.0,0.0,-3.5218,0.0,-3.5269,-3.5308,-3.53,-3.535,-3.569,-3.6631,-3.6824,-3.7145,-3.801,-3.875,-3.9182,-3.9173,-3.9842,-4.0301,-4.0291,-4.0301,-4.0301,-4.0291,-4.0291,-4.0291,-4.0301,-4.0301,-4.0301,-4.0301,-4.0291,-4.0291,-4.0291,-4.0301,-4.0301,-4.0301,-4.0301,-4.0327,-4.0332,-4.0347,-4.0487,-4.0721,-4.0766,-4.0801,-4.0801,-4.0815,-4.0829,-4.0829,-4.0842,-4.0846,-4.0846,-4.0846,-4.0914,-4.1006,0.0,0.0,0.0,0.0,0.0,0.0,0.0,0.0,0.0,0.0,0.0,-2.6991,0.0,0.0,0.0,-2.6959,-2.6992,-2.6975,-2.6959,-2.6972,-2.7036,-2.7119,-2.7195,-2.7332,-2.756,-2.7332,-2.7319,-2.7519,-2.7519,-2.7619,-2.7848,-2.829,-2.8596,-2.8767,-2.8893,-2.9344,-3.0069,-3.0563,-3.1234,-3.1965,-3.1947,-3.196,-3.1905,-3.1466,-3.1237,-3.1133,-3.1172,-3.0927,-3.0566,-3.0592,-3.0386,-3.0083,-3.0083,0.0,0.0,0.0,-3.291,-3.3961,-3.4172,-3.433,-3.4467,0.0,-3.4674,-3.4694,-3.4793,-3.4813,-3.4813,-3.4813,-3.4954,-3.5107,-3.5223,-3.5215,-3.5485,-3.6405,-3.6525,-3.6795,-3.7623,-3.8054,-3.8266,-3.8266,-3.861,-3.8839,-3.8839,-3.8839,-3.8839,-3.8839,-3.9298,-3.9565,-3.9565,-4.0034,-4.0301,-4.0301,-4.0301,-4.0301,-4.0301,-4.0301,-4.0301,-4.0301,-4.0301,-4.0301,-4.03,-4.03,-4.0358,-4.0472,-4.0547,-4.0588,-4.0575,-4.0667,-4.069,-4.0701,-4.0762,-4.081,-4.081,-4.081,-4.0837,-4.089,0.0,0.0,0.0,0.0,0.0,0.0,0.0,0.0,0.0,0.0,0.0,0.0,0.0,0.0,0.0,0.0,-2.6875,-2.6892,-2.6859,-2.6758,-2.6742,-2.6842,-2.6742,-2.6841,-2.7147,-2.6857,-2.6825,-2.7069,-2.7069,-2.718,-2.7409,-2.7791,-2.821,-2.8651,-2.8725,-2.9167,-2.9904,-3.0729,-3.1614,-3.2461,-3.2634,-3.2707,-3.2634,-3.2077,-3.1778,-3.1642,-3.1724,-3.157,-3.1306,-3.1365,-3.1234,-3.107,-3.107,-3.1529,0.0,0.0,0.0,-3.3373,0.0,0.0,-3.4237,-3.4341,-3.4375,-3.4386,0.0,0.0,-3.4467,0.0,-3.4653,-3.4841,-3.4981,-3.5124,-3.5411,-3.6061,-3.6175,-3.6385,-3.6986,-3.7254,-3.7406,-3.7406,-3.7578,-3.7693,-3.7693,-3.7693,-3.7693,-3.7693,-3.8304,-3.8667,-3.8667,-3.9298,-3.9642,-3.9642,-3.9642,-3.9747,-3.9957,-4.0186,-4.0301,-4.0301,-4.0301,-4.0301,-4.0301,-4.0301,-4.031,-4.0308,-4.0353,-4.037,-4.0388,-4.05,-4.0547,-4.0561,-4.0686,-4.0713,-4.0718,-4.0724,-4.0745,-4.0771,0.0,0.0,0.0,0.0,0.0,0.0,0.0,0.0,0.0,0.0,0.0,0.0,-2.6725,-2.6725,-2.6708,-2.6708,-2.6708,-2.6708,-2.6708,-2.6691,-2.6691,-2.6708,-2.6691,0.0,-2.6725,-2.6708,-2.6708,-2.6725,-2.6725,-2.6955,-2.7394,-2.7363,-2.756,-2.7968,-2.8224,-2.8734,-2.9492,-3.0358,-3.1341,-3.2392,-3.3213,-3.3532,-3.3532,-3.3411,-3.3382,-3.3368,-3.3314,-3.2777,-3.2144,-3.2144,-3.165,-3.1016,-3.1016,-3.1034,-3.1071,0.0,0.0,0.0,0.0,-3.3591,0.0,-3.3959,-3.4036,-3.408,0.0,0.0,-3.4401,-3.4401,-3.4475,-3.4529,-3.454,-3.4889,-3.5209,-3.5267,-3.5267,-3.5286,-3.5324,-3.6042,-3.6557,-3.6557,-3.7234,-3.7693,-3.7693,-3.7693,-3.7693,-3.7693,-3.7731,-3.7769,-3.7769,-3.7808,-3.7846,-3.7846,-3.7846,-3.8228,-3.9069,-3.9881,-4.0301,-4.0301,-4.0301,-4.0301,-4.0301,-4.0301,-4.0301,-4.0291,-4.0308,-4.0307,-4.0316,-4.0388,-4.0405,-4.0413,-4.0491,-4.0515,-4.0523,-4.0523,-4.0595,-4.0706,0.0,0.0,0.0,0.0,0.0,0.0,0.0,0.0,0.0,0.0,0.0,0.0,0.0,-2.6691,-2.6691,-2.6691,-2.6691,-2.6691,-2.6691,-2.6691,-2.6691,-2.6691,-2.6691,-2.6691,-2.6691,-2.6691,-2.6691,-2.6691,-2.6691,-2.6923,-2.7332,-2.7274,-2.7352,-2.753,-2.7851,-2.8475,-2.939,-3.0277,-3.1157,-3.2057,-3.2925,-3.3096,-3.2829,-3.286,-3.2813,-3.2732,-3.275,-3.2684,0.0,0.0,-3.258,-3.2542,-3.2542,-3.218,-3.1673,-3.1161,-3.1211,-3.1529,0.0,0.0,0.0,-3.2938,-3.3368,-3.3762,-3.3837,-3.3858,-3.3902,-3.3902,-3.4037,-3.4172,-3.4172,-3.4486,-3.4745,-3.4745,-3.4745,-3.4813,-3.4973,-3.5276,-3.5511,-3.5651,-3.5916,-3.6107,-3.6107,-3.6107,-3.6107,-3.6107,0.0,-3.692,-3.692,-3.7426,-3.7693,-3.7693,-3.7693,-3.7846,-3.8151,-3.8476,-3.8916,-3.947,-3.947,-3.9747,-4.0301,-4.0301,-4.0301,-4.0301,-4.0301,-4.0291,-4.03,-4.0326,-4.0344,-4.0334,-4.0415,-4.0458,-4.0502,-4.0507,-4.0523,-4.0559,0.0,0.0,0.0,0.0,0.0,-2.6298,-2.6298,-2.6522,-2.6691,-2.6691,0.0,0.0,0.0,0.0,-2.6436,-2.6298,-2.6539,-2.659,-2.6315,-2.6539,-2.6641,-2.6505,-2.6641,-2.6691,-2.6691,-2.6691,-2.6691,-2.6691,-2.6691,-2.6874,-2.7148,-2.7069,-2.7085,-2.7164,-2.735,-2.7855,-2.867,-2.9771,-3.0609,-3.1288,-3.2402,-3.2651,-3.2368,-3.2418,-3.2368,-3.2317,0.0,0.0,0.0,0.0,0.0,-3.3055,-3.3162,-3.2545,-3.1636,-3.0835,-3.06,-3.0667,-3.098,0.0,0.0,0.0,-3.2534,-3.3134,-3.3134,0.0,-3.3563,-3.3563,-3.3726,-3.3855,-3.3855,-3.4049,-3.426,-3.4401,-3.4423,-3.4497,-3.4674,-3.4694,-3.4754,-3.4907,-3.4925,-3.4972,-3.5089,-3.5098,-3.5124,0.0,0.0,0.0,-3.6061,-3.6566,-3.6852,-3.6852,-3.7139,-3.7292,-3.7292,-3.7559,-3.798,-3.8553,-3.8553,-3.8877,-3.9451,-3.9728,-3.9862,-3.9881,-4.0167,-4.0301,-4.031,-4.03,-4.0299,-4.0308,-4.0353,-4.0388,-4.0441,-4.0449,-4.0491,-4.0492,0.0,0.0,-2.605,-2.605,-2.6367,-2.6657,-2.6657,-2.6657,-2.6674,-2.6674,0.0,0.0,0.0,0.0,0.0,-2.5559,-2.6228,-2.6367,-2.5596,-2.6263,-2.6505,-2.6123,-2.6487,-2.6691,-2.6691,-2.6691,-2.6691,-2.6691,-2.6691,-2.6758,-2.6893,-2.6758,-2.6758,-2.6893,-2.6758,-2.6874,-2.7319,-2.885,-2.9708,-3.0159,-3.1668,-3.2283,-3.2266,-3.2266,-3.2266,0.0,-3.2266,-3.2283,0.0,-3.2283,0.0,-3.2351,-3.2647,-3.1921,-3.0808,-3.0012,-2.9758,-2.9903,0.0,0.0,0.0,0.0,0.0,0.0,-3.2162,0.0,-3.3437,-3.3455,-3.3512,-3.3573,-3.3591,-3.3591,-3.3748,-3.4206,-3.4288,-3.4288,-3.43,-3.43,-3.4323,-3.439,-3.4401,-3.4529,-3.4851,-3.4898,-3.4973,0.0,-3.5174,-3.5174,-3.5201,-3.5201,-3.5209,-3.5209,-3.6023,-3.6462,-3.6462,-3.7234,-3.7636,-3.7655,-3.7655,-3.7674,-3.7731,-3.8572,-3.8973,-3.9049,-3.9881,-4.0282,-4.0301,-4.0301,-4.0301,-4.031,-4.0308,-4.0307,-4.0316,-4.037,-4.046,-4.054,0.0,-2.4719,-2.4799,-2.4799,-2.5121,-2.5408,-2.5408,-2.5652,-2.5835,0.0,0.0,0.0,-2.5835,-2.598,-2.6068,-2.5944,-2.6139,-2.6298,-2.635,-2.6298,-2.6367,-2.6522,-2.6641,-2.6691,-2.6691,-2.6691,-2.6691,-2.6691,-2.6691,-2.6725,-2.6742,-2.6725,-2.6725,-2.6742,-2.6725,-2.7046,-2.7726,-2.8973,-2.9817,-3.0456,-3.1461,-3.1712,-3.1504,-3.1504,-3.1504,0.0,0.0,-3.1657,-3.186,0.0,-3.2074,-3.2212,-3.1734,-3.0967,-3.0123,-2.9311,-2.8705,-2.8372,-2.8792,0.0,0.0,0.0,0.0,0.0,-3.1269,-3.1519,-3.1859,-3.2444,-3.2581,-3.2776,-3.3343,-3.3452,-3.3491,-3.3625,-3.3734,-3.3863,-3.4068,-3.4074,-3.4148,-3.4311,-3.4334,-3.4379,-3.4529,-3.454,0.0,0.0,-3.4685,-3.4774,-3.4963,-3.5115,-3.5209,-3.5209,-3.543,-3.5564,-3.5564,-3.5783,-3.6222,-3.6825,-3.6825,-3.7139,-3.7712,-3.7941,-3.84,-3.9011,-3.926,-3.9709,-4.0301,-4.0301,-4.0301,-4.0301,-4.0301,-4.029,-4.0307,-4.0316,-4.0781,-4.1372,-2.4172,-2.4307,-2.4431,-2.4431,-2.4764,-2.5024,-2.5024,-2.5275,-2.5559,0.0,0.0,0.0,-2.6102,-2.6487,-2.6583,-2.6253,-2.6252,-2.6223,-2.611,-2.5944,-2.5872,-2.5944,-2.6122,-2.621,-2.621,-2.635,-2.6453,-2.6453,-2.6624,-2.6691,-2.6691,-2.6691,-2.6691,-2.6708,-2.7012,-2.7588,-2.8367,-2.9346,-2.9982,-3.0407,-3.1179,-3.137,-3.119,-3.119,-3.119,0.0,0.0,0.0,-3.1487,-3.1487,-3.1749,0.0,0.0,-3.066,-3.0248,-2.9143,-2.8493,-2.8117,0.0,0.0,0.0,-2.8848,0.0,0.0,-3.0639,-3.1052,-3.1549,0.0,-3.2705,-3.2832,-3.3302,-3.314,-3.2904,-3.2904,-3.2668,-3.2794,-3.3634,-3.3753,-3.3802,-3.3943,-3.3968,-3.4031,-3.4213,-3.4225,-3.4284,-3.4401,-3.4412,-3.4478,-3.4643,-3.4793,-3.4898,-3.5,-3.5018,-3.5081,-3.5196,-3.5201,-3.545,-3.5965,-3.5965,-3.6194,-3.6661,-3.7024,-3.7483,-3.799,-3.8706,-3.9489,-4.032,-4.0654,-4.0807,-4.0845,-4.1208,-4.1342,-4.1351,-4.1351,-4.1685,-4.2171,0.0,-2.4287,-2.4522,-2.4522,-2.489,-2.5178,-2.5213,-2.5352,-2.5678,0.0,-2.6443,-2.6582,-2.6887,-2.7274,-2.7232,-2.6536,-2.6519,-2.6281,-2.5604,-2.5632,-2.5503,-2.5092,-2.5407,-2.5584,-2.5503,-2.5854,-2.6068,-2.6104,-2.647,-2.6657,-2.6691,-2.6691,-2.6742,-2.6843,-2.7503,-2.8298,-2.9179,-2.982,-3.014,-3.0294,-3.0937,-3.119,-3.119,0.0,-3.119,-3.119,-3.119,-3.119,-3.119,-3.119,-3.1408,0.0,0.0,0.0,0.0,0.0,-2.8877,0.0,0.0,0.0,0.0,0.0,-2.8265,0.0,-2.9959,-3.0746,-3.1586,-3.2667,-3.2907,-3.2943,-3.3015,-3.247,-3.201,-3.201,-3.1441,-3.1492,-3.294,-3.3212,-3.3296,-3.3335,-3.3422,-3.3619,-3.3908,-3.3947,-3.403,-3.4206,-3.4253,-3.4265,-3.4265,-3.4345,-3.4456,-3.4653,-3.4704,-3.486,-3.5092,-3.5098,-3.5096,-3.5096,-3.5115,-3.5132,-3.5187,-3.5933,-3.6334,-3.6551,-3.802,-3.9165,-4.0072,-4.1084,-4.1552,-4.1724,-4.2507,-4.2794,-4.2794,-4.2794,-4.2862,-4.2919,-2.3982,-2.4067,-2.4114,-2.4114,-2.4643,-2.5096,-2.5182,-2.5595,-2.601,-2.6355,-2.6326,-2.6269,-2.6356,-2.6717,-2.6934,-2.6901,-2.6872,-2.6962,-2.715,-2.6877,-2.6548,-2.6201,-2.6247,-2.6047,-2.5519,-2.5577,-2.5781,-2.6104,-2.6192,-2.6367,-2.6691,-2.6691,-2.7012,-2.7587,-2.7739,-2.8568,-2.9888,-3.004,-3.0446,-3.1004,-3.114,-3.119,-3.119,-3.119,-3.119,-3.119,-3.119,-3.119,-3.119,-3.119,-3.1232,-3.1257,0.0,0.0,0.0,-2.9923,0.0,0.0,0.0,0.0,0.0,0.0,-2.8047,0.0,-2.8135,-2.8382,-2.8732,-2.9599,-2.9791,-2.9986,-3.0606,-3.0787,-3.0825,-3.0825,-3.0936,-3.1111,-3.1419,-3.2035,-3.2448,-3.2462,-3.3042,-3.3466,-3.3591,-3.3605,-3.3629,-3.3734,-3.3941,-3.4055,-3.4055,-3.4218,-3.4345,-3.4379,-3.439,-3.4423,-3.4486,-3.4478,-3.4478,-3.4478,-3.4532,-3.4665,-3.4879,-3.4884,-3.5359,-3.6198,-3.6521,-3.7157,-3.8155,-4.052,-4.1915,-4.2565,-4.2737,-4.2794,-4.2794,-4.2794,-4.3214,-4.3778,-2.4212,-2.4309,-2.4415,-2.4746,-2.5078,-2.5327,-2.5395,-2.5674,-2.6068,-2.6541,-2.6955,-2.7154,-2.7098,-2.7326,-2.7512,-2.7504,-2.7248,-2.7181,-2.7388,-2.6958,-2.6635,-2.6456,-2.6441,-2.6283,-2.5956,-2.6145,-2.6366,-2.6548,-2.6743,-2.6953,-2.7158,-2.7396,-2.7704,-2.8072,-2.8679,-2.9379,-3.0125,-3.0497,-3.0869,-3.119,-3.119,0.0,-3.119,-3.119,-3.119,-3.119,-3.119,-3.119,-3.119,-3.119,-3.119,0.0,-3.119,-3.0954,-3.0545,0.0,-2.9728,-2.9377,0.0,0.0,0.0,-2.8613,0.0,0.0,0.0,-2.8263,-2.8305,-2.9215,-2.9404,-2.9511,-2.9881,-2.9759,-2.9599,-2.9599,-2.9576,-2.9552,-2.9552,-3.0739,-3.16,-3.16,-3.1962,-3.2212,-3.2254,-3.2617,-3.3031,-3.3473,-3.3675,-3.3739,-3.3698,-3.3837,-3.3961,-3.4062,-3.4049,-3.4116,-3.4246,-3.4269,-3.4311,-3.4311,-3.4334,-3.4412,-3.4551,-3.4486,-3.4736,-3.5275,-3.575,-3.6432,-3.737,-3.9578,-4.1024,-4.1949,-4.3467,-4.4055,-4.4055,-4.4055,-4.4303,-4.4647,-2.4694,-2.4784,-2.4963,-2.551,-2.5719,-2.5794,-2.5833,-2.6008,-2.6341,-2.6868,-2.7631,-2.8088,-2.798,-2.8063,-2.8088,-2.802,-2.7601,-2.7352,-2.7352,-2.6957,-2.6673,-2.6557,-2.6557,-2.6518,-2.6402,-2.672,-2.6922,-2.6993,-2.7316,-2.7524,-2.7607,-2.7987,-2.8231,-2.8415,-2.9479,-3.0042,-3.0229,-3.0898,-3.119,-3.119,0.0,-3.119,-3.119,-3.119,-3.119,-3.119,-3.119,-3.119,-3.119,-3.119,-3.119,-3.119,-3.119,-3.1171,0.0,0.0,0.0,0.0,0.0,0.0,0.0,0.0,0.0,-2.8107,0.0,0.0,0.0,0.0,0.0,0.0,0.0,0.0,0.0,0.0,0.0,0.0,0.0,-2.938,0.0,-3.0731,-3.0908,-3.0998,-3.0998,-3.1596,-3.2234,-3.2886,-3.3125,-3.323,-3.3176,-3.3361,-3.3549,-3.3712,-3.3725,-3.3821,-3.4037,-3.4099,-3.4123,-3.4123,-3.4135,-3.4171,-3.42,-3.423,-3.4265,-3.4367,-3.5139,-3.584,-3.6576,-3.8317,-3.9525,-4.0628,-4.3748,-4.4976,-4.5006,-4.521,-4.5307,-4.5307,-2.5457,-2.5495,-2.5501,-2.56,-2.6093,-2.6531,-2.6642,-2.7075,-2.743,-2.7505,-2.772,-2.784,-2.7815,-2.784,-2.789,-2.798,-2.7944,-2.7898,-2.7898,-2.7847,-2.7616,-2.7124,-2.7117,-2.6903,-2.6418,-2.6447,-2.6632,-2.6993,-2.7057,-2.7253,-2.7607,-2.7648,-2.8033,-2.8674,-2.9226,-2.9845,-3.0484,-3.1001,-3.119,0.0,-3.119,-3.119,0.0,-3.119,-3.119,-3.119,-3.119,-3.119,-3.119,0.0,-3.119,-3.119,0.0,-3.1131,-3.0998,-3.0894,0.0,0.0,0.0,0.0,0.0,0.0,-2.9025,0.0,0.0,0.0,-2.763,-2.7749,0.0,0.0,0.0,0.0,0.0,0.0,0.0,0.0,-2.7485,-2.7967,-2.8724,-2.9799,-3.0581,-3.0998,-3.0998,-3.1089,-3.1179,-3.127,-3.194,-3.2339,-3.2343,-3.3027,-3.3422,-3.3437,-3.3452,-3.3448,-3.3491,-3.3506,-3.3506,-3.3506,-3.3559,-3.3689,-3.3841,-3.3743,-3.3829,-3.4043,-3.4229,-3.4328,-3.4587,-3.6496,-3.7803,-3.8924,-4.2427,-4.3802,-4.392,-4.4927,-4.5307,-4.5307,-2.6258,-2.6183,-2.6303,-2.6701,-2.7001,-2.7195,-2.727,-2.7445,-2.76,-2.76,-2.7715,-2.7765,-2.7675,-2.7765,-2.779,-2.7765,0.0,-2.788,0.0,0.0,-2.7908,-2.7668,-2.7652,-2.7555,-2.7328,-2.7328,-2.7455,-2.7705,-2.7705,-2.7821,-2.8072,-2.8354,-2.863,-2.8946,-2.9421,0.0,-3.0118,0.0,-3.0535,0.0,0.0,-3.0975,0.0,-3.119,-3.119,-3.119,-3.119,-3.119,-3.119,0.0,-3.119,0.0,0.0,0.0,0.0,-3.0797,0.0,0.0,0.0,0.0,0.0,0.0,0.0,0.0,-2.9179,0.0,-2.8003,0.0,0.0,0.0,0.0,0.0,0.0,0.0,-2.6872,0.0,0.0,0.0,-2.7935,0.0,0.0,0.0,-3.0255,0.0,0.0,0.0,-3.1324,-3.1723,-3.218,-3.2524,-3.2922,-3.3393,-3.3393,-3.3393,-3.3393,-3.3393,-3.3393,-3.3393,-3.3422,-3.3491,-3.3569,-3.3545,-3.3605,-3.3712,-3.378,-3.382,-3.3907,-3.5238,-3.6001,-3.6634,-3.9782,-4.1958,-4.3479,-4.443,-4.4777,-4.4801,-2.6986,-2.6881,-2.7031,-2.751,-2.76,-2.76,-2.76,-2.76,-2.76,-2.76,-2.7675,-2.77,-2.7625,-2.7675,0.0,0.0,-2.7675,-2.7765,0.0,0.0,-2.7905,-2.793,-2.7955,-2.7955,-2.7995,-2.7995,-2.8054,-2.8137,-2.8137,-2.821,-2.8348,-2.8685,-2.8858,-2.8943,-2.9393,-2.9617,-2.9617,0.0,-2.9989,-3.0309,-3.0309,-3.0514,-3.0838,-3.1112,-3.119,-3.119,-3.119,-3.119,-3.1171,-3.1015,-3.0938,0.0,-3.0638,0.0,-3.0149,0.0,0.0,0.0,-3.007,0.0,0.0,0.0,0.0,0.0,0.0,0.0,0.0,0.0,0.0,0.0,0.0,0.0,0.0,0.0,0.0,-2.6708,0.0,-2.7002,0.0,0.0,0.0,0.0,0.0,0.0,0.0,0.0,0.0,-3.0926,-3.1524,-3.1962,-3.2469,-3.3049,-3.3284,-3.3393,-3.3393,-3.3393,-3.3393,-3.3393,-3.3393,-3.3393,-3.3393,-3.3452,-3.3481,-3.3481,-3.3534,-3.3577,-3.3613,-3.4282,-3.4686,-3.515,-3.765,-4.0128,-4.2445,-4.3629,-4.4209,-4.4443,-2.757,-2.757,-2.757,-2.76,-2.76,-2.76,-2.76,-2.76,-2.76,-2.76,-2.76,-2.76,0.0,0.0,0.0,0.0,0.0,-2.7625,-2.7625,0.0,-2.7675,0.0,0.0,-2.788,-2.7995,-2.7995,-2.7995,-2.802,-2.802,-2.8079,-2.821,-2.8235,-2.8284,-2.8444,-2.892,-2.912,-2.9143,-2.9595,-2.981,-2.9815,-2.9815,-2.9815,-2.9946,0.0,-3.119,-3.119,-3.119,0.0,0.0,-3.0518,-3.033,0.0,0.0,0.0,0.0,0.0,0.0,0.0,0.0,0.0,0.0,-2.9705,0.0,0.0,0.0,0.0,-2.9048,0.0,0.0,0.0,0.0,0.0,0.0,0.0,0.0,0.0,0.0,0.0,0.0,0.0,0.0,0.0,0.0,-2.8445,0.0,0.0,0.0,0.0,-2.9875,-3.1347,-3.2198,-3.2234,-3.2995,-3.3393,-3.3393,-3.3393,-3.3393,-3.3393,-3.3393,-3.3393,-3.3393,-3.3393,-3.3393,-3.3411,-3.3481,-3.3491,-3.3509,-3.3595,-3.4136,-3.5066,-3.6798,-3.8493,-4.0265,-4.2441,-4.3721,-4.4397,-2.76,-2.76,-2.76,-2.76,-2.76,-2.76,-2.76,-2.76,-2.76,0.0,-2.76,0.0,0.0,-2.76,-2.76,0.0,0.0,-2.76,-2.76,-2.76,0.0,0.0,0.0,-2.7675,0.0,-2.774,-2.779,-2.788,-2.788,-2.7955,-2.8079,-2.8079,-2.8079,-2.8152,-2.8389,-2.8494,0.0,0.0,0.0,0.0,0.0,-2.9793,-2.9815,0.0,-3.0284,-3.0284,-3.0284,-3.0284,0.0,-2.9951,-2.9848,-2.9783,-2.939,-2.9073,-2.8904,-2.9065,-2.8919,0.0,0.0,0.0,-2.9159,-2.9303,0.0,0.0,0.0,0.0,0.0,0.0,0.0,0.0,0.0,0.0,0.0,0.0,0.0,0.0,0.0,0.0,0.0,0.0,0.0,0.0,0.0,0.0,0.0,0.0,0.0,0.0,0.0,-3.0328,-3.1107,-3.2162,-3.2451,-3.2868,-3.3393,-3.3393,-3.3393,-3.3393,-3.3393,-3.3393,-3.3393,-3.3393,-3.3393,-3.3393,-3.3422,-3.3437,-3.3437,-3.3509,-3.3712,-3.4142,-3.5823,-3.7525,-3.9337,-4.1717,-4.3106,-4.3841,-2.728,-2.728,-2.7357,-2.756,-2.76,-2.76,-2.76,-2.76,0.0,0.0,-2.76,0.0,-2.76,0.0,-2.76,0.0,-2.76,-2.76,-2.76,-2.76,0.0,-2.76,-2.76,-2.76,0.0,0.0,0.0,0.0,-2.774,-2.779,-2.793,-2.793,-2.798,-2.8079,-2.8162,-2.821,-2.821,-2.8348,-2.8549,0.0,0.0,-2.9273,0.0,0.0,-2.9461,-2.9793,0.0,-2.9793,-2.975,-2.9445,-2.9355,-2.9287,-2.8834,-2.8567,-2.8391,-2.8535,-2.8367,-2.8238,-2.8503,-2.8559,0.0,-2.8772,-2.8818,0.0,-2.8818,0.0,-2.8839,0.0,0.0,0.0,0.0,0.0,0.0,0.0,0.0,0.0,0.0,-2.6202,0.0,0.0,0.0,0.0,0.0,0.0,0.0,0.0,0.0,0.0,0.0,0.0,-3.0233,-3.1549,-3.1992,-3.2596,-3.3393,-3.3393,-3.3393,-3.3393,-3.3393,-3.3393,-3.3393,-3.3393,-3.3393,-3.3393,-3.3393,-3.3393,-3.3393,-3.3452,-3.3481,-3.3655,-3.5314,-3.7012,-3.8789,-4.1027,-4.2544,-4.3513,-2.6736,-2.6747,-2.6945,-2.7484,-2.76,-2.76,0.0,0.0,-2.76,0.0,-2.76,-2.76,-2.76,-2.763,-2.7645,-2.7645,-2.7675,-2.7675,-2.7645,-2.7645,0.0,0.0,-2.76,-2.76,-2.76,0.0,0.0,0.0,0.0,-2.7675,-2.779,-2.779,-2.794,-2.8186,-2.8186,0.0,-2.8186,-2.8323,-2.8323,-2.821,-2.821,-2.8275,-2.8387,-2.8259,-2.8834,-2.9728,-2.9728,-2.9728,-2.9639,-2.9067,-2.8858,-2.8716,-2.8024,-2.779,-2.7765,-2.765,-2.76,-2.76,-2.76,-2.76,-2.771,-2.8158,0.0,0.0,0.0,0.0,-2.8677,0.0,0.0,0.0,0.0,0.0,0.0,0.0,0.0,0.0,0.0,0.0,0.0,0.0,0.0,0.0,0.0,0.0,0.0,0.0,0.0,0.0,0.0,0.0,-2.9601,-3.0469,-3.1553,-3.2528,-3.3393,-3.3393,-3.3393,-3.3393,-3.3393,-3.3393,-3.3393,-3.3393,-3.3393,-3.3393,-3.3393,-3.3393,-3.3393,-3.3393,-3.3455,-3.3695,-3.5272,-3.6971,-3.8727,-4.0469,-4.2127,-4.3515,-2.728,-2.7357,-2.7408,-2.7575,-2.76,-2.76,0.0,0.0,0.0,0.0,-2.76,-2.76,-2.76,-2.8049,-2.8338,-2.8338,-2.8813,0.0,0.0,0.0,0.0,-2.7615,-2.76,-2.76,-2.76,-2.76,-2.76,-2.76,0.0,0.0,-2.765,-2.765,-2.77,-2.775,0.0,-2.789,-2.7915,-2.8137,-2.8299,-2.8348,-2.8235,-2.8275,-2.8411,0.0,-2.8517,-2.8748,-2.8748,-2.8748,-2.8724,-2.8462,-2.8317,-2.8186,-2.789,-2.774,-2.765,-2.7625,-2.76,-2.76,-2.76,-2.76,-2.7625,-2.776,-2.777,-2.777,0.0,0.0,0.0,0.0,0.0,0.0,0.0,0.0,0.0,0.0,0.0,0.0,0.0,0.0,0.0,-2.6202,0.0,0.0,0.0,0.0,0.0,0.0,0.0,0.0,0.0,0.0,0.0,-3.0436,-3.0775,-3.1729,-3.3393,-3.3393,-3.3393,-3.3393,-3.3393,-3.3393,-3.3393,-3.3393,-3.3393,-3.3393,-3.3393,-3.3393,-3.3393,-3.3393,-3.3755,-3.4419,-3.5434,-3.7584,-4.0338,-4.2117,-4.3098,-4.3515,-2.6404,-2.6852,-2.7203,-2.7203,0.0,0.0,-2.76,-2.7854,0.0,-2.8049,-2.8304,0.0,-2.8468,-2.8801,-2.9026,-2.9026,-2.937,0.0,-2.9056,0.0,0.0,-2.8498,-2.8199,-2.8049,-2.8049,-2.775,0.0,-2.76,0.0,0.0,-2.76,-2.76,-2.7625,-2.7675,0.0,-2.779,-2.7815,-2.7965,-2.8177,-2.8372,-2.8128,-2.832,0.0,-2.8604,-2.8788,-2.9113,-2.9113,-2.8939,-2.8774,-2.8915,-2.8936,-2.8799,-2.8369,-2.8202,-2.8051,-2.77,-2.76,-2.76,-2.76,-2.76,-2.76,-2.76,-2.76,-2.76,-2.76,-2.76,-2.76,0.0,-2.7469,-2.7352,0.0,0.0,0.0,0.0,0.0,0.0,0.0,0.0,0.0,0.0,-2.5939,0.0,0.0,0.0,0.0,0.0,0.0,0.0,0.0,0.0,0.0,-2.9992,-3.0218,-3.1135,-3.2894,-3.2928,-3.2928,-3.2928,-3.2928,-3.2928,-3.2928,-3.2928,-3.299,-3.3147,-3.3147,-3.3241,-3.3393,-3.3393,-3.3882,-3.4787,-3.6653,-3.8949,-4.1396,-4.2759,-4.334,-4.3464,-2.5202,-2.6082,-2.687,0.0,0.0,0.0,0.0,-2.8263,0.0,-2.8727,0.0,-2.9606,-2.9606,-2.9681,-2.9726,-2.9726,-2.9789,-2.9804,-2.9726,-2.9726,-2.9696,-2.9606,-2.9026,-2.8727,-2.8727,-2.8079,-2.7735,0.0,0.0,0.0,-2.76,-2.76,-2.765,0.0,0.0,0.0,0.0,-2.779,-2.805,-2.8437,-2.8076,-2.847,-2.9266,-2.905,-2.9388,-3.0008,-3.0073,-2.9742,-2.9383,-2.9848,-2.9982,-2.9849,-2.9154,-2.8921,-2.8774,-2.806,-2.7854,-2.7839,-2.775,-2.7735,-2.7705,-2.7615,-2.76,-2.76,-2.76,-2.76,-2.76,-2.76,-2.76,-2.76,0.0,0.0,0.0,0.0,0.0,0.0,0.0,0.0,0.0,0.0,0.0,0.0,0.0,0.0,0.0,0.0,0.0,0.0,0.0,0.0,0.0,-2.9437,-2.9773,-3.0688,-3.2282,0.0,-3.23,-3.23,-3.23,-3.23,-3.23,-3.23,-3.2452,-3.2731,-3.2731,-3.2941,-3.3274,-3.3427,-3.4108,-3.5385,-3.8482,-4.0581,-4.1978,-4.2777,-4.3124,-4.3212,-2.619,-2.6956,-2.7612,0.0,0.0,-2.8607,-2.9172,-2.8876,-2.8801,-2.9367,-2.9532,-2.9606,-2.9606,-3.0028,-3.0342,-3.0342,-3.0866,0.0,0.0,0.0,0.0,-2.9636,-2.9502,-2.94,-2.94,-2.8757,-2.8412,0.0,0.0,0.0,-2.76,0.0,0.0,0.0,0.0,0.0,-2.779,-2.7675,0.0,-2.889,-2.8696,-2.9115,-2.9852,-2.98,-2.9875,-3.0042,-3.0437,-3.0265,-2.9867,-2.9963,-2.9928,-2.9822,-2.9674,-2.9549,-2.9439,-2.9292,-2.9262,-2.9142,-2.8562,-2.8412,-2.8278,-2.7735,-2.76,-2.76,-2.76,-2.76,-2.76,-2.76,-2.76,-2.76,-2.76,0.0,0.0,0.0,0.0,0.0,0.0,0.0,0.0,0.0,0.0,-2.5629,0.0,0.0,0.0,0.0,0.0,0.0,0.0,0.0,0.0,0.0,-2.9455,0.0,0.0,0.0,-3.23,-3.23,-3.23,-3.23,-3.23,-3.23,-3.2334,-3.2402,-3.2402,-3.2436,-3.2573,-3.351,-3.5344,-3.7812,-4.0329,-4.1488,-4.1832,-4.2648,-4.2613,-4.2286,-2.6134,0.0,0.0,0.0,0.0,0.0,0.0,-2.9789,-2.9699,-3.0013,-3.0372,-3.0731,-3.1076,-3.1375,-3.1689,-3.2033,-3.2362,-3.2258,-3.1584,-3.1554,-3.1255,-3.0627,-3.0253,-3.0058,-3.0058,-2.943,-2.9101,-2.9101,0.0,0.0,0.0,0.0,0.0,-2.7615,0.0,-2.8201,0.0,0.0,0.0,-2.9496,-2.9313,-2.9678,-3.0374,-3.0277,-3.0476,-3.0794,-3.1011,-3.0964,-3.0792,-3.0792,-3.0736,-3.0621,-3.0261,-3.0113,-2.9998,-2.9696,-2.9606,-2.9532,-2.9205,-2.9101,-2.8951,-2.8304,-2.8113,-2.8034,-2.7675,-2.76,-2.76,-2.76,-2.76,-2.76,-2.76,-2.7061,0.0,0.0,0.0,0.0,0.0,0.0,-2.44,0.0,0.0,0.0,0.0,0.0,0.0,0.0,0.0,-2.6365,-2.6485,0.0,0.0,0.0,0.0,0.0,0.0,0.0,0.0,-3.1638,-3.1694,-3.1731,-3.1731,-3.1731,-3.1805,-3.2003,-3.2003,-3.2319,-3.3003,-3.4746,-3.688,-3.9139,-4.0271,-4.1121,-4.1705,-4.1669,-4.1434,-4.1288,-2.604,-2.6545,0.0,0.0,-2.8612,-2.9044,-3.0508,-3.0712,-3.0769,-3.0898,-3.1376,-3.1959,-3.2647,-3.2721,-3.2931,-3.344,-3.3499,-3.3275,-3.2766,-3.2721,-3.2497,-3.1944,-3.1271,-3.0926,-3.0926,-3.0178,-2.9774,0.0,0.0,0.0,0.0,0.0,0.0,0.0,0.0,0.0,0.0,0.0,-2.979,-3.0098,-2.9883,-3.0218,-3.0859,-3.076,-3.1032,-3.1511,-3.1511,-3.1511,-3.1511,-3.1511,-3.1511,-3.1406,-3.0896,-3.0717,-3.0627,-3.0133,-2.9998,-2.9968,-2.9846,-2.9774,-2.9624,-2.8966,-2.8801,-2.8637,-2.7974,-2.7809,-2.7764,-2.763,-2.76,-2.76,-2.76,-2.7165,0.0,0.0,0.0,0.0,0.0,0.0,0.0,0.0,0.0,0.0,-2.4739,0.0,0.0,0.0,0.0,-2.6225,-2.6415,-2.645,-2.719,0.0,0.0,-2.946,-3.0958,0.0,-3.0975,-3.0975,-3.1092,-3.1151,-3.1151,-3.1151,-3.1312,-3.16,-3.1773,-3.2651,-3.4171,-3.6142,-3.8033,-3.9669,-3.9706,-4.0313,-4.112,-4.049,-4.0184,-4.0221,0.0,0.0,0.0,0.0,0.0,-2.9173,-3.1105,-3.1416,-3.1613,-3.2229,-3.2377,-3.2677,-3.3335,-3.341,-3.3425,-3.3484,-3.3499,-3.3469,-3.341,-3.341,-3.338,-3.332,-3.2677,-3.2317,-3.2317,-3.1076,-3.0417,0.0,0.0,-2.919,0.0,0.0,0.0,0.0,0.0,0.0,0.0,-2.9577,-2.9936,-3.0445,-3.0417,-3.0836,-3.1406,-3.1406,-3.1451,-3.1511,-3.1511,-3.1511,-3.1511,-3.1511,-3.1511,-3.1496,-3.1436,-3.1406,-3.1406,-3.1346,-3.1316,-3.1182,-3.0582,-3.0417,-3.0268,-2.9666,-2.9517,-2.9337,-2.8652,-2.8502,-2.8323,-2.772,-2.76,-2.76,-2.76,-2.754,-2.7315,0.0,0.0,0.0,0.0,0.0,-2.4679,-2.5161,0.0,0.0,-2.4343,-2.502,0.0,0.0,-2.5121,-2.5758,-2.6203,-2.6238,-2.6939,-2.8515,0.0,-2.9287,-3.0895,-3.0912,-3.0912,-3.0912,-3.0932,-3.0972,-3.1015,-3.1015,-3.1095,-3.1283,-3.1964,-3.3669,-3.6105,-3.7041,-3.815,-3.9244,-3.9321,-3.9415,-3.9526,-3.9438,-3.9181,-3.8883,0.0,0.0,0.0,0.0,0.0,0.0,0.0,-3.2421,-3.294,-3.3603,-3.335,-3.335,-3.4039,-3.4114,-3.4247,-3.4666,-3.4696,-3.4532,-3.4144,-3.3691,-3.345,-3.3514,-3.2831,-3.2436,-3.2436,-3.1946,-3.1309,0.0,0.0,0.0,0.0,0.0,0.0,0.0,0.0,-2.9911,-2.9589,-3.0398,-3.0654,-3.0529,-3.0934,-3.1256,-3.1511,-3.1511,-3.175,-3.2093,-3.2093,-3.2348,-3.2587,-3.1766,-3.1516,-3.1511,-3.1511,-3.1511,-3.1511,-3.1511,-3.1511,-3.1451,-3.1167,-3.1092,-3.0943,-3.0298,-3.0133,-2.9968,-2.9325,-2.8891,-2.8517,-2.8248,-2.7884,-2.76,-2.76,-2.76,-2.751,0.0,0.0,0.0,0.0,0.0,0.0,-2.4919,0.0,-2.4429,0.0,-2.4338,0.0,0.0,0.0,-2.5901,-2.5899,-2.6548,-2.7443,-2.8588,0.0,-2.9696,-3.0773,-3.0773,-3.0773,-3.0773,-3.0871,-3.0952,-3.1012,-3.147,-3.1968,-3.2594,-3.3778,-3.4902,-3.5939,-3.6751,-3.7777,-3.8782,-3.833,-3.8325,-3.852,-3.8046,-3.7756,-3.7649,-2.8053,0.0,-2.8527,0.0,-3.0105,-3.0576,-3.1867,-3.249,-3.3141,-3.3994,-3.3718,-3.3775,-3.4694,-3.4771,-3.4981,-3.5459,-3.5504,-3.5295,-3.4848,-3.4097,-3.3682,-3.3739,-3.2832,0.0,-3.2342,-3.2201,-3.1678,-3.0676,-3.023,0.0,0.0,0.0,0.0,0.0,-3.0029,-3.0032,-2.9833,-3.0776,-3.1021,-3.0769,-3.1257,-3.1453,-3.1453,-3.1453,-3.1732,-3.2189,-3.2388,-3.2653,-3.2729,-3.2011,-3.1622,-3.141,-3.125,-3.1351,-3.1511,-3.1511,-3.1511,-3.1511,-3.1511,-3.1511,-3.1391,-3.0898,-3.0806,-3.0642,-2.9998,-2.949,-2.9056,-2.8682,-2.8079,-2.76,-2.76,-2.76,-2.76,-2.76,0.0,0.0,0.0,-2.6318,0.0,-2.4963,-2.4724,-2.4544,-2.4402,-2.4197,0.0,0.0,0.0,-2.629,-2.5972,-2.6745,-2.7696,0.0,0.0,0.0,-3.0634,-3.0651,-3.0651,-3.0651,-3.0733,-3.0951,-3.1308,-3.213,-3.3052,-3.4095,-3.5143,-3.5718,-3.6011,-3.6575,-3.7291,-3.8007,-3.7173,-3.706,-3.7287,-3.6727,-3.66,-3.6761,-2.9166,-2.9284,-2.9297,-2.9297,-2.9297,-2.9764,-3.1026,-3.1227,-3.1713,-3.3059,-3.3199,-3.3802,-3.5311,-3.5489,-3.5489,-3.5504,-3.5504,-3.5504,-3.5489,-3.4743,-3.4298,0.0,0.0,-3.2184,-3.2184,-3.1629,-3.1307,-3.1273,0.0,0.0,-3.0271,0.0,-2.9428,-2.949,-2.9521,-2.9855,-3.0381,-3.0427,-3.0746,-3.1293,-3.1307,-3.1293,-3.1293,-3.1293,-3.1307,-3.1406,-3.2152,-3.1958,-3.1453,-3.2152,-3.1911,-3.1213,-3.0672,-3.097,-3.1511,-3.1511,-3.1511,-3.1511,-3.1511,-3.1511,-3.1511,-3.1496,-3.1496,-3.1316,-3.0657,-3.0492,-3.0118,-2.8861,-2.8079,-2.76,-2.76,-2.76,-2.76,-2.76,0.0,0.0,0.0,0.0,0.0,-2.5674,-2.4993,-2.4605,-2.459,-2.4998,0.0,0.0,0.0,0.0,0.0,0.0,0.0,-2.933,-2.9417,0.0,-3.0489,-3.0506,-3.0506,-3.0506,-3.0489,-3.1033,-3.2014,-3.2963,-3.418,-3.5566,-3.5583,-3.6062,-3.6795,-3.6795,-3.6812,-3.6745,-3.5943,-3.5639,-3.5622,-3.5622,-3.5915,-3.6322,-2.9284,-2.931,-2.9405,-2.9797,-3.0254,-3.089,-3.1671,-3.2217,-3.2723,-3.3129,-3.3178,-3.3402,-3.3899,-3.3934,-3.3934,0.0,-3.4375,-3.4677,0.0,-3.3973,-3.3754,-3.4279,-3.2912,-3.2124,-3.2124,-3.1986,-3.144,-3.0468,0.0,0.0,0.0,-3.0097,-3.0287,-3.0732,-3.0732,-3.0582,-3.0356,-3.0809,-3.0854,-3.0644,-3.1135,-3.1287,-3.1287,-3.1287,-3.1553,-3.1937,-3.2187,-3.2422,-3.2498,-3.1805,-3.1734,-3.173,-3.0701,-3.0811,-3.1357,-3.1357,-3.1387,-3.1421,-3.1421,-3.1457,-3.1511,-3.1511,-3.1511,-3.1451,-3.1227,-3.0823,-3.0148,-2.8861,-2.8427,-2.8128,-2.769,-2.76,-2.76,-2.76,-2.76,0.0,-2.76,0.0,-2.7046,-2.6363,-2.6093,-2.5794,-2.5322,-2.5424,0.0,0.0,0.0,0.0,0.0,0.0,0.0,0.0,-2.9733,0.0,-3.0506,-3.0506,-3.0506,-3.0506,-3.1002,-3.1983,-3.3412,-3.4387,-3.5105,-3.5577,-3.6174,-3.6248,-3.5994,-3.5994,-3.5994,-3.596,-3.5701,-3.56,-3.56,-3.56,-3.5694,-3.5871,-2.9876,-2.9951,-3.0032,-3.0385,-3.0828,-3.1248,-3.1609,-3.2064,-3.2376,-3.2376,-3.2376,-3.2376,-3.2376,-3.2376,0.0,-3.3143,-3.363,-3.3905,-3.3905,-3.3213,-3.3003,-3.3443,-3.234,-3.1713,-3.1713,-3.1734,0.0,-3.0451,-3.0506,-3.0463,-3.0214,-3.0214,-3.0325,-3.0528,-3.0528,-3.0425,-3.0249,-3.0676,-3.0729,-3.0606,-3.1002,-3.1198,-3.1198,-3.1198,-3.143,-3.1793,-3.2061,-3.226,-3.2285,-3.1724,-3.1638,-3.1632,-3.0819,-3.084,-3.1206,-3.1294,-3.1334,-3.1406,-3.1705,-3.1626,-3.1516,-3.1811,-3.169,-3.1511,-3.1511,-3.0972,-3.0268,-2.9475,-2.8936,-2.8472,-2.8064,-2.7764,-2.76,-2.76,-2.76,-2.76,-2.76,0.0,-2.7345,0.0,0.0,0.0,0.0,-2.5974,-2.6078,0.0,0.0,0.0,0.0,0.0,0.0,-2.9092,-2.9847,0.0,-3.0506,-3.0506,-3.0638,-3.0936,-3.1973,-3.3173,-3.4445,-3.5113,-3.5597,-3.5935,-3.619,-3.6033,-3.56,-3.56,-3.56,-3.56,-3.56,-3.56,-3.56,-3.56,-3.5785,-3.609,-3.0882,-3.0986,-3.0986,0.0,-3.0986,-3.0986,-3.0986,-3.0986,-3.0986,-3.0986,-3.1013,-3.1052,-3.1052,-3.1078,-3.1662,-3.3036,0.0,0.0,0.0,-3.247,-3.211,-3.211,-3.1394,-3.0986,-3.0986,-3.0986,-3.0986,-3.0986,-3.0986,-3.0712,-3.0153,-3.0153,-2.9915,-2.9428,-2.9428,-2.9693,-3.0153,-3.0153,-3.0503,-3.0986,-3.0986,-3.0986,-3.0986,-3.0986,-3.0986,-3.1086,-3.1773,-3.1566,-3.1086,-3.1773,-3.1566,-3.0986,-3.0986,-3.0986,-3.1061,-3.1206,-3.1285,-3.1457,-3.2127,-3.1844,-3.1571,-3.2317,-3.2034,-3.157,-3.1511,-3.1017,-3.0567,-3.0507,-2.9564,-2.8697,-2.8622,-2.8094,-2.7645,-2.76,-2.76,-2.76,-2.76,-2.76,-2.736,0.0,0.0,0.0,-2.6662,-2.6662,-2.6941,0.0,0.0,0.0,0.0,0.0,-2.8061,-2.9645,-2.9728,-2.9979,-3.045,-3.0471,-3.0868,-3.172,-3.3256,-3.4372,-3.5088,-3.5222,-3.5729,-3.6468,-3.5778,-3.552,-3.56,-3.56,-3.56,-3.56,-3.56,-3.5633,-3.5667,-3.5667,-3.6197,-3.688,0.0,0.0,-3.0986,-3.0986,-3.0986,-3.0986,-3.0986,-3.0986,-3.0986,-3.0986,-3.1365,-3.1602,-3.1602,-3.2019,-3.2436,-3.2797,-3.2543,-3.2362,-3.2362,-3.2182,-3.211,-3.211,-3.1394,-3.0986,-3.0986,-3.0986,-3.0986,-3.0986,-3.0986,-3.0921,-3.079,-3.079,-3.0712,-3.0581,-3.0581,-3.066,-3.079,-3.079,-3.0869,-3.0986,-3.0986,-3.0986,-3.0986,-3.0986,-3.0986,-3.1024,-3.1185,-3.1161,-3.1024,-3.1185,-3.1161,-3.0986,-3.0986,-3.0986,-3.1009,-3.104,-3.1119,-3.1198,-3.1357,-3.1358,-3.1488,-3.2237,-3.2328,-3.2123,-3.1615,-3.1376,-3.1122,-3.0612,-3.0268,-2.9759,-2.8786,-2.8472,-2.8188,-2.7675,-2.76,-2.76,-2.76,-2.76,-2.754,0.0,-2.736,-2.736,-2.736,-2.736,-2.742,0.0,0.0,0.0,0.0,-2.756,-2.7899,-2.8622,-2.9058,-2.9542,-3.0105,-3.0121,-3.0987,-3.268,-3.3462,-3.4217,-3.4947,-3.5105,-3.5258,-3.5432,-3.5375,-3.5406,-3.552,-3.552,-3.5549,-3.56,-3.56,-3.5994,-3.6502,-3.6502,-3.6975,-3.7635,-3.0986,-3.0986,-3.0986,-3.0986,-3.0986,-3.0986,-3.0986,-3.1209,-3.1378,-3.1378,-3.1875,-3.2228,-3.2228,-3.2502,-3.2685,-3.2685,-3.2523,-3.2366,-3.2366,-3.2366,-3.2366,-3.2366,-3.1974,-3.164,-3.1378,-3.1378,-3.1248,-3.0986,-3.0986,-3.0986,-3.0986,-3.0986,-3.0986,-3.0986,-3.0986,-3.0986,-3.0986,-3.0986,-3.0986,-3.0986,-3.0986,-3.0986,-3.0986,-3.0986,-3.0986,-3.0986,-3.0986,-3.0986,-3.0986,-3.0986,-3.0986,-3.0986,-3.0986,-3.0986,-3.0986,-3.0986,-3.1035,-3.1122,-3.1469,-3.1375,-3.1334,-3.1768,-3.1961,-3.1838,-3.1152,-3.1027,-3.0852,-3.0177,-3.0031,-2.982,-2.9142,-2.9047,-2.8831,-2.8184,-2.8064,-2.7959,-2.7645,-2.76,-2.76,-2.76,-2.76,-2.76,-2.76,-2.76,-2.76,-2.76,-2.76,0.0,-2.8049,-2.8064,-2.8263,-2.8732,-2.9024,-2.9593,-3.0446,-3.0795,-3.1496,-3.2606,-3.3233,-3.3738,-3.4127,-3.448,-3.4667,-3.4723,-3.5065,-3.5291,-3.544,-3.5769,-3.5957,-3.6089,-3.6426,-3.6861,-3.7297,-3.7297,-3.777,-3.8396,-3.0986,-3.0986,-3.0986,-3.0986,-3.1052,-3.1117,-3.1117,-3.1601,-3.1941,-3.1941,-3.2463,-3.2829,-3.2829,-3.2894,-3.2947,-3.2947,-3.2947,-3.2881,-3.2698,-3.2685,-3.2685,-3.2685,-3.2685,-3.2463,-3.1941,-3.1941,-3.1693,-3.1248,-3.1248,-3.1248,-3.1248,-3.1248,-3.1248,-3.1235,-3.1156,-3.1117,-3.1104,-3.1013,-3.0986,-3.0986,-3.0986,-3.0986,-3.0986,-3.0986,-3.0986,-3.0986,-3.0986,-3.0986,-3.0986,-3.0986,-3.0986,-3.0986,-3.0986,-3.0986,-3.0986,-3.0986,-3.0986,-3.1123,-3.1773,-3.1613,-3.1249,-3.1279,-3.1413,-3.1323,-3.058,-3.0429,-3.0293,-2.9656,-2.9492,-2.9477,-2.9376,-2.9486,-2.9369,-2.8714,-2.8689,-2.8502,-2.7854,0.0,-2.7705,-2.76,-2.76,-2.7645,-2.775,-2.775,-2.7794,-2.7884,-2.7899,-2.8154,-2.8712,-2.8742,-2.8981,-2.948,-2.9388,-2.9853,-3.0894,-3.1736,-3.2149,-3.2139,-3.2861,-3.3182,-3.3224,-3.3723,-3.3993,-3.4086,-3.4717,-3.5048,-3.5234,-3.6054,-3.6451,-3.6669,-3.742,-3.7853,-3.8027,-3.8051,-3.8531,-3.9157,-3.0986,-3.0986,-3.0986,-3.0986,-3.1378,-3.1667,-3.1667,-3.2189,-3.2555,-3.2555,-3.3091,-3.3443,-3.3443,-3.3862,-3.4136,-3.4136,-3.4136,-3.3731,-3.2751,-3.2685,-3.2685,-3.2685,-3.2685,-3.2659,-3.2555,-3.2555,-3.2515,-3.2437,-3.2437,-3.2437,-3.2437,-3.2437,-3.2437,-3.2398,-3.1876,-3.1667,-3.1641,-3.1196,-3.0986,-3.0986,-3.0986,-3.0986,-3.0986,-3.0986,-3.0986,-3.0986,-3.0986,-3.0986,-3.0986,-3.0986,-3.0986,-3.0986,-3.0986,-3.0986,-3.0986,-3.0986,-3.0986,-3.1011,-3.1123,-3.1536,-3.1802,-3.1276,-3.1598,-3.1771,-3.0648,-3.0403,-3.0228,-2.9617,-2.9496,-2.9332,-2.875,-2.9129,-2.9304,-2.8706,-2.9074,-2.9217,-2.8532,0.0,-2.8218,-2.766,-2.76,-2.7824,-2.8382,-2.8442,-2.8667,-2.9262,-2.9292,-2.9352,-2.9457,-2.943,-2.9723,-3.0288,-2.982,-2.9877,-3.0576,-3.1765,-3.2365,-3.2365,-3.2939,-3.3182,-3.3182,-3.3303,-3.3355,-3.3371,-3.4043,-3.442,-3.4627,-3.5825,-3.6378,-3.66,-3.7385,-3.8083,-3.8663,-3.8787,-3.9317,-3.9943,-3.0986,-3.1235,-3.1444,-3.1444,-3.1914,-3.2293,-3.2293,-3.2803,-3.3169,-3.3169,-3.3679,-3.4018,-3.4018,-3.4241,-3.4397,-3.4397,-3.4397,-3.4175,-3.3639,-3.3613,-3.3613,-3.3613,-3.3613,-3.347,-3.3182,-3.2855,-3.2685,-3.2685,-3.2685,-3.2685,-3.2685,-3.2685,-3.2685,-3.2685,-3.2411,-3.2293,-3.228,-3.2019,-3.1901,-3.1901,-3.1901,-3.1901,-3.1875,-3.1561,-3.1444,-3.1405,-3.1091,-3.0986,-3.0986,-3.0986,-3.0986,-3.0986,-3.0986,-3.0986,-3.0986,-3.0986,-3.0986,-3.0986,-3.0986,-3.1259,-3.1439,-3.1136,-3.1343,-3.137,-3.0458,-3.0297,-3.0088,-2.9097,-2.919,-2.9256,-2.8632,-2.9035,-2.9413,-2.9117,-2.9345,0.0,0.0,-2.9131,-2.9011,-2.8723,-2.8678,-2.8813,-2.9101,-2.9131,-2.9277,-2.9592,-2.9606,-2.9729,-3.0058,-3.0073,-3.0372,-3.1017,-3.0776,-3.0776,-3.1032,-3.1617,-3.191,-3.191,-3.216,-3.2468,-3.2821,-3.3156,-3.3481,-3.3824,-3.4446,-3.477,-3.4901,-3.5876,-3.6385,-3.662,-3.7715,-3.8368,-3.8797,-3.9286,-3.9699,-4.0011,-3.1156,-3.1497,-3.1836,-3.1967,-3.2515,-3.2894,-3.2894,-3.3404,-3.3783,-3.3783,-3.4136,-3.4397,-3.4397,-3.4397,-3.4397,-3.4397,-3.4397,-3.4397,-3.4397,-3.4397,-3.4397,-3.4397,-3.4397,-3.4201,-3.3783,-3.3326,-3.3091,-3.3091,-3.3091,-3.3091,-3.3091,-3.3091,-3.3091,-3.3091,-3.296,-3.2894,-3.2894,-3.2751,-3.2685,-3.2685,-3.2685,-3.2685,-3.2646,-3.2176,-3.2006,-3.1941,-3.1535,-3.13,-3.1182,-3.1182,-3.1091,-3.0986,-3.0986,-3.0986,-3.0986,-3.0986,-3.0986,-3.0986,-3.0986,-3.0986,-3.0986,-3.0986,-3.1026,-3.0895,-3.0259,-3.0166,-2.9955,-2.8838,-2.891,-2.9026,-2.855,-2.8903,-2.9271,-2.9263,0.0,0.0,0.0,-2.957,-2.9565,-2.9594,-2.9606,-2.9666,-2.9816,-2.9804,-2.9864,-3.0028,-3.0043,-3.0238,-3.0717,-3.0746,-3.0957,-3.1481,-3.1511,-3.1511,-3.1511,-3.1511,-3.1585,-3.1735,-3.1735,-3.2079,-3.2751,-3.3225,-3.3673,-3.4147,-3.4787,-3.5038,-3.5085,-3.5962,-3.6463,-3.6842,-3.804,-3.8668,-3.8968,-3.9609,-3.9875,-3.9926,-3.1602,-3.1771,-3.1967,-3.2542,-3.3117,-3.3522,-3.3522,-3.3979,-3.4332,-3.4332,-3.4371,-3.4397,-3.4397,-3.4397,-3.4397,-3.4397,-3.4397,-3.4397,-3.4397,-3.4397,-3.4397,-3.4397,-3.4397,-3.4384,-3.4332,-3.4293,-3.4267,-3.4267,-3.4267,-3.4267,-3.4267,-3.4267,-3.4267,-3.4254,-3.3757,-3.3522,-3.3496,-3.2934,-3.2685,-3.2685,-3.2685,-3.2685,-3.2685,-3.2646,-3.262,-3.262,-3.2581,-3.2228,-3.1745,-3.1745,-3.1418,-3.0986,-3.0986,-3.0986,-3.0986,-3.0986,-3.0986,-3.0986,-3.0986,-3.0986,-3.0986,-3.0986,-3.0985,-3.0852,-3.0255,-3.0098,-2.9951,-2.9362,-2.8834,-2.8462,-2.8423,-2.8498,-2.8551,-2.8575,0.0,0.0,-2.9508,-2.9508,-2.9534,-2.9585,-2.9606,-2.9804,-3.0372,-3.0432,-3.0702,-3.1316,-3.1361,-3.1376,-3.1421,-3.1436,-3.1451,-3.1511,-3.1511,-3.1511,-3.1511,-3.1511,-3.1809,-3.2437,-3.2437,-3.2781,-3.3425,-3.3486,-3.3531,-3.3591,-3.4252,-3.4554,-3.4662,-3.5891,-3.6767,-3.7408,-3.8206,-3.8882,-3.9458,-3.9651,-3.9781,-3.9901,-3.1809,-3.2235,-3.2544,-3.2804,-3.3294,-3.371,-3.389,-3.3933,-3.4021,-3.4189,-3.4202,-3.4147,-3.3966,-3.423,-3.4356,-3.4243,-3.4314,-3.4356,-3.4243,-3.4314,-3.4397,-3.4397,-3.4397,-3.4397,-3.4397,-3.4397,-3.4397,-3.4397,-3.4397,-3.4397,-3.4397,-3.4397,-3.4397,-3.4384,-3.4188,-3.4097,-3.4071,-3.3849,-3.3744,-3.3744,-3.3744,-3.3744,-3.3718,-3.3378,-3.3247,-3.3208,-3.2829,-3.2555,-3.2372,-3.2372,-3.2228,-3.198,-3.1627,-3.1522,-3.1444,-3.1091,-3.0986,-3.0986,-3.0986,-3.0986,-3.0986,-3.0986,-3.0986,-3.0934,-3.0712,-3.066,-3.0503,-2.9928,-2.9627,-2.9353,-2.9,-2.8678,-2.8572,-2.899,0.0,-2.9042,-2.944,-2.9849,-3.0133,-3.0177,-3.0521,-3.0881,-3.1092,-3.1122,-3.1227,-3.1481,-3.1511,-3.1511,-3.1511,-3.1884,-3.2303,-3.2736,-3.2751,-3.2557,-3.2108,-3.2512,-3.2871,-3.3125,-3.3125,-3.3469,-3.4098,-3.4098,-3.4337,-3.4756,-3.5011,-3.5115,-3.5162,-3.5627,-3.6196,-3.6845,-3.7531,-3.821,-3.8827,-3.9388,-3.9616,-3.9668,-3.216,-3.2608,-3.2941,-3.3107,-3.3469,-3.3755,-3.3949,-3.381,-3.3768,-3.3937,-3.3979,-3.3894,-3.3713,-3.3966,-3.4105,-3.3992,-3.4105,-3.4105,-3.3992,-3.4105,-3.4272,-3.4397,-3.4397,-3.4397,-3.4397,-3.4397,-3.4397,-3.4397,-3.4397,-3.4397,-3.4397,-3.4397,-3.4397,-3.4397,-3.4397,-3.4397,-3.4397,-3.4397,-3.4397,-3.4397,-3.4397,-3.4397,-3.4358,-3.3979,-3.3849,-3.3796,-3.3378,-3.3117,-3.2973,-3.2973,-3.2842,-3.262,-3.2228,-3.2071,-3.1954,-3.1418,-3.1248,-3.1209,-3.1039,-3.0986,-3.0986,-3.0986,-3.0986,-3.0986,-3.0986,-3.0986,-3.0869,-3.049,-3.0218,-2.9983,-2.9627,-2.9065,-2.882,-2.9287,-2.902,-2.8917,-2.9398,-3.0032,-3.0469,-3.0509,-3.1087,-3.1511,-3.1511,-3.169,-3.1809,-3.1809,-3.2004,-3.2123,-3.2123,-3.2572,-3.3021,-3.3484,-3.3694,-3.3589,-3.314,-3.338,-3.3604,-3.3799,-3.4023,-3.4472,-3.5147,-3.531,-3.5654,-3.6103,-3.6103,-3.6103,-3.6088,-3.5893,-3.6163,-3.6754,-3.6984,-3.7589,-3.8379,-3.8925,-3.9282,-3.9528,-3.2774,-3.289,-3.3056,-3.3581,-3.3713,-3.3713,-3.3713,-3.3713,-3.3713,-3.3713,-3.3713,-3.3713,-3.3713,-3.3713,-3.3713,-3.3713,-3.3713,-3.3713,-3.3713,-3.3713,-3.3924,-3.4356,-3.4397,-3.4397,-3.4397,-3.4397,-3.4397,-3.4397,-3.4397,-3.4397,-3.4397,-3.4397,-3.4397,-3.4397,-3.4397,-3.4397,-3.4397,-3.4397,-3.4397,-3.4397,-3.4397,-3.4397,-3.4397,-3.4397,-3.4397,-3.4397,-3.4397,-3.4058,-3.36,-3.36,-3.3208,-3.2698,-3.2698,-3.2685,-3.2581,-3.1967,-3.181,-3.168,-3.1143,-3.0999,-3.0999,-3.0986,-3.0986,-3.0986,-3.0986,-3.0986,-3.0986,-3.0986,-3.0529,-3.0113,-3.0113,-2.968,-2.9323,-2.9323,-2.931,-2.9311,-2.9389,-2.9988,-3.0439,-3.0491,-3.1102,-3.1525,-3.1525,-3.2108,-3.2497,-3.2497,-3.3125,-3.3499,-3.3499,-3.3499,-3.3499,-3.3514,-3.4174,-3.4518,-3.4518,-3.3844,-3.3844,-3.4518,-3.5175,-3.5848,-3.6492,-3.7105,-3.7404,-3.7404,-3.7404,-3.7404,-3.736,-3.6746,-3.6844,-3.7352,-3.6676,-3.7191,-3.8294,-3.8294,-3.8816,-3.9501,-3.2929,-3.3043,-3.3093,-3.3245,-3.3283,-3.3313,-3.3471,-3.3356,-3.3313,-3.3471,-3.3471,-3.3441,-3.3283,-3.3513,-3.3641,-3.3513,-3.3641,-3.3713,-3.3713,-3.3556,-3.3598,-3.3882,-3.3924,-3.4021,-3.4202,-3.4202,-3.4285,-3.4397,-3.4397,-3.4397,-3.4397,-3.4397,-3.4397,-3.4397,-3.4397,-3.4397,-3.4397,-3.4397,-3.4397,-3.4397,-3.4397,-3.4397,-3.4397,-3.4397,-3.4397,-3.4397,-3.4397,-3.4293,-3.4162,-3.4162,-3.4031,-3.3822,-3.3443,-3.3038,-3.2659,-3.2489,-3.2437,-3.2319,-3.1706,-3.1549,-3.1445,-3.1091,-3.0986,-3.0986,-3.0986,-3.0986,-3.0986,-3.0986,-3.0856,-3.0725,-3.0725,-3.0268,-2.9839,-2.9839,-2.9549,-2.9315,-2.9341,-2.9922,-3.0535,-3.1079,-3.1717,-3.2338,-3.2841,-3.308,-3.32,-3.32,-3.338,-3.3694,-3.4189,-3.4219,-3.4412,-3.4891,-3.51,-3.519,-3.519,-3.4996,-3.4996,-3.519,-3.54,-3.5609,-3.5804,-3.5983,-3.6327,-3.6761,-3.6761,-3.7,-3.7404,-3.721,-3.751,-3.809,-3.7891,-3.8044,-3.8352,-3.8352,-3.8473,-3.8673,-3.3048,-3.3124,-3.3124,-3.3124,-3.3124,-3.3154,-3.3283,-3.3197,-3.3154,-3.3283,-3.3283,-3.324,-3.3124,-3.3313,-3.3398,-3.3283,-3.3398,-3.3484,-3.3484,-3.3356,-3.3356,-3.3484,-3.3484,-3.3611,-3.3937,-3.3937,-3.3979,-3.4105,-3.4105,-3.4189,-3.4272,-3.4272,-3.4314,-3.4397,-3.4397,-3.4397,-3.4397,-3.4397,-3.4397,-3.4397,-3.4397,-3.4397,-3.4397,-3.4397,-3.4397,-3.4397,-3.4397,-3.4397,-3.4397,-3.4397,-3.4397,-3.4345,-3.4018,-3.3666,-3.3326,-3.3117,-3.3051,-3.2921,-3.2333,-3.2137,-3.2045,-3.147,-3.1156,-3.0986,-3.0986,-3.0986,-3.0986,-3.0986,-3.0986,-3.0986,-3.0986,-3.0699,-3.0477,-3.0477,-3.0176,-2.9876,-2.9653,-3.046,-3.1143,-3.1382,-3.2248,-3.3005,-3.3469,-3.3724,-3.4008,-3.4262,-3.4292,-3.4457,-3.4861,-3.4891,-3.507,-3.5489,-3.5504,-3.5504,-3.5504,-3.5504,-3.5504,-3.5504,-3.5774,-3.5893,-3.5893,-3.6148,-3.6477,-3.6851,-3.6851,-3.706,-3.7404,-3.7404,-3.7643,-3.7983,-3.7983,-3.8167,-3.8372,-3.8107,-3.816,-3.8367,-3.3124,-3.3124,-3.3124,-3.3124,-3.3124,-3.3124,-3.3124,-3.3124,-3.3124,-3.3124,-3.3124,-3.3124,-3.3124,-3.3124,-3.3124,-3.3124,-3.3124,-3.3124,-3.3124,-3.3124,-3.3124,-3.3124,-3.3124,-3.3283,-3.3641,-3.367,-3.367,-3.3713,-3.3713,-3.381,-3.4076,-3.4076,-3.416,-3.4356,-3.4356,-3.4397,-3.4397,-3.4397,-3.4397,-3.4397,-3.4397,-3.4397,-3.4397,-3.4397,-3.4397,-3.4397,-3.4397,-3.4397,-3.4397,-3.4397,-3.4397,-3.4397,-3.4397,-3.4397,-3.4293,-3.3809,-3.3666,-3.3535,-3.2934,-3.2777,-3.2633,-3.2019,-3.1522,-3.1117,-3.1013,-3.0986,-3.0986,-3.0986,-3.0986,-3.0986,-3.0986,-3.0986,-3.0986,-3.0986,-3.0986,-3.0803,-3.0244,-3.13,-3.1969,-3.1578,-3.2678,-3.354,-3.3679,-3.4249,-3.4831,-3.5459,-3.5504,-3.5504,-3.5504,-3.5504,-3.5504,-3.5504,-3.5504,-3.5504,-3.5504,-3.5504,-3.5504,-3.5519,-3.6118,-3.6402,-3.6417,-3.6985,-3.727,-3.733,-3.733,-3.736,-3.7404,-3.7404,-3.7404,-3.7419,-3.7479,-3.7824,-3.8253,-3.7701,-3.7887,-3.841,-3.3124,-3.3124,-3.3124,-3.3124,-3.3124,-3.3124,-3.3124,-3.3124,-3.3124,-3.3124,-3.3124,-3.3124,-3.3124,-3.3124,-3.3124,-3.3124,-3.3124,-3.3124,-3.3124,-3.3124,-3.3124,-3.3124,-3.3124,-3.3154,-3.324,-3.3398,-3.3556,-3.3713,-3.3713,-3.3725,-3.381,-3.381,-3.3937,-3.416,-3.416,-3.4243,-3.4397,-3.4397,-3.4397,-3.4397,-3.4397,-3.4397,-3.4397,-3.4397,-3.4397,-3.4397,-3.4397,-3.4397,-3.4397,-3.4397,-3.4397,-3.4397,-3.4397,-3.4397,-3.4371,-3.4254,-3.4228,-3.411,-3.3548,-3.3391,-3.326,-3.2659,-3.2411,-3.2084,-3.1196,-3.0986,-3.0986,-3.0986,-3.0986,-3.0986,-3.0986,-3.0986,-3.0986,-3.0986,-3.0986,-3.0934,-3.0817,-3.1088,-3.1667,-3.2709,-3.3061,-3.3734,-3.4959,-3.5205,-3.534,-3.5489,-3.5504,-3.5504,-3.5504,-3.5504,-3.5504,-3.5504,-3.5504,-3.5504,-3.5504,-3.5504,-3.5504,-3.5504,-3.5654,-3.5714,-3.5729,-3.5848,-3.6207,-3.6686,-3.6686,-3.6956,-3.7404,-3.7404,-3.7404,-3.7464,-3.7973,-3.7957,-3.7639,-3.805,-3.8288,-3.841,-3.3124,-3.3124,-3.3124,-3.3124,-3.3124,-3.3124,-3.3124,-3.3124,-3.3124,-3.3124,-3.3124,-3.3124,-3.3124,-3.3124,-3.3124,-3.3124,-3.3124,-3.3124,-3.3124,-3.3124,-3.3124,-3.3124,-3.3124,-3.3124,-3.3124,-3.3197,-3.3313,-3.3398,-3.3398,-3.3484,-3.3556,-3.3556,-3.3683,-3.3894,-3.4034,-3.416,-3.4285,-3.4356,-3.4397,-3.4397,-3.4397,-3.4397,-3.4397,-3.4397,-3.4397,-3.4397,-3.4397,-3.4397,-3.4397,-3.4397,-3.4397,-3.4397,-3.4397,-3.4397,-3.4397,-3.4397,-3.4397,-3.4332,-3.4058,-3.3979,-3.3835,-3.326,-3.3117,-3.2816,-3.1653,-3.1392,-3.1313,-3.1039,-3.0986,-3.0986,-3.0986,-3.0986,-3.0986,-3.0986,-3.0986,-3.0986,-3.0986,-3.1296,-3.1809,-3.2577,-3.3003,-3.3506,-3.4322,-3.4706,-3.4938,-3.4938,-3.5279,-3.5504,-3.5504,-3.5504,-3.5504,-3.5504,-3.5504,-3.5504,-3.5504,-3.5504,-3.5504,-3.5504,-3.5504,-3.5504,-3.5504,-3.5504,-3.5684,-3.6013,-3.6013,-3.6207,-3.6522,-3.6836,-3.6971,-3.703,-3.7674,-3.7719,-3.7449,-3.7793,-3.7928,-3.7951,-3.3124,-3.3124,-3.3124,-3.3124,-3.3124,-3.3124,-3.3124,-3.3124,-3.3124,-3.3124,-3.3124,-3.3124,-3.3124,-3.3124,-3.3124,-3.3124,-3.3124,-3.3124,-3.3124,-3.3124,-3.3124,-3.3124,-3.3124,-3.3124,-3.3124,-3.3124,-3.3124,-3.3124,-3.3124,-3.3197,-3.3356,-3.3356,-3.3471,-3.3713,-3.3937,-3.4076,-3.416,-3.4314,-3.4397,-3.4397,-3.4397,-3.4397,-3.4397,-3.4397,-3.4397,-3.4397,-3.4397,-3.4397,-3.4397,-3.4397,-3.4397,-3.4397,-3.4397,-3.4397,-3.4397,-3.4397,-3.4397,-3.4397,-3.4397,-3.4397,-3.4293,-3.3849,-3.3731,-3.3456,-3.2346,-3.2019,-3.1784,-3.1248,-3.113,-3.1104,-3.0999,-3.0986,-3.0986,-3.0986,-3.0986,-3.0986,-3.0986,-3.1542,-3.1942,-3.2087,-3.2755,-3.3262,-3.3388,-3.3837,-3.4211,-3.4495,-3.4986,-3.5359,-3.5504,-3.5504,-3.5504,-3.5504,-3.5504,-3.5504,-3.5504,-3.5504,-3.5504,-3.5504,-3.5504,-3.5504,-3.5504,-3.5504,-3.5504,-3.5504,-3.5504,-3.5504,-3.5549,-3.6088,-3.6312,-3.6387,-3.7,-3.7255,-3.7255,-3.7376,-3.74,-3.7447,-3.3124,-3.3124,-3.3124,-3.3124,-3.3124,-3.3124,-3.3124,-3.3124,-3.3124,-3.3124,-3.3124,-3.3124,-3.3124,-3.3124,-3.3124,-3.3124,-3.3124,-3.3124,-3.3124,-3.3124,-3.3124,-3.3124,-3.3124,-3.3124,-3.3124,-3.3124,-3.3124,-3.3124,-3.3124,-3.3124,-3.3154,-3.3154,-3.3356,-3.3713,-3.3755,-3.3979,-3.4356,-3.4397,-3.4397,-3.4397,-3.4397,-3.4397,-3.4397,-3.4397,-3.4397,-3.4397,-3.4397,-3.4397,-3.4397,-3.4397,-3.4397,-3.4397,-3.4397,-3.4397,-3.4397,-3.4397,-3.4397,-3.4397,-3.4397,-3.4397,-3.4384,-3.4306,-3.4293,-3.4123,-3.3496,-3.2947,-3.2411,-3.1797,-3.168,-3.1536,-3.1078,-3.0986,-3.0986,-3.0986,-3.0986,-3.0986,-3.0986,-3.1099,-3.1408,-3.2015,-3.2755,-3.3457,-3.4109,-3.365,-3.3885,-3.5246,-3.4791,-3.4758,-3.5472,-3.5504,-3.5504,-3.5504,-3.5504,-3.5504,-3.5504,-3.5504,-3.5504,-3.5504,-3.5504,-3.5504,-3.5504,-3.5504,-3.5504,-3.5504,-3.5504,-3.5504,-3.5519,-3.5609,-3.5639,-3.5699,-3.6357,-3.6611,-3.6663,-3.7212,-3.7394,-3.7322,-3.3124,-3.3124,-3.3124,-3.3124,-3.3124,-3.3124,-3.3124,-3.3124,-3.3124,-3.3124,-3.3124,-3.3124,-3.3124,-3.3124,-3.3124,-3.3124,-3.3124,-3.3124,-3.3124,-3.3124,-3.3124,-3.3124,-3.3124,-3.3124,-3.3124,-3.3124,-3.3124,-3.3124,-3.3124,-3.3124,-3.3124,-3.3124,-3.3197,-3.3356,-3.3471,-3.3641,-3.3852,-3.3979,-3.4105,-3.4243,-3.4243,-3.4314,-3.4397,-3.4397,-3.4397,-3.4397,-3.4397,-3.4397,-3.4397,-3.4397,-3.4397,-3.4397,-3.4397,-3.4397,-3.4397,-3.4397,-3.4397,-3.4397,-3.4397,-3.4397,-3.4397,-3.4397,-3.4397,-3.4332,-3.4097,-3.3835,-3.3391,-3.2502,-3.2319,-3.2136,-3.1536,-3.147,-3.1365,-3.1039,-3.0986,-3.0986,-3.0986,-3.0986,-3.1123,-3.1468,-3.1786,-3.2268,-3.2989,-3.3143,-3.3644,-3.4758,-3.4905,-3.5133,-3.5472,-3.5504,-3.5504,-3.5504,-3.5504,-3.5504,-3.5504,-3.5504,-3.5504,-3.5504,-3.5504,-3.5504,-3.5504,-3.5504,-3.5504,-3.5504,-3.5504,-3.5504,-3.5504,-3.5504,-3.5504,-3.5534,-3.5833,-3.6163,-3.6543,-3.6778,-3.691,-3.6882]},{"header":{"parameterUnit":"m.s-1","parameterCategory":1,"la1":30.6,"la2":28.766,"lo1":-90.7593,"lo2":-88.6598,"dy":0.0162,"dx":0.0183,"nx":116,"ny":114,"refTime":"2024-04-15T06:00:00:Z","depth":0,"parameterNumber":3,"parameterNumberName":"V-component_of_WINDS"},"data":[0.0,0.0,0.0,0.0,0.0,0.0,0.0,0.0,0.0,0.0,0.0,0.0,0.0,0.0,0.0,0.0,0.0,0.0,0.0,0.0,0.0,0.0,0.0,0.0,0.0,0.0,0.0,0.0,0.0,0.0,0.0,0.0,0.0,0.0,0.0,0.0,0.0,0.0,0.0,0.0,0.0,0.0,0.0,0.0,0.0,0.0,0.0,0.0,0.0,0.0,0.0,0.0,0.0,0.0,0.0,0.0,0.0,0.0,0.0,0.0,0.0,0.0,0.0,0.0,0.0,0.0,0.0,0.0,0.0,0.0,0.0,0.0,0.0,0.0,0.0,0.0,0.0,0.0,0.0,0.0,0.0,0.0,0.0,0.0,0.0,0.0,0.0,0.0,0.0,0.0,0.0,0.0,0.0,0.0,0.0,0.0,0.0,0.0,0.0,0.0,0.0,0.0,0.0,0.0,0.0,0.0,0.0,0.0,0.0,0.0,0.0,0.0,0.0,0.0,0.0,0.0,0.0,0.0,0.0,0.0,0.0,0.0,0.0,0.0,0.0,0.0,0.0,0.0,0.0,0.0,0.0,0.0,0.0,0.0,0.0,0.0,0.0,0.0,0.0,0.0,0.0,0.0,0.0,0.0,0.0,0.0,0.0,0.0,0.0,0.0,0.0,0.0,0.0,0.0,0.0,0.0,0.0,0.0,0.0,0.0,0.0,0.0,0.0,0.0,0.0,0.0,0.0,0.0,0.0,0.0,0.0,0.0,0.0,0.0,0.0,0.0,0.0,0.0,0.0,0.0,0.0,0.0,0.0,0.0,0.0,0.0,0.0,0.0,0.0,0.0,0.0,0.0,0.0,0.0,0.0,0.0,0.0,0.0,0.0,0.0,0.0,0.0,0.0,0.0,0.0,0.0,0.0,0.0,0.0,0.0,0.0,0.0,0.0,0.0,0.0,0.0,0.0,0.0,0.0,0.0,0.0,0.0,0.0,0.0,0.0,0.0,0.0,0.0,0.0,0.0,0.0,0.0,0.0,0.0,0.0,0.0,0.0,0.0,0.0,0.0,0.0,0.0,0.0,0.0,0.0,0.0,0.0,0.0,0.0,0.0,0.0,0.0,0.0,0.0,0.0,0.0,0.0,0.0,0.0,0.0,0.0,0.0,0.0,0.0,0.0,0.0,0.0,0.0,0.0,0.0,0.0,0.0,0.0,0.0,0.0,0.0,0.0,0.0,0.0,0.0,0.0,0.0,0.0,0.0,0.0,0.0,0.0,0.0,0.0,0.0,0.0,0.0,0.0,0.0,0.0,0.0,0.0,0.0,0.0,0.0,0.0,0.0,0.0,0.0,0.0,0.0,0.0,0.0,0.0,0.0,0.0,0.0,0.0,0.0,0.0,0.0,0.0,0.0,0.0,0.0,0.0,0.0,0.0,0.0,0.0,0.0,0.0,0.0,0.0,0.0,0.0,0.0,0.0,0.0,0.0,0.0,0.0,0.0,0.0,0.0,0.0,0.0,0.0,0.0,0.0,0.0,0.0,0.0,0.0,0.0,0.0,0.0,0.0,0.0,0.0,0.0,0.0,0.0,0.0,0.0,0.0,0.0,0.0,0.0,0.0,0.0,0.0,0.0,0.0,0.0,0.0,0.0,0.0,0.0,0.0,0.0,0.0,0.0,0.0,0.0,0.0,0.0,0.0,0.0,0.0,0.0,0.0,0.0,0.0,0.0,0.0,0.0,0.0,0.0,0.0,0.0,0.0,0.0,0.0,0.0,0.0,0.0,0.0,0.0,0.0,0.0,0.0,0.0,0.0,0.0,0.0,0.0,0.0,0.0,0.0,0.0,0.0,0.0,0.0,0.0,0.0,0.0,0.0,0.0,0.0,0.0,0.0,0.0,0.0,0.0,0.0,0.0,0.0,0.0,0.0,0.0,0.0,0.0,0.0,0.0,0.0,0.0,0.0,0.0,0.0,0.0,0.0,0.0,0.0,0.0,0.0,0.0,0.0,0.0,0.0,0.0,0.0,0.0,0.0,0.0,0.0,0.0,0.0,0.0,0.0,0.0,0.0,0.0,0.0,0.0,0.0,0.0,0.0,0.0,0.0,0.0,0.0,0.0,0.0,0.0,0.0,0.0,0.0,0.0,0.0,0.0,0.0,0.0,0.0,0.0,0.0,0.0,0.0,0.0,0.0,0.0,0.0,0.0,0.0,0.0,0.0,0.0,0.0,0.0,0.0,0.0,0.0,0.0,0.0,0.0,0.0,0.0,0.0,0.0,0.0,0.0,0.0,0.0,0.0,0.0,0.0,0.0,0.0,0.0,0.0,0.0,0.0,0.0,0.0,0.0,0.0,0.0,0.0,0.0,0.0,0.0,0.0,0.0,0.0,0.0,0.0,0.0,0.0,0.0,0.0,0.0,0.0,0.0,0.0,0.0,0.0,0.0,0.0,0.0,0.0,0.0,0.0,0.0,0.0,0.0,0.0,0.0,0.0,0.0,0.0,0.0,0.0,0.0,0.0,0.0,0.0,0.0,0.0,0.0,0.0,0.0,0.0,0.0,0.0,0.0,0.0,0.0,0.0,0.0,0.0,0.0,0.0,0.0,0.0,0.0,0.0,0.0,0.0,0.0,0.0,0.0,0.0,0.0,0.0,0.0,0.0,0.0,0.0,0.0,0.0,0.0,0.0,0.0,0.0,0.0,0.0,0.0,0.0,0.0,0.0,0.0,0.0,0.0,0.0,0.0,0.0,0.0,0.0,0.0,0.0,0.0,0.0,0.0,0.0,0.0,0.0,0.0,0.0,0.0,0.0,0.0,0.0,0.0,0.0,0.0,0.0,0.0,0.0,0.0,0.0,0.0,0.0,0.0,0.0,0.0,0.0,0.0,0.0,0.0,0.0,0.0,0.0,0.0,0.0,0.0,0.0,0.0,0.0,0.0,0.0,0.0,0.0,0.0,0.0,0.0,0.0,0.0,0.0,0.0,0.0,0.0,0.0,0.0,0.0,0.0,0.0,0.0,0.0,0.0,0.0,0.0,0.0,0.0,0.0,0.0,0.0,0.0,0.0,0.0,0.0,0.0,0.0,0.0,0.0,0.0,0.0,0.0,0.0,0.0,0.0,0.0,0.0,0.0,0.0,0.0,0.0,0.0,0.0,0.0,0.0,0.0,0.0,0.0,0.0,0.0,0.0,0.0,0.0,0.0,0.0,0.0,0.0,0.0,0.0,0.0,0.0,0.0,0.0,0.0,0.0,0.0,0.0,0.0,0.0,0.0,0.0,0.0,0.0,0.0,0.0,0.0,0.0,0.0,0.0,0.0,0.0,0.0,0.0,0.0,0.0,0.0,0.0,0.0,0.0,0.0,0.0,0.0,0.0,0.0,0.0,0.0,0.0,0.0,0.0,0.0,0.0,0.0,0.0,0.0,0.0,0.0,0.0,0.0,0.0,0.0,0.0,0.0,0.0,0.0,0.0,0.0,0.0,0.0,0.0,0.0,0.0,0.0,0.0,0.0,0.0,0.0,0.0,0.0,0.0,0.0,0.0,0.0,0.0,0.0,0.0,0.0,0.0,0.0,0.0,0.0,0.0,0.0,0.0,0.0,0.0,0.0,0.0,0.0,0.0,0.0,0.0,0.0,0.0,0.0,0.0,0.0,0.0,0.0,0.0,0.0,0.0,0.0,0.0,0.0,0.0,0.0,0.0,0.0,0.0,0.0,0.0,0.0,0.0,0.0,0.0,0.0,0.0,0.0,0.0,0.0,0.0,0.0,0.0,0.0,0.0,0.0,0.0,0.0,0.0,0.0,0.0,0.0,0.0,0.0,0.0,0.0,0.0,0.0,0.0,0.0,0.0,0.0,0.0,0.0,0.0,0.0,0.0,0.0,0.0,0.0,0.0,0.0,0.0,0.0,0.0,0.0,0.0,0.0,0.0,0.0,0.0,0.0,0.0,0.0,0.0,0.0,0.0,0.0,0.0,0.0,0.0,0.0,0.0,0.0,0.0,0.0,0.0,0.0,0.0,0.0,0.0,0.0,0.0,0.0,0.0,0.0,0.0,0.0,0.0,0.0,0.0,0.0,0.0,0.0,0.0,0.0,0.0,0.0,0.0,0.0,0.0,0.0,0.0,0.0,0.0,0.0,0.0,0.0,0.0,0.0,0.0,0.0,0.0,0.0,0.0,0.0,0.0,0.0,0.0,0.0,0.0,0.0,0.0,0.0,0.0,0.0,0.0,0.0,0.0,0.0,0.0,0.0,0.0,0.0,0.0,0.0,0.0,0.0,0.0,0.0,0.0,0.0,0.0,0.0,0.0,0.0,0.0,0.0,0.0,0.0,0.0,0.0,0.0,0.0,0.0,0.0,0.0,0.0,0.0,0.0,0.0,0.0,0.0,0.0,0.0,0.0,0.0,0.0,0.0,0.0,0.0,0.0,0.0,0.0,0.0,0.0,0.0,0.0,0.0,0.0,0.0,0.0,0.0,0.0,0.0,0.0,0.0,0.0,0.0,0.0,0.0,0.0,0.0,0.0,0.0,0.0,0.0,0.0,0.0,0.0,0.0,0.0,0.0,0.0,0.0,0.0,0.0,0.0,0.0,0.0,0.0,0.0,0.0,0.0,0.0,0.0,0.0,0.0,0.0,0.0,0.0,0.0,0.0,0.0,0.0,0.0,0.0,0.0,0.0,0.0,0.0,0.0,0.0,0.0,0.0,0.0,0.0,0.0,0.0,0.0,0.0,0.0,0.0,0.0,0.0,0.0,0.0,0.0,0.0,0.0,0.0,0.0,0.0,0.0,0.0,0.0,0.0,0.0,0.0,0.0,0.0,0.0,0.0,0.0,0.0,0.0,0.0,0.0,0.0,0.0,0.0,0.0,0.0,0.0,0.0,0.0,0.0,0.0,0.0,0.0,0.0,0.0,0.0,0.0,0.0,0.0,0.0,0.0,0.0,0.0,0.0,0.0,0.0,0.0,0.0,0.0,0.0,0.0,0.0,0.0,0.0,0.0,0.0,0.0,0.0,0.0,0.0,0.0,0.0,0.0,0.0,0.0,0.0,0.0,0.0,0.0,0.0,0.0,0.0,0.0,0.0,0.0,0.0,0.0,0.0,0.0,0.0,0.0,0.0,0.0,0.0,0.0,0.0,0.0,0.0,0.0,0.0,0.0,0.0,0.0,0.0,0.0,0.0,0.0,0.0,0.0,0.0,0.0,0.0,0.0,0.0,0.0,0.0,0.0,0.0,0.0,0.0,0.0,0.0,0.0,0.0,0.0,0.0,0.0,0.0,0.0,0.0,0.0,0.0,0.0,0.0,0.0,0.0,0.0,0.0,0.0,0.0,0.0,0.0,0.0,0.0,0.0,0.0,0.0,0.0,0.0,0.0,0.0,0.0,0.0,0.0,0.0,0.0,0.0,0.0,0.0,0.0,0.0,0.0,0.0,0.0,0.0,0.0,0.0,0.0,0.0,0.0,0.0,0.0,0.0,0.0,0.0,0.0,0.0,0.0,0.0,0.0,0.0,0.0,0.0,0.0,0.0,0.0,0.0,0.0,0.0,0.0,0.0,0.0,0.0,0.0,0.0,0.0,0.0,0.0,0.0,0.0,0.0,0.0,0.0,0.0,0.0,0.0,0.0,0.0,0.0,0.0,0.0,0.0,0.0,0.0,0.0,0.0,0.0,0.0,0.0,0.0,0.0,0.0,0.0,0.0,0.0,0.0,0.0,0.0,0.0,0.0,0.0,0.0,0.0,0.0,0.0,0.0,0.0,0.0,0.0,0.0,0.0,0.0,0.0,0.0,0.0,0.0,0.0,0.0,0.0,0.0,0.0,0.0,0.0,0.0,0.0,0.0,0.0,0.0,0.0,0.0,0.0,0.0,0.0,0.0,0.0,0.0,0.0,0.0,0.0,0.0,0.0,0.0,0.0,0.0,0.0,0.0,0.0,0.0,0.0,0.0,0.0,0.0,0.0,0.0,0.0,0.0,0.0,0.0,0.0,0.0,0.0,0.0,0.0,0.0,0.0,0.0,0.0,0.0,0.0,0.0,0.0,0.0,0.0,0.0,0.0,0.0,0.0,0.0,0.0,0.0,0.0,0.0,0.0,-0.6527,0.0,0.0,0.0,0.0,0.0,0.0,0.0,0.0,0.0,0.0,0.0,0.0,0.0,0.0,0.0,0.0,0.0,0.0,0.0,0.0,0.0,0.0,0.0,0.0,-0.1444,-0.1813,-0.2181,-0.2484,-0.282,-0.3192,0.0,0.0,0.0,0.0,0.0,-0.1636,-0.1582,-0.0931,0.0378,0.0497,0.1,0.185,0.2018,0.2155,0.2267,0.0,0.0,0.0,0.0,0.0,0.0,0.0,0.0,0.0,0.0,0.0,0.0,0.0,0.0,0.0,0.0,0.0,0.0,0.0,0.0,0.0,0.0,0.0,0.0,0.0,0.0,0.0,0.0,0.0,0.0,0.0,0.0,0.0,0.0,0.0,0.0,0.0,0.0,0.0,0.0,0.0,0.0,0.0,0.0,0.0,0.0,0.0,0.0,0.0,0.0,0.0,0.0,0.0,0.0,0.0,0.0,0.0,0.0,0.0,0.0,0.0,0.0,0.0,0.0,0.0,0.0,0.0,0.0,0.0,0.0,0.0,-0.6268,0.0,0.0,0.0,0.0,0.0,0.0,0.0,0.0,0.0,0.0,0.0,0.0,0.0,0.0,0.0,0.0,0.0,0.0,0.0,0.0,0.0,0.0538,-0.0974,-0.1109,-0.1411,-0.2181,-0.282,-0.3165,-0.3046,-0.3253,0.0,0.0,-0.3475,-0.3148,-0.2379,-0.239,-0.1535,0.0274,0.0588,0.1098,0.1807,0.1848,0.1924,0.2118,0.2353,0.0,0.0,0.0,0.0,0.0,0.0,0.0,0.0,0.0,0.0,0.0,0.0,0.0,0.0,0.0,0.0,0.0,0.0,0.0,0.0,0.0,0.0,0.0,0.0,0.0,0.0,0.0,0.0,0.0,0.0,0.0,0.0,0.0,0.0,0.0,0.0,0.0,0.0,0.0,0.0,0.0,0.0,0.0,0.0,0.0,0.0,0.0,0.0,0.0,0.0,0.0,0.0,0.0,0.0,0.0,0.0,0.0,0.0,0.0,0.0,0.0,0.0,0.0,-0.43,-0.43,-0.43,-0.43,-0.4334,-0.4367,-0.4631,-0.519,-0.5881,-0.6141,0.0,0.0,0.0,0.0,0.0,0.0,0.0,0.0,0.0,0.0,0.0,0.0,0.0,0.0,0.0,0.0,0.0,0.0,0.0,0.0504,-0.1106,-0.1176,-0.1444,-0.2316,-0.2889,-0.2988,-0.2466,-0.3041,-0.3434,-0.3479,-0.3565,-0.3541,-0.3398,-0.3511,-0.2734,-0.1058,0.0471,0.1257,0.1375,0.1572,0.165,0.1689,0.208,0.2235,0.2234,0.0,0.0,0.0,0.0,0.0,0.0,0.0,0.0,0.0,0.0,0.0,0.0,0.0,0.0,0.0,0.0,0.0,0.0,0.0,0.0,0.0,0.0,0.0,0.0,0.0,0.0,0.0,0.0,0.0,0.0,0.0,0.0,0.0,0.0,0.0,0.0,0.0,0.0,0.0,0.0,0.0,-0.3192,-0.3192,0.0,0.0,0.0,0.0,0.0,0.0,0.0,0.0,0.0,0.0,0.0,0.0,0.0,-0.43,-0.43,-0.43,-0.43,-0.43,-0.43,-0.43,-0.43,-0.43,-0.4398,-0.4558,-0.4592,0.0,-0.4994,-0.5392,0.0,0.0,0.0,0.0,0.0,0.0,0.0,0.0,0.0,0.0,0.0,0.0,0.0,0.0,0.0,0.0,0.0,0.0,0.0,0.0,0.0,-0.0504,-0.0907,-0.1309,-0.184,-0.2005,-0.1748,-0.2412,-0.2868,-0.2864,-0.3427,-0.3703,-0.3703,-0.3276,-0.2233,-0.0587,0.0667,0.1296,0.1296,0.1375,0.1415,0.1454,0.1728,0.1924,0.2042,0.2237,0.0,0.0,0.0,0.0,0.0,0.0,0.0,0.0,0.0,0.0,0.0,0.0,0.0,0.0,0.0,0.0,0.0,0.0,0.0,0.0,0.0,0.0,0.0,0.0,0.0,0.0,0.0,0.0,0.0,0.0,0.0,0.0,0.0,0.0,0.0,0.0,0.0,0.0,0.0,-0.3192,-0.3192,-0.3192,-0.3341,-0.3477,0.0,0.0,0.0,0.0,0.0,0.0,0.0,0.0,0.0,-0.4534,-0.4534,-0.4534,-0.4534,-0.4534,-0.4534,-0.4534,-0.4534,-0.4534,-0.4534,-0.4534,-0.4568,-0.467,-0.4842,-0.4981,-0.5041,-0.5158,-0.5679,-0.64,0.0,0.0,0.0,0.0,-0.7381,-0.7279,0.0,0.0,0.0,0.0,0.0,0.0,0.0,0.0,0.0,0.0,0.0,0.0,0.0404,-0.0135,-0.0504,-0.0571,-0.1069,-0.13,-0.1097,-0.1956,-0.2464,-0.2441,-0.33,-0.3802,-0.3802,-0.2744,-0.1489,0.0,0.0863,0.1296,0.1296,0.1296,0.1296,0.1296,0.1454,0.165,0.1848,0.2042,0.2119,0.2157,0.0,0.0,0.0,0.0,0.0,0.0,0.0,0.0,0.0,0.0,0.0,0.0,0.0,0.0,0.0,0.0,0.0,0.0,0.0,0.0,0.0,0.0,0.0,0.0,0.0,0.0,0.0,0.0,0.0,0.0,0.0,0.0,0.0,0.0,0.0,0.0,0.0,-0.3281,-0.3263,-0.3263,-0.3356,-0.3468,0.0,0.0,0.0,0.0,0.0,0.0,-0.469,-0.469,-0.469,-0.469,-0.469,-0.469,-0.469,-0.469,-0.469,-0.469,-0.469,-0.469,-0.469,-0.469,-0.469,-0.4726,-0.4976,-0.512,-0.5206,-0.5214,-0.5707,-0.6465,-0.6416,-0.6793,-0.7386,-0.7223,-0.6826,-0.6367,0.0,0.0,0.0,0.0,0.0,0.0,0.0,0.0,0.0,0.0,0.0,0.0202,-0.0639,-0.0605,-0.0571,-0.0773,-0.1276,-0.1275,-0.0508,-0.1863,-0.2638,-0.2503,-0.3329,-0.3802,-0.3802,-0.2194,-0.0901,0.0,0.0863,0.1296,0.1296,0.1296,0.1296,0.1296,0.1296,0.1415,0.1611,0.1848,0.1925,0.1925,0.2119,0.0,0.0,0.0,0.0,0.0,0.0,0.0,0.0,0.0,0.0,0.0,0.0,0.0,0.0,0.0,0.0,0.0,0.0,0.0,0.0,0.0,0.0,0.0,0.0,0.0,0.0,0.0,0.0,0.0,0.0,0.0,0.0,0.0,0.0,0.0,0.0,0.0,0.0,-0.3487,-0.3491,0.0,0.0,0.0,0.0,-0.4114,-0.4225,-0.4439,-0.469,-0.469,-0.469,-0.469,-0.469,-0.469,-0.469,-0.469,-0.469,-0.469,-0.469,-0.469,-0.469,-0.469,-0.469,-0.469,-0.4726,-0.4903,-0.5215,-0.5466,-0.5986,-0.6571,-0.6465,-0.6793,-0.7321,-0.6695,-0.6429,-0.6301,0.0,0.0,0.0,0.0,0.0,0.0034,0.0101,0.0202,0.0303,0.0371,0.0371,0.027,-0.0067,-0.0135,-0.0204,-0.0276,-0.0354,-0.0218,0.0224,-0.065,-0.1322,-0.1724,-0.251,-0.2704,-0.2193,-0.1057,-0.0039,0.0824,0.1139,0.1296,0.1296,0.1296,0.1296,0.1296,0.1296,0.1335,0.1415,0.1611,0.169,0.1729,0.1924,0.208,0.0,0.0,0.0,0.0,0.0,0.0,0.0,0.0,0.0,0.0,0.0,0.0,0.0,0.0,0.0,0.0,0.0,0.0,0.0,0.0,0.0,0.0,0.0,0.0,0.0,0.0,0.0,0.0,0.0,0.0,0.0,0.0,0.0,0.0,0.0,0.0,0.0,-0.3499,-0.3548,0.0,-0.3581,-0.3823,-0.4087,-0.4275,-0.4467,-0.466,-0.4887,-0.4887,-0.4887,-0.4887,-0.4887,-0.4887,-0.4887,-0.4887,-0.4923,-0.5035,-0.5035,-0.5035,-0.5035,-0.5035,-0.4955,-0.4887,-0.5036,-0.5226,-0.5481,-0.5601,-0.5846,-0.6064,-0.6042,-0.61,-0.6214,-0.5977,-0.584,-0.5719,0.0,0.0,0.0,0.0,0.0,0.0,0.0,0.0101,0.0202,0.0202,0.0202,0.0202,0.0202,0.0067,0.0,0.0,0.0108,0.0295,0.0567,-0.031,-0.0863,-0.0862,-0.1646,-0.1724,-0.0862,-0.0313,0.0431,0.1296,0.1296,0.1296,0.1296,0.1296,0.1296,0.1296,0.1296,0.1296,0.1296,0.1454,0.1493,0.1533,0.1729,0.1885,0.2,0.0,0.0,0.0,0.0,0.0,0.0,0.0,0.0,0.0,0.0,0.0,0.0,0.0,0.0,0.0,0.0,0.0,0.0,0.0,0.0,0.0,0.0,0.0,0.0,0.0,0.0,0.0,0.0,0.0,0.0,0.0,0.0,0.0,0.0,0.0,-0.3589,-0.3589,-0.3638,-0.3673,-0.3673,-0.3883,-0.4077,-0.427,-0.4504,-0.4716,-0.4957,-0.5036,-0.5094,-0.5135,-0.5135,-0.5135,-0.5135,-0.5135,-0.5173,-0.5249,-0.5249,-0.5249,-0.5249,-0.5249,-0.5208,-0.5135,-0.5334,-0.553,-0.5762,-0.5863,-0.5968,-0.6013,-0.5861,-0.5742,-0.5661,-0.5661,-0.5596,-0.5542,0.0,0.0,0.0,0.0,0.0,0.0,0.0,0.0,0.0,0.0,0.0,0.0,0.0,0.0,0.0,0.0,0.0,0.0184,0.0568,-0.0929,-0.1293,-0.0039,-0.0823,-0.0862,0.0,0.0039,0.047,0.1296,0.1298,0.1298,0.1298,0.1299,0.1299,0.1298,0.1298,0.1298,0.1296,0.1296,0.1296,0.1335,0.1493,0.1611,0.1611,0.0,0.0,0.0,0.0,0.0,0.0,0.0,0.0,0.0,0.0,0.0,0.0,0.0,0.0,0.0,0.0,0.0,0.0,0.0,0.0,0.0,0.0,0.0,0.0,0.0,0.0,0.0,0.0,0.0,0.0,0.0,0.0,0.0,-0.3642,-0.3707,-0.3802,-0.3802,-0.3802,-0.3802,-0.3802,-0.3802,-0.3882,-0.4084,-0.4275,-0.4555,-0.4869,-0.5074,-0.5246,-0.5407,-0.541,-0.541,-0.541,-0.541,-0.5413,-0.5416,-0.5416,-0.5416,-0.5416,-0.5416,-0.5416,-0.541,-0.5624,-0.5829,-0.6031,-0.628,-0.6443,-0.6474,-0.5993,-0.5817,-0.581,-0.581,-0.5803,-0.58,0.0,0.0,0.0,0.0,0.0,0.0,0.0,0.0,0.0,0.0,0.0,0.0,0.0,0.0,0.0,0.0,0.0,0.0186,0.0582,0.0156,-0.0078,0.0,-0.0235,-0.0235,0.0,0.0628,0.106,0.1296,0.1319,0.129,0.1291,0.1313,0.1311,0.129,0.129,0.1318,0.1296,0.1296,0.1296,0.1296,0.1375,0.1454,0.1611,0.0,0.0,0.0,0.0,0.0,0.0,0.0,0.0,0.0,0.0,0.0,0.0,0.0,0.0,0.0,0.0,0.0,0.0,0.0,0.0,0.0,0.0,0.0,0.0,0.0,0.0,0.0,0.0,0.0,0.0,0.0,-0.3785,-0.3793,-0.3769,-0.3785,-0.3802,-0.3802,-0.3802,-0.3802,-0.3802,-0.3802,-0.3909,-0.4141,-0.4225,-0.447,-0.4948,-0.5036,-0.517,-0.541,-0.541,-0.541,-0.541,-0.541,-0.5415,-0.5456,-0.5456,-0.5456,-0.5456,-0.5456,-0.5453,-0.541,-0.5624,-0.5829,-0.6031,-0.628,-0.6506,-0.6614,-0.638,-0.6156,-0.5929,-0.5929,-0.5895,-0.58,0.0,0.0,0.0,0.0,0.0,0.0,0.0,0.0,0.0,0.0,0.0,0.0,0.0,0.0,0.0,0.0,0.0073,0.0261,0.0587,0.0786,0.0628,0.0039,0.0353,0.0549,0.0549,0.106,0.1303,0.1316,0.1294,0.1309,0.1281,0.1298,0.1297,0.128,0.128,0.1305,0.1316,0.1316,0.1308,0.1296,0.1296,0.1375,0.1493,0.1493,0.1611,0.1768,0.1768,0.1848,0.1925,0.2042,0.0,0.0,0.0,0.0,0.0,0.0,0.0,0.0,0.0,0.0,0.0,0.0,0.0,0.0,0.0,0.0,0.0,0.0,0.0,0.0,0.0,0.0,0.0,0.0,-0.3802,-0.3802,-0.3802,-0.3802,-0.3802,-0.3802,-0.3802,-0.3816,-0.3855,-0.3939,-0.4097,-0.4276,-0.4449,-0.4741,-0.5059,-0.5151,-0.5302,-0.5521,-0.5521,-0.5521,-0.5521,-0.5521,-0.5556,-0.5583,-0.5583,-0.5583,-0.5583,-0.5583,-0.5545,-0.5523,-0.5781,-0.5992,-0.6199,-0.6459,-0.6636,0.0,0.0,0.0,0.0,0.0,-0.6159,-0.6074,0.0,0.0,0.0,0.0,0.0,0.0,0.0,0.0,0.0,0.0,0.0,0.0,0.0,0.0,0.0,0.0,0.0146,0.0372,0.0587,0.1021,0.0942,0.0196,0.0903,0.1296,0.1296,0.13,0.1316,0.1303,0.1309,0.1326,0.1311,0.1314,0.1313,0.1311,0.1311,0.1292,0.1303,0.1303,0.1285,0.1296,0.1296,0.1296,0.1296,0.1296,0.1415,0.1572,0.1572,0.169,0.1848,0.1848,0.0,0.0,0.0,0.0,0.0,0.0,0.0,0.0,0.0,0.0,0.0,0.0,0.0,0.0,0.0,0.0,0.0,0.0,0.0,0.0,0.0,0.0,0.0,0.0,-0.3802,-0.3802,-0.3802,-0.381,-0.3818,-0.3818,-0.3818,-0.3853,-0.3946,-0.4155,-0.4317,-0.4457,-0.4799,-0.5101,-0.5213,0.0,0.0,0.0,0.0,-0.5688,-0.5688,-0.5688,-0.5688,-0.5688,-0.5688,-0.5688,-0.5688,-0.5688,-0.5688,-0.5733,-0.5997,-0.6213,-0.6432,-0.6704,-0.6853,-0.6893,-0.6766,-0.6702,-0.6685,-0.6549,-0.6538,-0.6518,0.0,0.0,0.0,0.0,0.0,0.0,0.0,0.0,0.0,0.0,0.0,0.0,0.0,0.0,0.0,0.0,0.0036,0.0223,0.0587,0.1021,0.1218,0.106,0.1218,0.1296,0.1296,0.1281,0.1296,0.1303,0.135,0.1376,0.1382,0.1363,0.1362,0.1382,0.1382,0.1352,0.1303,0.1303,0.1285,0.1296,0.1296,0.1296,0.1296,0.1296,0.1335,0.1375,0.1375,0.1375,0.1454,0.1611,0.165,0.169,0.1848,0.1887,0.0,0.0,0.0,0.0,0.0,0.0,0.0,0.0,0.0,0.0,0.0,0.0,0.0,0.0,0.0,0.0,0.0,0.0,0.0,-0.3802,-0.3802,-0.3802,-0.3802,-0.3868,-0.3873,-0.3873,-0.3873,-0.3989,-0.4285,-0.4174,-0.4256,-0.478,-0.4698,-0.4829,-0.5333,-0.5383,-0.5484,-0.5688,-0.5688,-0.5688,-0.5688,-0.5688,-0.5688,-0.5688,0.0,0.0,-0.5688,-0.5688,-0.5688,-0.5733,-0.5997,-0.6213,-0.6432,-0.6704,-0.6908,-0.7031,-0.6803,-0.6702,-0.6698,-0.6668,-0.6658,-0.6654,0.0,0.0,0.0,0.0067,0.0,0.0,0.0,0.0,0.0,0.0,0.0,0.0,0.0,0.0,0.0,0.0,0.0185,0.0421,0.0745,0.11,0.1296,0.1296,0.1296,0.1296,0.1296,0.1287,0.131,0.1284,0.1369,0.1397,0.1413,0.1383,0.1383,0.1412,0.1412,0.138,0.1284,0.1284,0.1299,0.1296,0.1296,0.1296,0.1296,0.1296,0.1296,0.1296,0.1296,0.1296,0.1296,0.1415,0.1454,0.1454,0.1572,0.1611,0.1611,0.0,0.0,0.0,0.0,0.0,0.0,0.0,0.0,0.0,0.0,0.0,0.0,0.0,0.0,-0.3802,-0.3802,0.0,-0.3802,-0.3802,-0.3802,-0.3818,-0.3866,-0.3871,-0.3899,-0.3899,-0.394,-0.4045,-0.4263,-0.4399,-0.4567,-0.493,-0.5024,-0.5227,-0.5549,-0.5552,-0.5599,-0.5688,-0.5688,-0.5715,-0.5817,-0.5817,-0.585,-0.5909,-0.5909,-0.5909,-0.5909,-0.5909,-0.5909,-0.5907,-0.5977,-0.613,-0.6352,-0.6688,-0.6925,-0.7082,-0.6937,-0.6919,-0.6912,-0.6841,-0.6814,-0.6803,0.0,0.0,0.0,0.0371,0.0101,0.0,0.0,0.0,0.0,0.0,0.0,0.0,0.0,0.0,0.0,0.0,0.0378,0.0661,0.0825,0.1139,0.1296,0.1296,0.1296,0.1296,0.1296,0.1287,0.1318,0.1305,0.1376,0.1406,0.1391,0.1391,0.1391,0.139,0.1384,0.1354,0.1305,0.13,0.1307,0.1296,0.1296,0.1296,0.1296,0.1296,0.1296,0.1296,0.1296,0.1296,0.1296,0.1296,0.1296,0.1296,0.1296,0.1296,0.1335,0.1493,0.0942,0.0,0.0,0.0,0.0,0.0,0.0,0.0,0.0,0.0,-0.3802,-0.3802,-0.3802,-0.3802,-0.3802,-0.3802,-0.3802,-0.3802,-0.3816,-0.3855,-0.3889,-0.393,-0.3952,-0.3952,-0.4018,-0.4097,-0.4276,-0.4587,-0.4881,-0.5048,-0.5371,-0.5599,-0.5688,-0.571,-0.5721,-0.5721,-0.5745,-0.5847,-0.5937,-0.5937,-0.5988,-0.6086,-0.6086,-0.6086,-0.6086,-0.6086,-0.6086,-0.6081,-0.6026,-0.6124,-0.6348,-0.674,-0.6946,-0.7098,-0.7142,-0.7122,-0.7082,-0.6967,-0.6927,-0.691,0.0,0.0,0.0,0.0,0.0,0.0,0.0,0.0,0.0,0.0,0.0,0.0,0.0,0.0,0.0,0.0,0.0366,0.06,0.0627,0.1061,0.1296,0.1296,0.1296,0.1296,0.1296,0.1287,0.1318,0.1305,0.1376,0.1406,0.1391,0.1391,0.1391,0.1389,0.1407,0.1378,0.1304,0.1319,0.1288,0.1296,0.1296,0.1296,0.1296,0.1296,0.1296,0.1296,0.1296,0.1296,0.1296,0.1296,0.1296,0.1296,0.1296,0.1296,0.1296,0.1335,0.1257,0.1178,0.1178,0.1178,0.0785,-0.0784,-0.1214,-0.1723,0.0,0.0,-0.3802,-0.3802,-0.3802,-0.3802,-0.3802,-0.3802,-0.3802,-0.3802,-0.3832,-0.3887,-0.3897,-0.404,-0.4185,-0.4185,-0.4153,-0.4278,-0.4636,-0.4463,-0.4645,-0.5327,-0.5191,-0.528,-0.5688,-0.5831,-0.5885,-0.5885,-0.5991,-0.6051,-0.6064,-0.6064,-0.6072,-0.6086,-0.6086,-0.6086,-0.6086,-0.6086,-0.6086,-0.6131,-0.6253,-0.6341,-0.6435,-0.6939,-0.7095,-0.7031,-0.7255,-0.7261,-0.7095,-0.7078,-0.7071,-0.7068,0.0,0.0,0.0,0.0,0.0,0.0505,0.0067,0.0,0.0,0.0,0.0,0.0,0.0,0.0,0.0,0.0,0.0366,0.0602,0.0615,0.1053,0.1296,0.1296,0.1296,0.1296,0.1296,0.1287,0.1309,0.128,0.1309,0.1329,0.1341,0.1341,0.1341,0.134,0.1328,0.1307,0.128,0.1308,0.1285,0.1296,0.1296,0.1296,0.1296,0.1296,0.1296,0.1296,0.1296,0.1296,0.0,0.1296,0.1296,0.1296,0.1296,0.1296,0.1296,0.1296,0.1296,0.1296,0.1296,0.1296,0.0864,-0.0862,-0.1293,-0.1723,-0.3409,-0.3802,-0.3802,-0.3802,-0.3802,-0.3802,-0.3802,-0.3802,-0.3802,0.0,-0.384,-0.3918,-0.3971,-0.4091,-0.4235,-0.424,-0.4246,-0.4305,-0.4476,-0.4525,-0.4659,-0.4971,-0.5207,-0.5426,-0.5609,-0.5901,-0.601,-0.601,-0.6059,-0.6119,-0.624,-0.6192,-0.6225,-0.629,-0.629,-0.629,-0.629,-0.629,-0.6255,-0.624,-0.6285,-0.6384,-0.6408,-0.6643,-0.6898,-0.7127,-0.722,-0.7266,-0.7265,-0.7129,-0.7095,-0.7095,0.0,0.0,0.0,0.0,0.0,0.1377,0.0438,0.0135,0.0,0.0,0.0,0.0,0.0,0.0,0.0,0.0,0.0327,0.0522,0.0605,0.0963,0.1209,0.1296,0.1296,0.1296,0.1296,0.1319,0.1294,0.1303,0.1283,0.1298,0.1305,0.1305,0.1305,0.1305,0.1298,0.1282,0.1302,0.1294,0.1317,0.1296,0.1296,0.1296,0.1296,0.1296,0.1296,0.1296,0.1296,0.1296,0.1296,0.1296,0.1296,0.1296,0.1296,0.1296,0.1296,0.1296,0.1296,0.1296,0.1296,0.1296,0.0864,-0.0862,-0.1293,-0.1723,-0.3409,-0.3802,-0.3802,-0.3802,-0.3802,-0.3802,-0.3802,-0.3802,-0.3802,-0.3802,-0.3861,-0.3961,-0.3984,-0.4134,-0.423,-0.4291,-0.43,-0.43,-0.43,-0.448,-0.467,-0.4831,-0.5221,-0.5555,-0.5727,-0.6025,-0.6135,-0.6135,-0.6165,-0.6225,-0.6314,-0.6314,-0.6355,-0.6387,-0.6387,-0.6387,-0.6387,-0.6387,-0.6391,-0.6314,-0.6314,-0.636,-0.6415,-0.6466,-0.6733,-0.7032,-0.7178,-0.7279,-0.7326,-0.7264,-0.7169,-0.7095,0.0,0.0,0.0,0.0,0.0,0.2681,0.1276,0.0471,0.0,0.0,0.0,0.0,0.0,0.0,0.0,0.0,0.0176,0.0395,0.0604,0.0795,0.1035,0.1295,0.1296,0.1296,0.1296,0.1298,0.1312,0.1303,0.1303,0.1319,0.1305,0.1305,0.1305,0.1304,0.1317,0.1303,0.1301,0.1311,0.1297,0.1296,0.1296,0.1296,0.1296,0.1296,0.1296,0.1296,0.1296,0.1296,0.1296,0.1296,0.1296,0.1296,0.1296,0.1296,0.1296,0.1296,0.1296,0.1296,0.1296,0.1296,0.0864,-0.0862,-0.1293,-0.1723,-0.3409,-0.3802,-0.3802,-0.3802,-0.3802,-0.3802,-0.3802,-0.3802,-0.3802,-0.3802,-0.3914,-0.399,-0.3994,-0.4185,-0.4295,-0.43,-0.43,-0.43,0.0,-0.43,-0.4559,-0.5156,-0.5213,-0.5447,-0.6072,-0.6198,-0.6311,-0.6311,-0.6369,-0.6379,-0.6381,-0.6381,-0.6384,-0.6387,-0.6387,-0.6387,-0.6387,-0.6387,-0.6384,-0.6381,-0.6381,-0.6379,-0.6426,-0.6681,-0.6709,-0.6691,-0.7179,-0.7334,-0.7255,-0.749,-0.7397,-0.7095,0.0,0.0,0.0,0.0,0.0,0.0,0.2581,0.1478,0.0539,0.0067,0.0,0.0,0.0,0.0,0.0,0.0,0.0312,0.053,0.0611,0.0929,0.114,0.1226,0.1285,0.1296,0.1296,0.1296,0.1302,0.1312,0.1312,0.1318,0.1288,0.1288,0.1288,0.1287,0.1317,0.1312,0.1312,0.1301,0.1296,0.1296,0.1296,0.1296,0.1296,0.1296,0.1296,0.1296,0.0,0.1296,0.1296,0.1296,0.1296,0.1296,0.1296,0.1296,0.1296,0.1296,0.1296,0.1296,0.1296,0.1296,0.0864,-0.0862,-0.1293,-0.1723,-0.3409,-0.3802,-0.3802,-0.3802,-0.3802,-0.3802,-0.3802,-0.3802,-0.3802,-0.3802,-0.3916,-0.3994,-0.3994,-0.4187,-0.43,-0.43,-0.43,0.0,0.0,0.0,0.0,-0.4662,-0.5112,-0.5492,-0.5673,-0.6121,-0.638,-0.638,-0.6368,-0.6387,-0.6387,-0.6387,-0.6387,-0.6387,-0.6387,-0.6387,-0.6387,-0.6387,-0.6387,-0.6387,-0.6387,-0.6387,-0.6387,-0.6487,-0.6617,-0.6729,-0.6927,-0.7046,-0.7119,-0.7359,-0.7331,-0.7194,0.0,0.0,0.0,0.0,0.0,0.0,0.0,0.0,0.0,0.0,0.0,0.0,0.0,0.0,0.0,0.0,0.0,0.0451,0.0595,0.0832,0.104,0.1211,0.123,0.1285,0.1296,0.1296,0.1296,0.1296,0.1296,0.1296,0.1296,0.1296,0.1296,0.1296,0.1296,0.1296,0.1296,0.1296,0.1296,0.1296,0.1296,0.1296,0.1296,0.1296,0.1296,0.0,0.1296,0.1296,0.1296,0.1296,0.1296,0.1296,0.1296,0.1296,0.1296,0.1296,0.1296,0.1296,0.1296,0.1296,0.0864,-0.0862,-0.1293,-0.1723,-0.3409,-0.3802,-0.3802,-0.3802,-0.3802,-0.3802,-0.3802,-0.3802,-0.3812,-0.3845,-0.3938,-0.4004,-0.4079,-0.4208,-0.43,-0.43,-0.43,-0.4334,0.0,0.0,0.0,-0.4622,-0.5071,-0.5454,-0.5689,-0.6051,-0.6287,-0.6387,-0.6387,-0.6387,-0.6387,-0.6387,-0.6387,-0.6387,-0.6387,-0.6387,-0.6387,-0.6387,-0.6387,-0.6387,-0.6387,-0.6387,-0.6387,-0.6387,-0.6487,-0.6692,-0.6742,-0.6845,-0.6969,-0.7211,-0.7314,-0.7263,0.0,0.0,0.0,0.0,0.0,0.0,0.0,0.0,0.0,0.0,0.0,0.0,0.0,0.0,0.0,0.0,0.0,0.0,0.0558,0.063,0.0788,0.1167,0.121,0.1226,0.1293,0.1295,0.1296,0.1296,0.1296,0.1296,0.1296,0.1296,0.1296,0.1296,0.1335,0.1375,0.1375,0.1414,0.1414,0.1375,0.1375,0.1335,0.1296,0.1296,0.1296,0.1296,0.1296,0.1296,0.1296,0.1296,0.1296,0.1296,0.1296,0.1296,0.1296,0.1296,0.1296,0.1296,0.1296,0.1296,0.0864,-0.0862,-0.1293,-0.1723,-0.3409,-0.3802,-0.3802,-0.3802,-0.3802,-0.3802,0.0,0.0,-0.3831,-0.3879,-0.3973,-0.4025,-0.4155,-0.4242,-0.43,0.0,0.0,0.0,0.0,0.0,0.0,-0.5043,0.0,-0.5337,-0.5937,-0.5992,-0.6139,-0.6387,-0.6387,-0.6387,-0.6387,-0.6387,-0.6387,-0.6387,-0.6387,-0.6387,-0.6387,-0.6387,-0.6387,-0.6387,-0.6387,-0.6387,-0.6387,-0.6387,-0.6387,-0.6437,-0.6692,-0.6795,-0.6792,-0.7089,-0.7257,-0.7353,0.0,0.0,0.0,0.0,0.0,0.0,0.0,0.0,0.0,0.0,0.0,0.0,0.0,0.0,0.0,0.0,0.0,0.0,0.051,0.0797,0.1022,0.1107,0.1187,0.1215,0.1224,0.1284,0.1296,0.1296,0.1296,0.1296,0.1296,0.1296,0.1296,0.1335,0.1923,0.2198,0.2237,0.2898,0.2781,0.2198,0.2198,0.1846,0.1296,0.1296,0.1296,0.1296,0.1296,0.1296,0.1296,0.1296,0.1296,0.1296,0.1296,0.1296,0.1296,0.1296,0.1296,0.1296,0.1296,0.1296,0.0864,-0.0862,-0.1293,-0.1723,-0.3409,-0.3802,-0.3802,-0.3802,-0.3802,-0.3802,-0.3802,0.0,0.0,-0.3835,-0.3932,0.0,-0.4025,-0.4202,0.0,-0.43,0.0,-0.4363,-0.4522,-0.4559,0.0,0.0,-0.5053,-0.5313,-0.5687,-0.5889,-0.6139,-0.6387,-0.6387,-0.6387,-0.6387,-0.6387,-0.6387,-0.6387,-0.6387,-0.6387,-0.6387,-0.6387,-0.6387,-0.6387,-0.6387,-0.6387,-0.6387,-0.6387,-0.6387,-0.6387,-0.6487,-0.6487,-0.6539,-0.6792,-0.6921,-0.697,0.0,0.0,0.0,0.0,0.0,0.0,0.0,0.0,0.0,0.0,0.0,0.0,0.0,0.0,0.0,0.0,0.0,0.0,0.0,0.1771,0.1933,0.2063,0.18,0.1664,0.1664,0.142,0.1283,0.1296,0.1649,0.1846,0.1845,0.2235,0.2391,0.243,0.2859,0.3054,0.3093,0.3599,0.3521,0.0,0.0,0.2586,0.1846,0.1846,0.161,0.1296,0.1296,0.1296,0.1296,0.1296,0.1296,0.1296,0.1296,0.1296,0.1296,0.1296,0.1296,0.1296,0.1296,0.1296,0.0982,-0.0392,-0.1019,-0.1645,-0.294,-0.3528,-0.3802,-0.3802,-0.3802,-0.3802,-0.3802,-0.3802,-0.3816,0.0,0.0,0.0,-0.4085,-0.4181,-0.4257,0.0,-0.43,0.0,-0.4602,-0.4621,-0.4647,0.0,-0.4937,-0.5138,-0.5388,-0.5689,-0.5939,-0.6239,-0.6337,-0.6387,-0.6387,-0.6387,-0.6387,-0.6387,-0.6387,-0.6387,-0.6387,-0.6387,-0.6387,-0.6387,0.0,-0.6387,-0.6387,-0.6387,-0.6387,-0.6387,-0.6387,-0.6387,-0.6437,-0.6589,-0.6692,-0.6833,0.0,0.0,0.0,0.0,0.0,0.0,0.0,0.0,0.0,0.0,0.3892,0.3587,0.0,0.0,0.0,0.0,0.0,0.0,0.0,0.0,0.3048,0.3261,0.2686,0.2357,0.243,0.1809,0.153,0.1602,0.231,0.2666,0.2705,0.3443,0.3791,0.3791,0.3908,0.3949,0.3949,0.4066,0.4066,0.3949,0.3949,0.3443,0.2666,0.0,0.208,0.1453,0.1335,0.1296,0.1296,0.1296,0.1296,0.1296,0.1296,0.1296,0.1296,0.1296,0.1296,0.1296,0.1296,0.1296,0.1099,0.0235,-0.0587,-0.1371,-0.2275,-0.3098,-0.3645,-0.3763,-0.3802,-0.3802,-0.3802,-0.3802,-0.3828,-0.3869,0.0,-0.3959,-0.413,-0.4208,-0.4204,-0.4287,-0.43,-0.4371,-0.4602,-0.4621,-0.4647,-0.477,-0.4784,-0.4937,-0.519,-0.5438,-0.5737,-0.6042,-0.6287,-0.6387,-0.6387,-0.6387,-0.6387,-0.6387,-0.6387,-0.6387,-0.6387,-0.6387,-0.6387,-0.6387,-0.6387,-0.6387,-0.6387,-0.6387,-0.6387,-0.6387,-0.6387,-0.6387,-0.6387,-0.6387,-0.6539,-0.6742,0.0,0.0,0.0,0.0,0.0,0.0,0.0,0.0,0.0,0.0,0.4461,0.3992,0.0,0.0,0.0,0.0,0.0,0.0,0.0,0.0,0.0,0.3206,0.314,0.3122,0.3117,0.3104,0.3104,0.3118,0.3409,0.356,0.356,0.3713,0.3791,0.383,0.4494,0.4807,0.4846,0.5553,0.5434,0.4807,0.4807,0.43,0.3482,0.2784,0.0,0.0,0.1532,0.1296,0.1296,0.1296,0.1296,0.1296,0.1296,0.1296,0.1296,0.1296,0.1296,0.1296,0.1296,0.1296,0.1099,0.0235,-0.0117,-0.0627,-0.2156,-0.2627,0.0,-0.3645,-0.3802,-0.3802,-0.3802,-0.3802,-0.3808,-0.3824,-0.385,-0.3936,-0.4002,-0.4126,-0.4204,0.0,-0.43,-0.4371,-0.4602,-0.4621,0.0,0.0,-0.4784,-0.4937,-0.519,-0.5438,-0.5834,-0.6337,-0.6387,-0.6387,-0.6387,-0.6387,-0.6387,-0.6387,-0.6387,-0.6387,-0.6387,-0.6387,-0.6387,-0.6387,-0.6387,0.0,-0.6387,-0.6387,-0.6387,-0.6387,-0.6387,-0.6387,-0.6387,-0.6387,-0.6437,-0.6487,0.0,0.0,0.0,0.0,0.0,0.0,0.0,0.5087,0.5156,0.5362,0.4994,0.4761,0.4858,0.4486,0.4184,0.0,0.0,0.0,0.0,0.0,0.0,0.0,0.0,0.0,0.3804,0.3545,0.3396,0.3405,0.0,0.4332,0.4335,0.4856,0.5082,0.5121,0.5512,0.567,0.5709,0.6141,0.6064,0.567,0.567,0.516,0.4377,0.0,0.0,0.0,0.0,0.1923,0.1845,0.1453,0.1296,0.1296,0.1296,0.1296,0.1296,0.1296,0.1296,0.1296,0.1296,0.1296,0.1218,0.0785,0.0353,-0.0196,-0.1019,0.0,0.0,-0.294,-0.3136,-0.3255,-0.3724,-0.3802,-0.3802,-0.3802,-0.3839,-0.3861,-0.3952,-0.4042,-0.4134,-0.4224,-0.4273,-0.4371,-0.4602,-0.4621,-0.4647,-0.477,-0.4784,-0.4834,-0.4987,-0.5386,-0.5787,-0.6189,-0.6337,-0.6387,-0.6387,-0.6387,-0.6387,-0.6387,-0.6387,-0.6387,-0.6387,-0.6387,-0.6387,-0.6387,-0.6387,-0.6387,-0.6387,-0.6387,-0.6387,-0.6387,-0.6387,-0.6387,-0.6387,-0.6387,-0.6387,-0.6387,0.0,0.0,0.0,0.0,0.0,0.0,0.5123,0.5156,0.5223,0.5395,0.5395,0.5395,0.5395,0.5395,0.5395,0.0,0.0,0.0,0.0,0.0,0.0,0.0,0.0,0.0,0.0,0.0,0.0,0.3784,0.4614,0.0,0.0,0.0,0.0,0.0,0.6201,0.6201,0.6201,0.6201,0.6201,0.0,0.0,0.5775,0.0,0.0,0.0,0.0,0.0,0.0,0.2393,0.1571,0.1296,0.1296,0.1296,0.1296,0.1296,0.1296,0.1296,0.1296,0.1296,0.1296,0.1296,0.1296,0.0785,0.0235,0.0039,-0.0548,-0.1254,-0.2078,-0.2392,-0.2705,-0.3411,-0.3684,-0.3802,0.0,-0.3802,-0.3835,-0.3887,-0.3977,-0.4069,-0.4206,-0.4246,0.0,-0.4602,-0.4621,0.0,-0.477,-0.4582,-0.4583,-0.4885,-0.5286,-0.5687,-0.5992,-0.6189,-0.6337,-0.6387,-0.6187,-0.6034,-0.6034,-0.5834,-0.5732,-0.5732,-0.5732,-0.5732,-0.5732,-0.5732,-0.5732,-0.5732,-0.5732,-0.5732,-0.5732,-0.5732,-0.5732,-0.5732,-0.5732,-0.5732,-0.5732,0.0,0.0,0.0,0.0,0.0,0.0,0.5362,0.5362,0.5395,0.5395,0.5395,0.5395,0.5395,0.5395,0.5395,0.0,0.0,0.0,0.0,0.0,0.0,0.0,0.0,0.0,0.0,0.0,0.0,0.5398,0.561,0.0,0.0,0.0,0.0,0.0,0.0,0.5844,0.5844,0.5844,0.0,0.0,0.0,0.0,0.0,0.0,0.0,0.0,0.0,0.2511,0.2393,0.1571,0.1296,0.1296,0.1296,0.1296,0.1296,0.1296,0.0,0.0,0.1296,0.1296,0.1296,0.1296,0.1257,0.0981,0.0196,0.0,-0.0352,-0.1214,-0.1999,-0.2511,-0.2588,-0.3255,-0.3802,-0.3802,-0.3802,-0.3835,-0.3887,-0.3977,-0.4069,-0.4206,0.0,0.0,-0.4602,-0.4621,-0.4647,-0.477,-0.3879,-0.3879,-0.509,-0.519,-0.5491,-0.5992,-0.6042,-0.6139,-0.6387,-0.5436,-0.4935,-0.4935,-0.3977,-0.3475,-0.3475,-0.3475,-0.3475,-0.3475,-0.3475,-0.3475,0.0,-0.3475,-0.3475,-0.3475,-0.3475,-0.3475,-0.3475,-0.3475,-0.3475,-0.3626,0.0,0.0,0.0,0.0,0.0,0.0,0.5395,0.5395,0.5395,0.5395,0.5395,0.5395,0.5395,0.5395,0.5395,0.5395,0.0,0.0,0.0,0.0,0.0,0.0,0.0,0.0,0.0,0.0,0.5487,0.5487,0.5599,0.0,0.0,0.0,0.0,0.0,0.0,0.0,0.58,0.0,0.0,0.0,0.0,0.0,0.0,0.0,0.0,0.0,0.0,0.0,0.2998,0.2265,0.1689,0.1296,0.1296,0.1296,0.1296,0.0,0.1296,0.1296,0.1296,0.1296,0.1296,0.1296,0.1296,0.1218,0.0863,0.0,0.0549,-0.0353,-0.0784,-0.1175,-0.1685,-0.2077,-0.2311,-0.2311,-0.2311,0.0,-0.2978,-0.2669,-0.2782,-0.3958,-0.3731,0.0,0.0,0.0,-0.3432,-0.2913,-0.2469,-0.2469,-0.3022,-0.3172,-0.3371,-0.3571,-0.3925,-0.4126,-0.4225,-0.3976,-0.3827,-0.3827,-0.3224,-0.3021,-0.3173,-0.3021,-0.3071,-0.3224,-0.3224,-0.3224,0.0,-0.3224,-0.3224,-0.3224,-0.3224,-0.3224,-0.3224,-0.3224,-0.3224,-0.3274,0.0,0.0,0.0,0.0,0.0,0.562,0.5428,0.5395,0.5395,0.5395,0.5395,0.5395,0.5395,0.5395,0.5395,0.5395,0.5395,0.0,0.0,0.0,0.0,0.0,0.0,0.0,0.0,0.0,0.5395,0.5395,0.5501,0.5556,0.0,0.0,0.0,0.0,0.0,0.0,0.0,0.0,0.0,0.0,0.0,0.0,0.0,0.0,0.0,0.0,0.0,0.0,0.0,0.0,0.0,0.1556,0.1372,0.0,0.0,0.0,0.1296,0.1296,0.1296,0.1296,0.1296,0.1296,0.1296,0.1296,0.1296,0.0,0.1139,0.051,0.0196,-0.0196,-0.0784,-0.1136,-0.1293,0.0,0.0,-0.1489,-0.2078,-0.1674,-0.1764,-0.3067,0.0,-0.2483,0.0,-0.26,-0.2335,-0.166,-0.131,-0.1109,-0.1109,-0.1007,-0.1258,-0.1962,-0.2365,-0.2618,-0.282,-0.2669,-0.262,-0.262,-0.2116,-0.1914,-0.2016,-0.1914,-0.1965,-0.2116,-0.2217,-0.2267,0.0,-0.2267,-0.2267,-0.2267,-0.2267,-0.2267,-0.2267,-0.2267,-0.2267,-0.2318,0.0,0.0,0.0,0.0,0.0,0.6174,0.5491,0.5395,0.5395,0.5395,0.5395,0.5395,0.5395,0.5395,0.5395,0.5395,0.5395,0.0,0.0,0.0,0.0,0.0,0.0,0.0,0.0,0.0,0.5395,0.5395,0.5395,0.5395,0.5395,0.5399,0.5399,0.5399,0.0,0.0,0.0,0.0,0.0,0.0,0.0,0.0,0.0,0.0,0.0,0.0,0.0,0.0,0.0,0.0,0.0,0.0,0.0,0.1296,0.1296,0.1296,0.1296,0.1296,0.1296,0.1296,0.1296,0.1296,0.1296,0.1296,0.1296,0.1296,0.1296,0.1296,0.0588,0.0,0.0,-0.0705,-0.1293,-0.1293,-0.1293,0.0,-0.1293,-0.1306,-0.1302,0.0,0.0,-0.1489,-0.1613,-0.1676,-0.1679,-0.1611,-0.0605,0.0,0.0,0.1009,0.0454,-0.1912,-0.2013,-0.2265,-0.282,-0.1764,-0.121,-0.121,-0.0151,0.0505,0.0758,0.0505,0.0354,0.0354,0.0101,-0.0051,0.0,-0.0051,-0.0051,-0.0051,-0.0051,-0.0051,-0.0051,-0.0051,-0.0051,-0.0202,0.0,0.0,0.0,0.0,0.0,0.0,0.6798,0.6371,0.6075,0.6075,0.5686,0.5395,0.5395,0.5395,0.5395,0.5395,0.5395,0.0,0.0,0.0,0.0,0.0,0.0,0.0,0.0,0.5395,0.5395,0.5395,0.5395,0.5395,0.5395,0.5395,0.5458,0.5521,0.5425,0.0,0.0,0.0,0.0,0.0,0.0,0.0,0.0,0.0,0.0,0.0,0.0,0.0,0.0,0.0,0.0,0.0,0.0,0.0,0.0,0.1296,0.1296,0.1296,0.1296,0.1296,0.1296,0.1296,0.1296,0.1296,0.1296,0.1296,0.1296,0.1296,0.1099,0.0903,0.0903,0.0667,0.0471,0.0471,0.0471,0.0,0.0,0.0,0.0,-0.1177,-0.0786,-0.0454,0.0,0.0,0.0536,0.0604,0.0908,0.1111,0.1111,0.1414,0.1262,0.0504,0.0303,0.0101,-0.005,0.0101,0.0151,0.0151,0.0707,0.0909,0.0808,0.0909,0.0758,0.0404,0.0303,0.0152,0.0,0.0,0.0,0.0,0.0,0.0,0.0,0.0,0.0,-0.0051,0.0,0.0,0.0,0.0,0.0,0.0,0.7451,0.7055,0.6793,0.6793,0.6207,0.5785,0.5785,0.5785,0.5785,0.5785,0.5785,0.0,0.0,0.0,0.0,0.0,0.0,0.0,0.5488,0.5491,0.5524,0.5594,0.5594,0.5594,0.5594,0.5594,0.5624,0.5719,0.5624,0.5624,0.0,0.0,0.0,0.0,0.0,0.0,0.5395,0.0,0.0,0.0,0.0,0.0,0.0,0.0,0.0,0.0,0.0,0.0,0.0,0.0,0.1296,0.1296,0.1296,0.1296,0.1296,0.1296,0.1296,0.1296,0.1296,0.1296,0.1296,0.1296,0.1296,0.1296,0.1296,0.1296,0.1296,0.1296,0.1296,0.0,0.0,0.0,0.0,-0.0172,0.0,0.0,0.0,0.1144,0.1551,0.1612,0.1617,0.1617,0.1617,0.1617,0.1617,0.1617,0.1415,0.1313,0.1212,0.101,0.096,0.096,0.1111,0.1162,0.1111,0.1162,0.101,0.0707,0.0606,0.0404,0.0,0.0152,0.0101,0.0,0.0,0.0,0.0,0.0,0.0,0.0,0.0,0.0,0.0,0.0,0.0,0.0,0.0,0.7517,0.7484,0.7484,0.6892,0.6465,0.6465,0.6465,0.6465,0.6465,0.6465,0.0,0.0,0.0,0.0,0.0,0.0,0.0,0.5745,0.5778,0.5848,0.5954,0.5954,0.5954,0.5888,0.5888,0.5925,0.5921,0.5892,0.5888,0.5888,0.5686,0.5617,0.5583,0.5458,0.5395,0.0,0.0,0.0,0.0,0.0,0.0,0.0,0.0,0.0,0.0,0.0,0.0,0.0,0.0,0.0,0.0,0.0,0.1296,0.1296,0.1296,0.1296,0.1296,0.1296,0.1296,0.0,0.1296,0.1296,0.1296,0.1296,0.1296,0.1296,0.1296,0.1296,0.0,0.0,0.1309,0.0,0.0,0.1391,0.0,0.1473,0.1478,0.1551,0.1612,0.1617,0.1617,0.1617,0.1617,0.1617,0.1617,0.1617,0.1465,0.1212,0.1212,0.1212,0.1212,0.1212,0.1364,0.1617,0.1364,0.1212,0.0,0.096,0.0,0.0,0.0404,0.0253,0.0051,0.0051,0.0,0.0,0.0,0.0,0.0,0.0,0.0,0.0,0.0,0.0,0.0,0.0,0.0,0.0,0.0,0.7609,0.7158,0.7158,0.7158,0.7158,0.0,0.0,0.0,0.0,0.0,0.0,0.0,0.0,0.0,0.7186,0.7344,0.7181,0.6666,0.6666,0.6408,0.5888,0.5888,0.5987,0.6115,0.5954,0.5888,0.5888,0.5855,0.5752,0.5583,0.555,0.5488,0.0,0.0,0.0,0.0,0.5395,0.5395,0.0,0.0,0.0,0.0,0.0,0.0,0.0,0.0,0.1296,0.1296,0.1296,0.0,0.1296,0.1296,0.1296,0.1296,0.0,0.1296,0.1296,0.0,0.1296,0.0,0.1296,0.1296,0.1296,0.1296,0.0,0.1296,0.1296,0.0,0.0,0.1383,0.1391,0.1413,0.1473,0.1478,0.1551,0.1612,0.1617,0.1617,0.1617,0.1617,0.1617,0.1617,0.1617,0.1566,0.1516,0.1516,0.1516,0.1516,0.1516,0.1516,0.1617,0.1516,0.1415,0.1212,0.1111,0.0,0.0707,0.0707,0.0556,0.0303,0.0303,0.0202,0.0,0.0,0.0,0.0,0.0,0.0,0.0,0.0,0.0,0.0,0.0,0.0,0.0,0.0,0.8333,0.7907,0.7907,0.7907,0.7907,0.0,0.0,0.0,0.0,0.0,0.0,0.0,0.0,0.7409,0.7907,0.7735,0.7479,0.719,0.6835,0.6478,0.6119,0.6119,0.6185,0.628,0.6185,0.6119,0.6119,0.6053,0.5984,0.5881,0.5785,0.0,0.0,0.0,0.0,0.0,0.5521,0.5488,0.0,0.5488,0.4733,0.3753,0.0,0.0,0.0,0.0,0.1556,0.1296,0.1296,0.1296,0.1296,0.1296,0.1296,0.1296,0.1296,0.1296,0.1296,0.0,0.1296,0.0,0.0,0.1296,0.1296,0.0,0.1296,0.0,0.0,0.0,0.1327,0.1383,0.1391,0.1413,0.0,0.1478,0.1551,0.1612,0.1617,0.1617,0.1617,0.1617,0.1617,0.1617,0.1617,0.1617,0.1617,0.1617,0.1617,0.1617,0.1617,0.1617,0.1617,0.1617,0.1516,0.1364,0.1364,0.0,0.096,0.096,0.0808,0.0556,0.0455,0.0303,0.0152,0.0051,0.0,0.0,0.0,0.0,0.0,0.0,0.0,0.0,0.0,0.0,0.0,0.0,0.0,0.0,0.0,0.0,0.0,0.0,0.0,0.0,0.0,0.0,0.0,0.0,0.7999,0.8134,0.8522,0.7897,0.7572,0.7652,0.6937,0.6515,0.6387,0.6387,0.6387,0.6387,0.6387,0.6387,0.6387,0.628,0.6214,0.6178,0.602,0.0,0.0,0.0,0.0,0.0,0.0,0.0,0.0,0.5617,0.505,0.4342,0.4325,0.0,0.0,0.0,0.0,0.0,0.1532,0.1492,0.1453,0.1335,0.1296,0.1296,0.1296,0.1296,0.0,0.0,0.0,0.0,0.0,0.1296,0.0,0.0,0.0,0.0,0.1298,0.1309,0.1331,0.1384,0.1391,0.0,0.1473,0.1478,0.1551,0.1612,0.1617,0.1617,0.1617,0.1617,0.1617,0.1617,0.1617,0.1617,0.1617,0.1617,0.1617,0.1617,0.1617,0.1617,0.1617,0.1617,0.1617,0.1617,0.0,0.0,0.1263,0.1263,0.1111,0.0859,0.0606,0.0455,0.0354,0.0152,0.0051,0.0,0.0,0.0,0.0,0.0,0.0,0.0,0.0,0.0,0.0,0.0,0.0,0.0,0.0,0.0,0.0,0.0,0.0,0.0,0.0,0.0,0.0,0.9881,0.9364,0.9338,0.9951,0.9422,0.8871,0.8361,0.7652,0.7003,0.6387,0.6387,0.6387,0.6387,0.6387,0.6387,0.6387,0.6383,0.6317,0.621,0.6181,0.0,0.0,0.0,0.0,0.0,0.0,0.0,0.0,0.565,0.512,0.4512,0.4362,0.0,0.0,0.0,0.0,0.0,0.251,0.2315,0.2158,0.1453,0.1296,0.1296,0.1296,0.1296,0.1296,0.0,0.0,0.0,0.0,0.1296,0.1296,0.0,0.0,0.1308,0.0,0.0,0.1397,0.1386,0.0,0.1413,0.1473,0.1478,0.1551,0.1612,0.1617,0.1617,0.1617,0.1617,0.1617,0.1617,0.1617,0.1617,0.1617,0.1617,0.1617,0.1617,0.1617,0.1617,0.1617,0.1617,0.1617,0.1617,0.0,0.1566,0.1516,0.1516,0.1364,0.1111,0.1111,0.0808,0.0404,0.0354,0.0202,0.0,0.0,0.0,0.0,0.0,0.0,0.0,0.0,0.0,0.0,0.0,0.0,0.0,0.0,0.0,0.0,0.0,0.0,0.0,0.0,0.0,1.0371,1.0466,1.0174,1.0142,1.0466,0.9843,0.9166,0.849,0.7814,0.7134,0.6387,0.6387,0.6387,0.6387,0.6387,0.6387,0.6387,0.6387,0.635,0.6317,0.0,0.0,0.0,0.0,0.0,0.0,0.0,0.0,0.0,0.0,0.5583,0.513,0.5026,0.0,0.0,0.0,0.0,0.0,0.2743,0.2511,0.2315,0.1492,0.1296,0.1296,0.1296,0.1296,0.1296,0.0,0.0,0.0,0.0,0.0,0.1296,0.1296,0.0,0.1313,0.1302,0.1372,0.1401,0.0,0.0,0.1407,0.1497,0.1516,0.1545,0.1589,0.1607,0.1617,0.1617,0.1617,0.1617,0.1617,0.1617,0.1617,0.1617,0.1617,0.1617,0.1617,0.1617,0.1617,0.1617,0.1617,0.1617,0.1617,0.0,0.1617,0.1617,0.1617,0.1516,0.1415,0.1263,0.1061,0.0808,0.0505,0.0253,0.0,0.0,0.0,0.0,0.0,0.0,0.0,0.0,0.0,0.0,0.0,0.0,0.0,0.0,0.0,0.0,0.0,0.0,0.0,0.0,1.0498,1.0593,1.0593,1.0593,1.0593,1.0593,0.9875,0.9262,0.8748,0.8069,0.7456,0.6905,0.6905,0.6905,0.6872,0.6745,0.6646,0.6646,0.6482,0.6387,0.6387,0.0,0.0,0.0,0.0,0.0,0.0,0.0,0.0,0.0,0.0,0.0,0.0,0.0,0.0,0.0,0.4903,0.463,0.4183,0.3329,0.3095,0.2899,0.2079,0.157,0.1296,0.1296,0.1296,0.1296,0.1296,0.0,0.0,0.0,0.1296,0.0,0.1306,0.1294,0.1324,0.1311,0.1382,0.1409,0.1387,0.1391,0.1447,0.1478,0.1502,0.1531,0.1617,0.1593,0.1609,0.1616,0.1617,0.1617,0.1617,0.1617,0.1617,0.1617,0.1617,0.1617,0.1617,0.1617,0.1617,0.1617,0.1617,0.1617,0.1617,0.1617,0.1617,0.1617,0.1617,0.1617,0.1566,0.1364,0.1263,0.1162,0.0657,0.0354,0.0202,0.0,0.0,0.0,0.0,0.0,0.0,0.0,0.0,0.0,0.0,0.0,0.0,0.0,0.0,0.0,0.0,0.0,0.0,0.0,1.0593,1.0593,1.0593,1.0593,1.0593,1.0593,0.9875,0.9486,0.9422,0.8748,0.8393,0.8361,0.8361,0.8361,0.8328,0.7684,0.7423,0.7391,0.6679,0.6387,0.6387,0.6387,0.0,0.0,0.0,0.0,0.0,0.0,0.0,0.0,0.0,0.0,0.0,0.0,0.0,0.595,0.5767,0.5905,0.5944,0.5043,0.4807,0.4613,0.383,0.2468,0.1296,0.1296,0.1296,0.1296,0.1296,0.0,0.0,0.0,0.1296,0.1306,0.1294,0.1284,0.1312,0.1383,0.0,0.1388,0.139,0.1391,0.1447,0.1478,0.1483,0.1508,0.1616,0.1623,0.1587,0.1615,0.1617,0.1617,0.1617,0.1617,0.1617,0.1617,0.1617,0.1617,0.1617,0.1617,0.1617,0.1617,0.1617,0.1617,0.1617,0.1617,0.1617,0.1617,0.1617,0.1617,0.1617,0.1566,0.1415,0.1162,0.0859,0.0758,0.0707,0.0,0.0,0.0,0.0,0.0,0.0,0.0,0.0,0.0,0.0,0.0,0.0,0.0,0.0,0.0,0.0,0.0,0.0,0.0,1.0593,1.0593,1.0593,1.0593,1.0593,1.0593,1.0333,0.997,0.9486,0.8844,0.849,0.849,0.849,0.849,0.849,0.8231,0.8134,0.8069,0.7391,0.7101,0.7036,0.6581,0.6387,0.0,0.0,0.0,0.0,0.0,0.0,0.0,0.0,0.628,0.6178,0.6013,0.6108,0.6273,0.6197,0.6314,0.6289,0.5428,0.5079,0.4807,0.3986,0.3326,0.2857,0.2857,0.243,0.2041,0.2041,0.1649,0.0,0.0,0.0,0.1307,0.1298,0.1286,0.1315,0.1386,0.1416,0.1391,0.1391,0.1391,0.1395,0.1451,0.147,0.149,0.1513,0.1533,0.1549,0.156,0.156,0.156,0.156,0.156,0.156,0.156,0.1579,0.1589,0.1589,0.1608,0.1617,0.1617,0.1617,0.1617,0.1617,0.1617,0.1617,0.1617,0.1617,0.1617,0.1617,0.1617,0.1415,0.1212,0.1061,0.096,0.0808,0.0,0.0,0.0,0.0,0.0,0.0,0.0,0.0,0.0,0.0,0.0,0.0,0.0,0.0,0.0,0.0,0.0,0.0,1.0593,1.0593,1.0593,1.0593,1.0593,1.0593,1.0593,1.0593,1.0364,0.9843,0.939,0.9166,0.9166,0.9166,0.9166,0.9166,0.8909,0.8812,0.878,0.8102,0.7814,0.7782,0.726,0.7064,0.0,0.0,0.0,0.0,0.0,0.0,0.0,0.0,0.635,0.6247,0.6214,0.6317,0.6452,0.6412,0.6537,0.6556,0.5967,0.5661,0.5389,0.488,0.0,0.0,0.4688,0.3754,0.2899,0.2899,0.2469,0.2,0.1727,0.0,0.0,0.0,0.1292,0.1319,0.1399,0.1422,0.1391,0.1391,0.1391,0.1391,0.1391,0.1454,0.147,0.148,0.15,0.1516,0.1478,0.1478,0.1478,0.1478,0.1478,0.1478,0.1478,0.1547,0.1557,0.1558,0.1578,0.1598,0.1617,0.1617,0.1617,0.1617,0.1617,0.1617,0.1617,0.1617,0.1617,0.1617,0.1617,0.1465,0.1314,0.1314,0.1208,0.1051,0.0,0.0,0.0,0.0,0.0,0.0,0.0,0.0,1.2235,1.1608,1.0996,0.0,0.0,0.0,0.0,0.0,0.0,0.0,1.0624,1.0624,1.0624,1.0624,1.0593,1.0593,1.0593,1.0593,1.0593,1.0593,1.0593,1.0593,1.0593,1.0593,1.0593,1.0561,0.9843,0.9518,0.9454,0.8812,0.8522,0.8522,0.849,0.849,0.849,0.0,0.0,0.0,0.0,0.0,0.0,0.0,0.642,0.6383,0.6247,0.6386,0.6599,0.6448,0.6645,0.6903,0.6903,0.6753,0.6637,0.6865,0.0,0.0,0.6602,0.5154,0.383,0.3791,0.3791,0.3521,0.2666,0.2511,0.0,0.1463,0.1305,0.1326,0.1427,0.1436,0.1436,0.1436,0.1436,0.1436,0.1436,0.1436,0.1448,0.1524,0.1527,0.1493,0.1476,0.1478,0.1478,0.1478,0.1478,0.1478,0.1478,0.1478,0.1478,0.1478,0.1478,0.1558,0.1616,0.1616,0.1616,0.1616,0.1616,0.1616,0.1616,0.1616,0.1616,0.1616,0.1616,0.1616,0.1616,0.1616,0.1597,0.1571,0.0,0.0,0.0,0.0,0.0,0.0,0.0,0.0,1.1872,1.2182,1.1632,0.0,0.0,0.0,0.0,0.0,0.0,0.0,1.1264,1.124,1.124,1.124,1.0839,1.0593,1.0593,1.0593,1.0593,1.0593,1.0593,1.0593,1.0593,1.0593,1.0593,1.0593,1.0364,1.0269,1.0231,0.9518,0.9198,0.9166,0.8683,0.849,0.849,0.0,0.0,0.0,0.0,0.0,0.0,0.0,0.0,0.0,0.6675,0.6899,0.7477,0.6984,0.6945,0.7103,0.7103,0.6984,0.0,0.6899,0.0,0.0,0.0,0.5812,0.0,0.0,0.3791,0.3713,0.3443,0.3491,0.0,0.3258,0.2723,0.2605,0.3341,0.2865,0.2686,0.3353,0.3443,0.3443,0.3443,0.2865,0.2471,0.2486,0.181,0.1453,0.1416,0.1416,0.1416,0.1416,0.1416,0.1416,0.1416,0.1483,0.1494,0.1494,0.1516,0.1488,0.1553,0.1553,0.1553,0.1553,0.1553,0.1553,0.1553,0.1553,0.1553,0.1553,0.1553,0.1553,0.1553,0.1553,0.1547,0.154,0.0,0.0,0.0,0.0,0.0,0.0,0.0,0.0,1.2436,1.2856,1.2305,1.2058,0.0,0.0,0.0,0.0,0.0,0.0,1.1903,1.1911,1.1787,1.1514,1.1146,1.0839,1.0624,1.0593,1.0593,1.0593,1.0593,1.0593,1.0593,1.0593,1.0593,1.0593,1.0593,1.0593,1.0561,1.0136,0.9939,0.9907,0.9486,0.9326,0.9326,0.0,0.0,0.0,0.0,0.0,0.0,0.0,0.0,0.0,0.7489,0.757,0.7934,0.7513,0.7352,0.7334,0.7334,0.7176,0.0,0.7134,0.7096,0.7022,0.7022,0.0,0.0,0.0,0.4807,0.4691,0.4338,0.4386,0.0,0.4051,0.3631,0.3578,0.4231,0.3801,0.3712,0.4334,0.4334,0.4334,0.4423,0.3846,0.3491,0.358,0.2999,0.273,0.2818,0.2818,0.2818,0.2818,0.273,0.2686,0.2686,0.2629,0.26,0.2601,0.2634,0.2603,0.2604,0.1846,0.1478,0.1478,0.1478,0.1478,0.1478,0.1478,0.1478,0.1478,0.1478,0.1478,0.1478,0.1478,0.1519,0.1508,0.0,0.0,1.4515,1.4515,0.0,0.0,0.0,0.0,1.3511,1.3571,1.3009,1.2604,0.0,0.0,0.0,0.0,0.0,0.0,0.0,1.2604,1.2297,1.1608,1.1483,1.1146,1.0624,1.0593,1.0593,1.0593,1.0593,1.0593,1.0593,1.0593,1.0593,1.0593,1.0593,1.0593,1.0593,1.0593,1.0593,1.0593,1.0593,1.0593,1.0593,1.0593,0.0,0.0,0.0,0.0,0.0,0.0,0.0,0.0,0.8554,0.8309,0.8075,0.8,0.7749,0.7484,0.7484,0.7369,0.7257,0.7446,0.7373,0.0,0.7223,0.6911,0.6602,0.6377,0.0,0.6064,0.5279,0.526,0.5143,0.4386,0.4308,0.4444,0.4585,0.4554,0.4601,0.487,0.4734,0.469,0.487,0.4645,0.4554,0.4736,0.4692,0.4734,0.4996,0.4999,0.4999,0.4999,0.4779,0.4648,0.4648,0.4467,0.4376,0.4376,0.4334,0.4334,0.4293,0.2468,0.1565,0.147,0.147,0.147,0.147,0.147,0.147,0.147,0.147,0.147,0.147,0.147,0.15,0.1476,0.0,0.0,1.4515,1.4515,0.0,0.0,0.0,0.0,0.0,1.4228,0.0,0.0,0.0,0.0,0.0,0.0,0.0,0.0,0.0,1.329,1.2978,1.2297,1.1327,1.0713,1.0593,1.0593,1.0593,1.0593,1.0593,1.0593,1.0593,1.0593,1.0593,1.0593,1.0593,1.0593,1.0593,1.0593,1.0593,1.0593,1.0593,1.0593,1.0593,1.0593,1.0593,0.0,0.0,0.0,0.0,0.0,0.0,0.0,0.8844,0.8645,0.8669,0.8141,0.7749,0.7484,0.7484,0.7484,0.0,0.7484,0.7484,0.7411,0.7219,0.7142,0.6949,0.6602,0.6525,0.6447,0.6103,0.6376,0.6559,0.6175,0.5927,0.601,0.6722,0.6334,0.6239,0.7095,0.7139,0.7139,0.7183,0.6419,0.5971,0.6015,0.5309,0.4954,0.4996,0.4999,0.4999,0.4999,0.4954,0.491,0.491,0.4865,0.4865,0.0,0.4645,0.4645,0.4776,0.3297,0.218,0.1409,0.1409,0.1409,0.1409,0.1409,0.1409,0.1409,0.1409,0.1409,0.1409,0.1409,0.1405,0.14,0.0,0.0,0.0,0.0,0.0,0.0,0.0,0.0,0.0,0.0,0.0,0.0,0.0,0.0,0.0,0.0,0.0,0.0,0.0,0.0,1.3773,1.31,1.2212,1.1577,1.1185,1.1545,1.16,1.1257,1.1257,1.1045,1.0593,1.0593,1.0593,1.0593,1.0593,1.0593,1.06,1.0836,1.0865,1.0801,1.0955,1.0955,1.0877,1.0735,1.0744,1.0846,1.0713,0.0,0.0,0.0,0.0,0.0,0.0,0.0,0.9509,0.9265,0.8947,0.8575,0.8165,0.0,0.0,0.7599,0.0,0.7484,0.7369,0.7257,0.7142,0.6949,0.6791,0.6714,0.6602,0.6885,0.709,0.7049,0.6947,0.7052,0.761,0.736,0.7356,0.7981,0.794,0.7944,0.8028,0.7489,0.7177,0.7261,0.6817,0.6596,0.6732,0.6732,0.6732,0.6732,0.6596,0.6552,0.6552,0.6422,0.6378,0.6378,0.6248,0.598,0.5617,0.4334,0.3444,0.2908,0.2819,0.2774,0.2774,0.2285,0.2107,0.2062,0.1569,0.1391,0.1391,0.1391,0.1391,0.1391,0.0,0.0,0.0,0.0,0.0,0.0,0.0,0.0,0.0,0.0,0.0,0.0,0.0,0.0,0.0,0.0,0.0,0.0,0.0,0.0,0.0,1.3773,1.3282,1.2681,1.2011,1.265,1.2726,1.2166,1.2166,1.171,1.0807,1.0688,1.0681,1.0744,1.0656,1.0651,1.0744,1.1091,1.1187,1.1135,1.1393,1.1393,1.1201,1.1021,1.106,1.1188,1.1053,1.109,1.1143,1.0978,0.0,0.0,0.0,0.0,1.0355,1.0494,1.0288,0.9857,0.915,0.0,0.8699,0.7902,0.771,0.0,0.7522,0.7369,0.7257,0.7257,0.7099,0.6942,0.6903,0.7055,0.7205,0.7338,0.7514,0.7704,0.7831,0.7924,0.803,0.8201,0.8101,0.8072,0.8248,0.8116,0.8076,0.8245,0.8288,0.838,0.8568,0.8612,0.8612,0.8612,0.8384,0.8288,0.8288,0.812,0.8032,0.8032,0.8032,0.758,0.6681,0.5667,0.5003,0.4648,0.4423,0.4334,0.4289,0.3491,0.3135,0.3045,0.224,0.1882,0.1882,0.1882,0.1792,0.1659,0.0,0.0,0.0,0.0,0.0,0.0,0.0,0.0,0.0,0.0,1.4941,1.4911,0.0,0.0,0.0,0.0,0.0,0.0,1.5,0.0,0.0,1.3965,1.3342,1.2948,1.2826,1.2948,1.2948,1.2879,1.2879,1.2451,1.1624,1.1045,1.0989,1.1358,1.0839,1.083,1.1204,1.1074,1.1276,1.1608,1.1472,1.1404,1.1397,1.1526,1.1614,1.1648,1.1789,1.1682,1.1451,1.1418,1.1244,0.0,0.0,0.0,1.0736,1.0736,1.0611,1.0378,1.0078,0.0,0.9561,0.0,0.8551,0.836,0.0,0.0,0.7446,0.0,0.7296,0.7103,0.6942,0.7192,0.7383,0.7162,0.7492,0.7769,0.7733,0.8016,0.8239,0.8282,0.8423,0.852,0.8564,0.852,0.852,0.8564,0.8564,0.8564,0.8612,0.8612,0.8612,0.8612,0.8564,0.8564,0.8564,0.852,0.852,0.852,0.852,0.8296,0.7977,0.7797,0.6684,0.491,0.469,0.4559,0.4559,0.4245,0.4111,0.4111,0.3978,0.3933,0.3933,0.3933,0.34,0.2688,0.0,0.0,0.0,0.0,0.0,0.0,0.0,0.0,0.0,0.0,0.0,1.5,0.0,0.0,0.0,1.5098,1.5039,1.5029,1.5098,1.4913,1.4756,1.4686,1.446,1.4115,1.3666,1.4115,1.4183,1.3833,1.3833,1.3545,1.3023,1.2081,1.1445,1.1115,1.0839,1.0971,1.143,1.1503,1.1717,1.1991,1.1984,1.1949,1.1929,1.1765,1.1874,1.2146,1.2044,1.2027,1.204,1.1973,1.1855,1.1774,1.1774,0.0,0.0,0.0,1.1856,1.1694,1.1062,1.0496,0.9965,0.0,0.9372,0.9296,0.8917,0.8841,0.8841,0.8841,0.8432,0.7863,0.7326,0.7365,0.7502,0.749,0.768,0.7821,0.7869,0.8002,0.8134,0.8134,0.8207,0.8256,0.8256,0.8256,0.8256,0.8256,0.8353,0.841,0.841,0.8555,0.8612,0.8612,0.8612,0.8612,0.8612,0.8612,0.8612,0.8612,0.8612,0.852,0.8428,0.8428,0.7845,0.6773,0.6558,0.6428,0.6381,0.5625,0.5312,0.5223,0.4554,0.4289,0.4289,0.4289,0.4022,0.3667,0.0,0.0,0.0,0.0,0.0,0.0,0.0,0.0,0.0,0.0,0.0,0.0,0.0,0.0,0.0,0.0,1.5167,1.5137,1.5235,1.5332,1.5362,1.5264,1.5362,1.5108,1.451,1.5079,1.5177,1.4736,1.4736,1.449,1.3965,1.3144,1.2266,1.1358,1.117,1.1379,1.1855,1.2105,1.2254,1.2339,1.2486,1.2514,1.2486,1.2193,1.2318,1.2664,1.2456,1.2475,1.2609,1.2514,1.2422,1.2357,1.2357,1.2419,0.0,0.0,0.0,1.2686,0.0,0.0,1.0795,1.0458,1.0346,1.0308,0.0,0.0,0.9965,0.0,0.9448,0.8808,0.8237,0.7787,0.7567,0.7706,0.7731,0.7775,0.7862,0.7918,0.7951,0.7951,0.7988,0.8012,0.8012,0.8012,0.8012,0.8012,0.8142,0.8219,0.8219,0.8353,0.8426,0.8426,0.8426,0.8494,0.8539,0.8588,0.8612,0.8612,0.8612,0.8612,0.8612,0.8612,0.8476,0.8292,0.8072,0.7984,0.7896,0.6959,0.6558,0.647,0.5492,0.5134,0.509,0.5045,0.4868,0.4645,0.0,0.0,0.0,0.0,0.0,0.0,0.0,0.0,0.0,0.0,0.0,0.0,1.5391,1.5391,1.5381,1.5381,1.5381,1.5381,1.5381,1.541,1.541,1.5381,1.541,0.0,1.5352,1.5381,1.5381,1.5352,1.5352,1.4903,1.3995,1.4055,1.3666,1.2856,1.2235,1.2234,1.2747,1.2808,1.2782,1.2678,1.2832,1.2872,1.2872,1.3077,1.315,1.3186,1.3375,1.3243,1.2987,1.2987,1.2747,1.2492,1.2492,1.2499,1.2514,0.0,0.0,0.0,0.0,1.2936,0.0,1.1818,1.1595,1.1403,0.0,0.0,1.019,1.019,1.0008,0.982,0.9782,0.8537,0.7484,0.7496,0.7496,0.75,0.7508,0.7702,0.7812,0.7812,0.7914,0.8012,0.8012,0.8012,0.8012,0.8012,0.802,0.8028,0.8028,0.8036,0.8044,0.8044,0.8044,0.8126,0.8304,0.8522,0.8612,0.8612,0.8612,0.8612,0.8612,0.8612,0.8612,0.8564,0.8292,0.8201,0.8157,0.7896,0.7808,0.7764,0.7459,0.7326,0.7282,0.7054,0.6384,0.563,0.0,0.0,0.0,0.0,0.0,0.0,0.0,0.0,0.0,0.0,0.0,0.0,0.0,1.541,1.541,1.541,1.541,1.541,1.541,1.541,1.541,1.541,1.541,1.541,1.541,1.541,1.541,1.541,1.541,1.4962,1.4115,1.4312,1.4163,1.3726,1.3061,1.2827,1.2932,1.3047,1.3225,1.3402,1.3554,1.4006,1.4573,1.4502,1.4609,1.4788,1.4796,1.4466,0.0,0.0,1.362,1.3148,1.3148,1.3001,1.2797,1.255,1.2531,1.2579,0.0,0.0,0.0,1.2233,1.231,1.2372,1.2107,1.199,1.1922,1.1922,1.1471,1.1062,1.1062,0.997,0.9026,0.9026,0.9026,0.8841,0.8356,0.8347,0.8198,0.7659,0.7634,0.7675,0.7675,0.7675,0.7675,0.7675,0.0,0.789,0.789,0.7955,0.8012,0.8012,0.8012,0.8044,0.8109,0.8178,0.8272,0.839,0.839,0.8494,0.8612,0.8612,0.8612,0.8612,0.852,0.8472,0.8428,0.8204,0.8116,0.8069,0.7856,0.7635,0.7507,0.737,0.7054,0.6605,0.0,0.0,0.0,0.0,0.0,1.5997,1.5997,1.5661,1.541,1.541,0.0,0.0,0.0,0.0,1.5767,1.5997,1.5633,1.5584,1.5968,1.5633,1.5497,1.569,1.5497,1.541,1.541,1.541,1.541,1.541,1.541,1.5089,1.4549,1.4736,1.4706,1.4519,1.4124,1.3774,1.3522,1.3843,1.403,1.4094,1.4426,1.4966,1.5569,1.5419,1.5525,1.5675,0.0,0.0,0.0,0.0,0.0,1.4201,1.3949,1.3398,1.2782,1.2419,1.2324,1.2313,1.2321,0.0,0.0,0.0,1.2692,1.2927,1.2927,0.0,1.301,1.301,1.2526,1.2114,1.2114,1.1434,1.072,1.019,1.0115,0.9933,0.9372,0.9296,0.9069,0.8461,0.8385,0.8275,0.794,0.7902,0.7787,0.0,0.0,0.0,0.7706,0.7772,0.7833,0.7833,0.7894,0.7927,0.7927,0.7983,0.8073,0.8195,0.8195,0.8264,0.8385,0.849,0.8518,0.8522,0.8584,0.8612,0.8568,0.8428,0.8336,0.8292,0.8072,0.7896,0.7724,0.768,0.7459,0.7231,0.0,0.0,1.6397,1.6397,1.5882,1.5468,1.5468,1.5468,1.5439,1.5439,0.0,0.0,0.0,0.0,0.0,1.7118,1.6112,1.5921,1.7062,1.6054,1.569,1.6244,1.5719,1.541,1.541,1.541,1.541,1.541,1.541,1.5332,1.5215,1.5332,1.5332,1.5215,1.5332,1.5089,1.4602,1.53,1.5219,1.4709,1.5446,1.5745,1.5781,1.5781,1.5781,0.0,1.5781,1.5745,0.0,1.5745,0.0,1.5561,1.4835,1.3673,1.2486,1.2164,1.2061,1.212,0.0,0.0,0.0,0.0,0.0,0.0,1.2994,0.0,1.3171,1.3178,1.3032,1.2929,1.2936,1.2936,1.2409,1.0826,1.0565,1.0565,1.0527,1.0527,1.0453,1.0228,1.019,0.982,0.8851,0.8742,0.8437,0.0,0.7557,0.7557,0.7522,0.7522,0.7484,0.7484,0.7698,0.7792,0.7792,0.7914,0.8,0.8004,0.8004,0.8008,0.802,0.8199,0.8284,0.83,0.8522,0.8608,0.8612,0.8612,0.8612,0.8568,0.8292,0.8201,0.8157,0.7984,0.7727,0.7514,0.0,1.8375,1.8267,1.8267,1.7754,1.7341,1.7341,1.6978,1.6698,0.0,0.0,0.0,1.6698,1.6472,1.6368,1.6528,1.6255,1.5997,1.5911,1.5997,1.5921,1.5661,1.5497,1.541,1.541,1.541,1.541,1.541,1.541,1.5391,1.5362,1.5391,1.5391,1.5362,1.5391,1.5497,1.5646,1.5609,1.5729,1.5939,1.6378,1.6906,1.7373,1.7373,1.7373,0.0,0.0,1.701,1.6585,0.0,1.6167,1.5624,1.5221,1.4605,1.3967,1.3629,1.3309,1.3005,1.2594,0.0,0.0,0.0,0.0,0.0,1.2753,1.2655,1.2751,1.3026,1.2998,1.3035,1.3302,1.3346,1.3193,1.2739,1.2445,1.2033,1.144,1.136,1.1136,1.049,1.0415,1.0265,0.982,0.9782,0.0,0.0,0.9253,0.8993,0.8394,0.7825,0.7484,0.7484,0.7571,0.76,0.76,0.7606,0.7699,0.7869,0.7869,0.7894,0.8016,0.8065,0.8162,0.8292,0.8345,0.8486,0.8612,0.8612,0.8612,0.8612,0.852,0.838,0.8201,0.8157,0.8019,0.7948,1.9184,1.8948,1.8789,1.8789,1.8282,1.7891,1.7891,1.7534,1.7362,0.0,0.0,0.0,1.8192,1.7698,1.7553,1.8043,1.7417,1.707,1.7241,1.6889,1.6641,1.6528,1.6283,1.614,1.614,1.5911,1.5777,1.5777,1.5526,1.541,1.541,1.541,1.541,1.542,1.5596,1.5928,1.6336,1.6351,1.6534,1.6855,1.7194,1.7613,1.8008,1.8008,1.8008,0.0,0.0,0.0,1.7364,1.7364,1.6837,0.0,0.0,1.537,1.4794,1.4253,1.3936,1.3638,0.0,0.0,0.0,1.2806,0.0,0.0,1.3045,1.3021,1.3149,0.0,1.3214,1.3265,1.3455,1.3389,1.3294,1.3294,1.2992,1.267,1.2492,1.2452,1.2261,1.1687,1.1613,1.1428,1.087,1.0832,1.0645,1.019,1.0153,0.9927,0.9485,0.8917,0.8499,0.8241,0.8165,0.7978,0.7642,0.7522,0.7575,0.7686,0.7686,0.7735,0.7793,0.787,0.7967,0.8118,0.8227,0.8394,0.8616,0.8641,0.8674,0.8682,0.8759,0.8693,0.8554,0.8554,0.8481,0.8341,0.0,1.8975,1.8605,1.8605,1.8209,1.7877,1.786,1.7834,1.798,0.0,1.8387,1.8699,1.9714,1.9276,1.9335,2.0408,1.9091,1.8617,1.9602,1.8283,1.7651,1.8064,1.7584,1.7256,1.7202,1.6669,1.6368,1.6312,1.5748,1.5468,1.541,1.541,1.5439,1.5498,1.5919,1.6338,1.6804,1.7217,1.7445,1.749,1.7861,1.8008,1.8008,0.0,1.8008,1.8008,1.8008,1.8008,1.8008,1.8008,1.7545,0.0,0.0,0.0,0.0,0.0,1.4437,0.0,0.0,0.0,0.0,0.0,1.3824,0.0,1.3574,1.3729,1.3857,1.3615,1.3546,1.3561,1.3591,1.3325,1.3055,1.3055,1.2743,1.2723,1.3309,1.3418,1.3368,1.3215,1.3208,1.2863,1.1966,1.1855,1.1552,1.0826,1.0677,1.064,1.064,1.0378,1.0002,0.9448,0.9258,0.8813,0.8102,0.7902,0.7821,0.7821,0.7825,0.7748,0.768,0.7925,0.8013,0.7936,0.8255,0.8504,0.8655,0.878,0.8832,0.8869,0.9035,0.9096,0.9096,0.9096,0.8964,0.8781,1.942,1.9316,1.9225,1.9225,1.947,1.9652,1.9542,1.9997,2.0322,2.0132,2.0201,2.0339,2.0545,2.0041,1.9749,1.986,1.9569,1.9277,1.9011,1.9127,1.8849,1.805,1.7913,1.7652,1.7213,1.709,1.6782,1.6312,1.6169,1.5882,1.541,1.541,1.5596,1.5968,1.6056,1.6535,1.7256,1.7344,1.7578,1.79,1.7978,1.8008,1.8008,1.8008,1.8008,1.8008,1.8008,1.8008,1.8008,1.8008,1.7896,1.7774,0.0,0.0,0.0,1.68,0.0,0.0,0.0,0.0,0.0,0.0,1.4175,0.0,1.3646,1.3538,1.3666,1.3842,1.3892,1.3983,1.4272,1.3828,1.3403,1.3403,1.2893,1.257,1.2694,1.2943,1.3068,1.3033,1.3266,1.3309,1.2936,1.29,1.2783,1.2445,1.1811,1.1477,1.1477,1.0789,1.0378,1.0265,1.0228,1.0115,0.997,0.9927,0.9927,0.9927,0.9739,0.9329,0.8737,0.9266,0.9227,0.8774,0.8852,0.8963,0.9072,0.889,0.8909,0.9047,0.9084,0.9096,0.9096,0.9096,0.9185,0.9255,2.0003,2.0039,2.0126,2.0399,2.0672,2.0831,2.0748,2.1023,2.1251,2.1349,2.1489,2.1647,2.1748,2.1398,2.1158,2.12,2.0861,2.0529,2.022,2.0176,1.989,1.931,1.9298,1.9183,1.8902,1.8606,1.8291,1.7991,1.7701,1.7379,1.7094,1.6747,1.6729,1.6951,1.6809,1.7005,1.7393,1.7607,1.7822,1.8008,1.8008,0.0,1.8008,1.8008,1.8008,1.8008,1.8008,1.8008,1.8008,1.8008,1.8008,0.0,1.8008,1.7871,1.768,0.0,1.7337,1.7047,0.0,0.0,0.0,1.586,0.0,0.0,0.0,1.444,1.4228,1.4328,1.4341,1.4433,1.4655,1.4234,1.3842,1.3842,1.3091,1.2506,1.2506,1.2654,1.2767,1.2767,1.2914,1.2974,1.2868,1.3013,1.3136,1.3185,1.2716,1.2489,1.2599,1.2107,1.1694,1.1397,1.131,1.1044,1.0634,1.0559,1.049,1.049,1.0415,1.0153,0.9744,0.997,0.9878,0.9617,0.9579,0.9677,0.9795,0.9914,1.0086,1.0168,0.9587,0.9364,0.9364,0.9364,0.9417,0.949,2.0767,2.0842,2.0993,2.1405,2.1581,2.1644,2.1628,2.1631,2.1811,2.2247,2.2425,2.2543,2.2708,2.2574,2.2543,2.269,2.2152,2.1806,2.1806,2.1299,2.0933,2.0795,2.0795,2.0718,2.0581,2.0135,1.9831,1.9701,1.9216,1.8917,1.8797,1.8262,1.8028,1.8102,1.7757,1.7652,1.7718,1.7929,1.8008,1.8008,0.0,1.8008,1.8008,1.8008,1.8008,1.8008,1.8008,1.8008,1.8008,1.8008,1.8008,1.8008,1.8008,1.8042,0.0,0.0,0.0,0.0,0.0,0.0,0.0,0.0,0.0,1.6433,0.0,0.0,0.0,0.0,0.0,0.0,0.0,0.0,0.0,0.0,0.0,0.0,0.0,1.2661,0.0,1.2416,1.2448,1.2485,1.2485,1.2726,1.3023,1.3287,1.3216,1.3215,1.3404,1.331,1.3046,1.2562,1.2358,1.1977,1.1347,1.1162,1.1087,1.1087,1.105,1.0938,1.0783,1.0752,1.064,1.0507,1.045,1.0489,1.0618,1.0852,1.1101,1.1219,1.0201,0.9817,0.9772,0.9661,0.9579,0.9579,2.1408,2.1393,2.1446,2.1481,2.1895,2.2163,2.206,2.2518,2.2915,2.2977,2.2902,2.2848,2.2878,2.2848,2.2787,2.2708,2.2628,2.2592,2.2592,2.25,2.2164,2.1527,2.1474,2.1209,2.0593,2.0524,2.0251,1.9701,1.9613,1.9305,1.8797,1.8736,1.8864,1.9205,1.8574,1.8469,1.8772,1.8216,1.8008,0.0,1.8008,1.8008,0.0,1.8008,1.8008,1.8008,1.8008,1.8008,1.8008,0.0,1.8008,1.8008,0.0,1.811,1.8259,1.8244,0.0,0.0,0.0,0.0,0.0,0.0,1.7526,0.0,0.0,0.0,1.6397,1.6386,0.0,0.0,0.0,0.0,0.0,0.0,0.0,0.0,1.3816,1.3227,1.2602,1.2115,1.2317,1.2485,1.2485,1.2521,1.2558,1.2594,1.2864,1.3025,1.3067,1.3302,1.3419,1.3382,1.3346,1.3302,1.3193,1.3156,1.3156,1.3156,1.2966,1.2512,1.1859,1.2365,1.2187,1.1515,1.1328,1.1278,1.1238,1.0681,1.0661,1.0932,1.0677,1.0566,1.0494,0.9857,0.9579,0.9579,2.2033,2.197,2.2071,2.2355,2.2606,2.2769,2.268,2.2927,2.3108,2.3108,2.3,2.2939,2.3017,2.2939,2.2909,2.2939,0.0,2.283,0.0,0.0,2.2549,2.2255,2.2243,2.2115,2.1835,2.1835,2.1644,2.1259,2.1259,2.1108,2.0772,2.0318,2.0234,2.0362,1.9705,0.0,1.9606,0.0,1.8988,0.0,0.0,1.8337,0.0,1.8008,1.8008,1.8008,1.8008,1.8008,1.8008,0.0,1.8008,0.0,0.0,0.0,0.0,1.8596,0.0,0.0,0.0,0.0,0.0,0.0,0.0,0.0,1.7837,0.0,1.6951,0.0,0.0,0.0,0.0,0.0,0.0,0.0,1.4972,0.0,0.0,0.0,1.325,0.0,0.0,0.0,1.2186,0.0,0.0,0.0,1.2616,1.2777,1.3001,1.314,1.3301,1.3492,1.3492,1.3492,1.3492,1.3492,1.3492,1.3492,1.3419,1.3193,1.2886,1.3003,1.29,1.2562,1.2378,1.2268,1.2257,1.2005,1.2002,1.208,1.1831,1.1685,1.1599,1.1439,1.1424,1.1326,2.2594,2.2506,2.2631,2.3032,2.3108,2.3108,2.3108,2.3108,2.3108,2.3108,2.3017,2.2987,2.3078,2.3017,0.0,0.0,2.3017,2.2939,0.0,0.0,2.28,2.2769,2.2739,2.2739,2.272,2.272,2.2616,2.2482,2.2482,2.2389,2.2247,2.1714,2.1451,2.1368,2.0677,2.0355,2.0355,0.0,1.9802,1.9309,1.9309,1.9021,1.8529,1.8144,1.8008,1.8008,1.8008,1.8008,1.8042,1.8269,1.8361,0.0,1.8821,0.0,1.9486,0.0,0.0,0.0,1.9715,0.0,0.0,0.0,0.0,0.0,0.0,0.0,0.0,0.0,0.0,0.0,0.0,0.0,0.0,0.0,0.0,1.5303,0.0,1.4737,0.0,0.0,0.0,0.0,0.0,0.0,0.0,0.0,0.0,1.2456,1.2696,1.2914,1.3119,1.3353,1.3448,1.3492,1.3492,1.3492,1.3492,1.3492,1.3492,1.3492,1.3492,1.3346,1.3273,1.3273,1.3083,1.2973,1.2987,1.2988,1.2969,1.3011,1.2918,1.2893,1.2876,1.2665,1.2625,1.2587,2.3083,2.3083,2.3083,2.3108,2.3108,2.3108,2.3108,2.3108,2.3108,2.3108,2.3108,2.3108,0.0,0.0,0.0,0.0,0.0,2.3078,2.3078,0.0,2.3017,0.0,0.0,2.283,2.272,2.272,2.272,2.269,2.269,2.2586,2.2389,2.2359,2.2297,2.2123,2.14,2.106,2.1028,2.0387,2.0107,2.0063,2.0063,2.0063,1.9868,0.0,1.8008,1.8008,1.8008,0.0,0.0,1.8977,1.9276,0.0,0.0,0.0,0.0,0.0,0.0,0.0,0.0,0.0,0.0,2.0226,0.0,0.0,0.0,0.0,1.8417,0.0,0.0,0.0,0.0,0.0,0.0,0.0,0.0,0.0,0.0,0.0,0.0,0.0,0.0,0.0,0.0,1.1965,0.0,0.0,0.0,0.0,1.2032,1.2665,1.3009,1.3023,1.3331,1.3492,1.3492,1.3492,1.3492,1.3492,1.3492,1.3492,1.3492,1.3492,1.3492,1.3499,1.3273,1.3193,1.32,1.298,1.2933,1.3067,1.3621,1.4105,1.4258,1.2824,1.2485,1.2678,2.3108,2.3108,2.3108,2.3108,2.3108,2.3108,2.3108,2.3108,2.3108,0.0,2.3108,0.0,0.0,2.3108,2.3108,0.0,0.0,2.3108,2.3108,2.3108,0.0,0.0,0.0,2.3017,0.0,2.2969,2.2909,2.283,2.283,2.2739,2.2586,2.2586,2.2586,2.2494,2.213,2.1963,0.0,0.0,0.0,0.0,0.0,2.0096,2.0063,0.0,1.9386,1.9386,1.9386,1.9386,0.0,1.9824,1.9944,2.0042,2.0579,2.1026,2.129,2.1069,2.1302,0.0,0.0,0.0,2.104,2.0805,0.0,0.0,0.0,0.0,0.0,0.0,0.0,0.0,0.0,0.0,0.0,0.0,0.0,0.0,0.0,0.0,0.0,0.0,0.0,0.0,0.0,0.0,0.0,0.0,0.0,0.0,0.0,1.2215,1.2529,1.2994,1.3111,1.3279,1.3492,1.3492,1.3492,1.3492,1.3492,1.3492,1.3492,1.3492,1.3492,1.3492,1.3419,1.3382,1.3382,1.32,1.311,1.3191,1.3662,1.4077,1.4415,1.4364,1.4528,1.4669,2.3454,2.3454,2.3365,2.3125,2.3108,2.3108,2.3108,2.3108,0.0,0.0,2.3108,0.0,2.3108,0.0,2.3108,0.0,2.3108,2.3108,2.3108,2.3108,0.0,2.3108,2.3108,2.3108,0.0,0.0,0.0,0.0,2.2969,2.2909,2.2769,2.2769,2.2708,2.2586,2.2451,2.2389,2.2389,2.2247,2.1956,0.0,0.0,2.088,0.0,0.0,2.0581,2.0096,0.0,2.0096,2.0161,2.057,2.0698,2.0794,2.1385,2.1772,2.2032,2.1846,2.2063,2.2261,2.192,2.1815,0.0,2.1534,2.1471,0.0,2.1471,0.0,2.1049,0.0,0.0,0.0,0.0,0.0,0.0,0.0,0.0,0.0,0.0,1.6413,0.0,0.0,0.0,0.0,0.0,0.0,0.0,0.0,0.0,0.0,0.0,0.0,1.26,1.3149,1.3048,1.317,1.3492,1.3492,1.3492,1.3492,1.3492,1.3492,1.3492,1.3492,1.3492,1.3492,1.3492,1.3492,1.3492,1.3346,1.3273,1.3257,1.3733,1.4161,1.4599,1.5136,1.5537,1.573,2.4073,2.4031,2.3839,2.3215,2.3108,2.3108,0.0,0.0,2.3108,0.0,2.3108,2.3108,2.3108,2.3133,2.3145,2.3145,2.317,2.317,2.3145,2.3145,0.0,0.0,2.3108,2.3108,2.3108,0.0,0.0,0.0,0.0,2.3017,2.2909,2.2909,2.2726,2.242,2.242,0.0,2.242,2.2278,2.2278,2.2389,2.2389,2.234,2.2228,2.2328,2.1482,2.0193,2.0193,2.0193,2.0323,2.1167,2.1451,2.1639,2.2592,2.2909,2.2939,2.3047,2.3108,2.3108,2.3108,2.3108,2.2944,2.2298,0.0,0.0,0.0,0.0,2.1268,0.0,0.0,0.0,0.0,0.0,0.0,0.0,0.0,0.0,0.0,0.0,0.0,0.0,0.0,0.0,0.0,0.0,0.0,0.0,0.0,0.0,0.0,0.0,1.3179,1.3486,1.3191,1.3183,1.3492,1.3492,1.3492,1.3492,1.3492,1.3492,1.3492,1.3492,1.3492,1.3492,1.3492,1.3492,1.3492,1.3492,1.339,1.3315,1.3894,1.4377,1.4817,1.5181,1.5541,1.5784,2.3454,2.3365,2.3305,2.3138,2.3108,2.3108,0.0,0.0,0.0,0.0,2.3108,2.3108,2.3108,2.3484,2.3778,2.3778,2.4123,0.0,0.0,0.0,0.0,2.312,2.3108,2.3108,2.3108,2.3108,2.3108,2.3108,0.0,0.0,2.3047,2.3047,2.2987,2.2927,0.0,2.2787,2.2757,2.2482,2.2309,2.2247,2.2359,2.234,2.2197,0.0,2.203,2.1663,2.1663,2.1663,2.1694,2.2037,2.2223,2.242,2.2787,2.2969,2.3047,2.3078,2.3108,2.3108,2.3108,2.3108,2.3078,2.2884,2.2841,2.2841,0.0,0.0,0.0,0.0,0.0,0.0,0.0,0.0,0.0,0.0,0.0,0.0,0.0,0.0,0.0,1.6413,0.0,0.0,0.0,0.0,0.0,0.0,0.0,0.0,0.0,0.0,0.0,1.3511,1.3421,1.3427,1.3492,1.3492,1.3492,1.3492,1.3492,1.3492,1.3492,1.3492,1.3492,1.3492,1.3492,1.3492,1.3492,1.3492,1.3638,1.3819,1.4227,1.49,1.5687,1.5904,1.59,1.5784,2.4408,2.3914,2.3543,2.3543,0.0,0.0,2.3108,2.3321,0.0,2.3484,2.3697,0.0,2.3835,2.4167,2.4356,2.4356,2.4644,0.0,2.4381,0.0,0.0,2.386,2.3609,2.3484,2.3484,2.3233,0.0,2.3108,0.0,0.0,2.3108,2.3108,2.3078,2.3017,0.0,2.2909,2.2878,2.2696,2.2463,2.2216,2.2525,2.2628,0.0,2.2804,2.295,2.3106,2.3106,2.2916,2.2684,2.3103,2.3327,2.3373,2.3282,2.33,2.3329,2.314,2.3108,2.3108,2.3108,2.3108,2.3108,2.3108,2.3108,2.3108,2.3108,2.3108,2.3108,0.0,2.2593,2.2149,0.0,0.0,0.0,0.0,0.0,0.0,0.0,0.0,0.0,0.0,1.6645,0.0,0.0,0.0,0.0,0.0,0.0,0.0,0.0,0.0,0.0,1.4426,1.4131,1.4148,1.4474,1.4446,1.4446,1.4446,1.4446,1.4446,1.4446,1.4446,1.4302,1.3985,1.3985,1.3811,1.3492,1.3492,1.3689,1.4055,1.4809,1.5589,1.6254,1.6467,1.6312,1.5981,2.5702,2.4751,2.3982,0.0,0.0,0.0,0.0,2.3715,0.0,2.4104,0.0,2.4788,2.4788,2.485,2.4888,2.4888,2.4996,2.5008,2.4888,2.4888,2.4863,2.4788,2.4356,2.4104,2.4104,2.3509,2.3221,0.0,0.0,0.0,2.3108,2.3108,2.3047,0.0,0.0,0.0,0.0,2.2909,2.2714,2.2418,2.2837,2.3158,2.3384,2.3682,2.4011,2.43,2.4407,2.3977,2.3425,2.4063,2.4333,2.4279,2.3926,2.384,2.3772,2.3441,2.3321,2.3308,2.3233,2.3221,2.3195,2.312,2.3108,2.3108,2.3108,2.3108,2.3108,2.3108,2.3108,2.3108,0.0,0.0,0.0,0.0,0.0,0.0,0.0,0.0,0.0,0.0,0.0,0.0,0.0,0.0,0.0,0.0,0.0,0.0,0.0,0.0,0.0,1.5611,1.5047,1.505,1.5702,0.0,1.571,1.571,1.571,1.571,1.571,1.571,1.5349,1.4744,1.4744,1.4366,1.3783,1.3718,1.3911,1.4296,1.5548,1.6242,1.6588,1.6904,1.6716,1.6264,2.4637,2.3796,2.3427,0.0,0.0,2.4004,2.4424,2.423,2.4167,2.4587,2.4725,2.4788,2.4788,2.5197,2.546,2.546,2.59,0.0,0.0,0.0,0.0,2.4813,2.47,2.4669,2.4669,2.413,2.3841,0.0,0.0,0.0,2.3108,0.0,0.0,0.0,0.0,0.0,2.2909,2.3017,0.0,2.3291,2.3498,2.3788,2.412,2.4185,2.4247,2.4382,2.4979,2.4727,2.4132,2.4263,2.4398,2.4528,2.4462,2.4521,2.4593,2.4525,2.4499,2.4399,2.3966,2.3841,2.3728,2.3221,2.3108,2.3108,2.3108,2.3108,2.3108,2.3108,2.3108,2.3108,2.3108,0.0,0.0,0.0,0.0,0.0,0.0,0.0,0.0,0.0,0.0,1.7084,0.0,0.0,0.0,0.0,0.0,0.0,0.0,0.0,0.0,0.0,1.5661,0.0,0.0,0.0,1.571,1.571,1.571,1.571,1.571,1.571,1.564,1.5498,1.5498,1.5428,1.5275,1.4963,1.4957,1.5277,1.6294,1.6762,1.6848,1.7123,1.6893,1.6444,2.5514,0.0,0.0,0.0,0.0,0.0,0.0,2.4996,2.4921,2.5184,2.5485,2.5787,2.6076,2.6327,2.659,2.6879,2.7155,2.7067,2.6502,2.6477,2.6226,2.5699,2.5385,2.5222,2.5222,2.4695,2.4418,2.4418,0.0,0.0,0.0,0.0,0.0,2.312,0.0,2.3454,0.0,0.0,0.0,2.3939,2.4163,2.4519,2.4872,2.4959,2.5178,2.5498,2.5849,2.5752,2.5439,2.5439,2.5507,2.5523,2.5223,2.5156,2.5172,2.4863,2.4788,2.4725,2.4506,2.4418,2.4293,2.3697,2.359,2.3471,2.317,2.3108,2.3108,2.3108,2.3108,2.3108,2.3108,2.2656,0.0,0.0,0.0,0.0,0.0,0.0,1.8765,0.0,0.0,0.0,0.0,0.0,0.0,0.0,0.0,1.6038,1.5914,0.0,0.0,0.0,0.0,0.0,0.0,0.0,0.0,1.7044,1.6941,1.6872,1.6872,1.6872,1.6689,1.6306,1.6306,1.6202,1.6096,1.6527,1.6661,1.6714,1.7198,1.7191,1.6903,1.6835,1.6688,1.6472,2.6848,2.6488,0.0,0.0,2.6161,2.6209,2.6171,2.6173,2.6106,2.5984,2.6386,2.6876,2.7394,2.7457,2.7632,2.8059,2.8109,2.7921,2.7494,2.7457,2.7268,2.6864,2.6298,2.595,2.595,2.5322,2.4983,0.0,0.0,0.0,0.0,0.0,0.0,0.0,0.0,0.0,0.0,0.0,2.4721,2.4591,2.4853,2.5244,2.5665,2.5753,2.6097,2.6499,2.6499,2.6499,2.6499,2.6499,2.6499,2.6411,2.5925,2.5774,2.5699,2.5285,2.5172,2.5146,2.4988,2.4983,2.4858,2.4305,2.4167,2.4029,2.3421,2.3283,2.3246,2.3133,2.3108,2.3108,2.3108,2.2744,0.0,0.0,0.0,0.0,0.0,0.0,0.0,0.0,0.0,0.0,1.8348,0.0,0.0,0.0,0.0,1.6228,1.6029,1.6011,1.6257,0.0,0.0,1.7484,1.8327,0.0,1.8337,1.8337,1.8178,1.8076,1.8076,1.8076,1.7716,1.7157,1.7206,1.7179,1.7083,1.8118,1.8345,1.8078,1.8043,1.7738,1.7296,1.7031,1.6799,1.6557,0.0,0.0,0.0,0.0,0.0,2.7623,2.8007,2.804,2.7846,2.7223,2.7168,2.7419,2.7971,2.8034,2.8047,2.8097,2.8109,2.8084,2.8034,2.8034,2.8009,2.7959,2.7419,2.7118,2.7118,2.6076,2.5523,0.0,0.0,2.4494,0.0,0.0,0.0,0.0,0.0,0.0,0.0,2.4763,2.5064,2.549,2.5523,2.5875,2.6411,2.6411,2.6449,2.6499,2.6499,2.6499,2.6499,2.6499,2.6499,2.6487,2.6436,2.6411,2.6411,2.6361,2.6336,2.6223,2.5661,2.5523,2.5398,2.4838,2.4713,2.4562,2.4042,2.3916,2.3766,2.3208,2.3108,2.3108,2.3108,2.3058,2.2869,0.0,0.0,0.0,0.0,0.0,2.0389,1.9791,0.0,0.0,1.8934,1.7929,0.0,0.0,1.7754,1.6888,1.6374,1.6355,1.667,1.7388,0.0,1.7772,1.8472,1.8482,1.8482,1.8482,1.8448,1.8381,1.8269,1.8269,1.8134,1.7925,1.8269,1.8663,1.9046,1.9488,1.9386,1.8982,1.8913,1.8853,1.88,1.8758,1.8063,1.7109,0.0,0.0,0.0,0.0,0.0,0.0,0.0,2.8495,2.8196,2.8259,2.7984,2.7984,2.8499,2.8562,2.8737,2.9089,2.9114,2.8976,2.8587,2.903,2.895,2.8122,2.8352,2.8508,2.8508,2.7284,2.7037,0.0,0.0,0.0,0.0,0.0,0.0,0.0,0.0,2.5547,2.5949,2.5848,2.6181,2.6714,2.6304,2.6285,2.6499,2.6499,2.67,2.6989,2.6989,2.7203,2.7465,2.7553,2.7096,2.6499,2.6499,2.6499,2.6499,2.6499,2.6499,2.6449,2.621,2.6147,2.6021,2.5423,2.5285,2.5146,2.4607,2.4243,2.3929,2.3703,2.3346,2.3108,2.3108,2.3108,2.3032,0.0,0.0,0.0,0.0,0.0,0.0,2.0405,0.0,1.9738,0.0,1.8845,0.0,0.0,0.0,1.674,1.6779,1.667,1.6858,1.7305,0.0,1.8153,1.8674,1.8674,1.8674,1.8674,1.8549,1.8414,1.8313,1.8537,1.869,1.8818,1.9502,1.9898,2.0127,2.0476,2.0351,1.9867,1.9635,1.9213,1.8684,1.8454,1.811,1.7606,2.9626,0.0,2.993,0.0,3.0303,3.0245,3.0175,2.9706,2.945,2.9812,2.9505,2.9231,2.9177,2.9176,2.9352,2.9754,2.9792,2.9616,2.9176,2.9902,2.993,2.8944,2.9562,0.0,2.9896,2.8803,2.8712,2.9753,2.8438,0.0,0.0,0.0,0.0,0.0,2.6277,2.6863,2.7517,2.7408,2.7749,2.8318,2.7837,2.7644,2.7644,2.7644,2.7889,2.8167,2.7969,2.826,2.8766,2.8634,2.8161,2.7546,2.6986,2.6658,2.6499,2.6499,2.6499,2.6499,2.6499,2.6499,2.6399,2.5984,2.585,2.5711,2.5172,2.4745,2.4381,2.4067,2.3509,2.3108,2.3108,2.3108,2.3108,2.3108,0.0,0.0,0.0,2.2083,0.0,2.0993,2.0792,2.0368,1.9585,1.9682,0.0,0.0,0.0,1.7359,1.7272,1.7162,1.7265,0.0,0.0,0.0,1.8865,1.8875,1.8875,1.8875,1.8741,1.8644,1.858,1.8879,1.9275,1.9734,2.0341,2.0674,2.0791,2.1064,2.0991,2.0583,2.0236,1.9705,1.9101,1.8865,1.8598,1.8278,3.2321,3.2452,3.2466,3.2466,3.2466,3.2411,3.2269,3.2266,3.2201,3.2064,3.206,3.1452,2.996,2.9779,2.9779,2.9792,2.9792,2.9792,2.9779,3.0469,3.0882,0.0,0.0,3.1284,3.1284,3.0677,3.0365,3.0399,0.0,0.0,2.9553,0.0,2.8542,2.8478,2.8446,2.8831,2.9467,2.9448,2.9821,3.0351,3.0365,3.0351,3.0351,3.0351,3.0365,3.0262,2.9526,2.9736,3.0241,2.9526,2.9757,3.0011,2.8106,2.704,2.6499,2.6499,2.6499,2.6499,2.6499,2.6499,2.6499,2.6487,2.6487,2.6336,2.5724,2.5586,2.5272,2.4217,2.3509,2.3108,2.3108,2.3108,2.3108,2.3108,0.0,0.0,0.0,0.0,0.0,2.1543,2.1018,2.0691,2.0679,2.0153,0.0,0.0,0.0,0.0,0.0,0.0,0.0,1.8372,1.8382,0.0,1.9098,1.9108,1.9108,1.9108,1.9098,1.911,1.9188,1.9272,1.9783,2.0586,2.0595,2.082,2.119,2.119,2.12,2.1161,2.0752,2.0576,2.0566,2.0566,2.001,1.9262,3.2452,3.2481,3.2658,3.3093,3.2729,3.2481,3.2868,3.2499,3.2157,3.2132,3.211,3.1905,3.1405,3.1368,3.1368,0.0,3.0884,3.0545,0.0,3.1267,3.1476,3.0932,3.1992,3.2618,3.2618,3.157,3.1509,3.253,0.0,0.0,0.0,3.0694,3.0287,2.9807,2.9807,3.0184,3.0823,3.0342,3.0519,3.1116,3.0596,3.0412,3.0412,3.0412,3.0671,3.0977,3.0745,3.1037,3.152,3.1391,3.1185,3.091,3.0368,2.9754,2.9177,2.9177,2.851,2.7799,2.7799,2.7165,2.6499,2.6499,2.6499,2.6449,2.626,2.5921,2.5297,2.4217,2.3853,2.3602,2.3183,2.3108,2.3108,2.3108,2.3108,0.0,2.3108,0.0,2.2644,2.2121,2.1895,2.1644,2.1295,2.1051,0.0,0.0,0.0,0.0,0.0,0.0,0.0,0.0,1.8942,0.0,1.9108,1.9108,1.9108,1.9108,1.9419,1.984,2.0275,2.0357,2.0524,2.08,2.0938,2.0928,2.0781,2.0781,2.0781,2.0762,2.0664,2.0605,2.0605,2.0605,2.0401,2.0089,3.318,3.3191,3.3354,3.3746,3.3422,3.3218,3.3602,3.3276,3.2946,3.2946,3.2946,3.2946,3.2946,3.2946,0.0,3.2146,3.1636,3.1341,3.1341,3.2074,3.229,3.1806,3.2981,3.3638,3.3638,3.2862,0.0,3.3819,3.3001,3.2454,3.2259,3.2259,3.1886,3.1202,3.1202,3.1574,3.2226,3.1766,3.196,3.2535,3.2103,3.1886,3.1886,3.1886,3.2123,3.2423,3.2131,3.2401,3.2925,3.2709,3.2548,3.2471,3.2548,3.2286,3.1686,3.0685,2.98,2.9095,2.8799,2.798,2.7156,2.687,2.665,2.6499,2.6499,2.6047,2.5398,2.4732,2.428,2.3891,2.3496,2.3246,2.3108,2.3108,2.3108,2.3108,2.3108,0.0,2.2895,0.0,0.0,0.0,0.0,2.1794,2.1882,0.0,0.0,0.0,0.0,0.0,0.0,1.9669,1.9522,0.0,1.9108,1.9108,1.9191,1.9378,1.993,2.0478,2.1056,2.1046,2.1073,2.1115,2.1105,2.0909,2.0605,2.0605,2.0605,2.0605,2.0605,2.0605,2.0605,2.0605,2.0713,2.0732,3.4298,3.4414,3.4414,0.0,3.4414,3.4414,3.4414,3.4414,3.4414,3.4414,3.4443,3.4486,3.4486,3.4516,3.3954,3.2535,0.0,0.0,0.0,3.2826,3.3178,3.3178,3.3962,3.4414,3.4414,3.4414,3.4414,3.4414,3.4414,3.4109,3.3561,3.3561,3.3224,3.2611,3.2611,3.2977,3.3561,3.3561,3.3877,3.4414,3.4414,3.4414,3.4414,3.4414,3.4414,3.4298,3.3555,3.3776,3.4298,3.3555,3.3776,3.4414,3.4414,3.4414,3.3897,3.1411,3.061,3.0378,2.9697,2.9052,2.8364,2.7601,2.6999,2.6549,2.6499,2.6084,2.5649,2.5598,2.4808,2.4079,2.4017,2.3521,2.3145,2.3108,2.3108,2.3108,2.3108,2.3108,2.2907,0.0,0.0,0.0,2.2372,2.2372,2.2556,0.0,0.0,0.0,0.0,0.0,2.1049,2.0279,2.0193,1.9889,1.9306,1.9273,1.9523,1.9965,2.0529,2.1063,2.1502,2.132,2.131,2.1481,2.1075,2.0819,2.0605,2.0605,2.0605,2.0605,2.0605,2.0625,2.0644,2.0644,2.0898,2.1239,0.0,0.0,3.4414,3.4414,3.4414,3.4414,3.4414,3.4414,3.4414,3.4414,3.4835,3.5174,3.5174,3.5561,3.571,3.5325,3.3846,3.2932,3.2932,3.3108,3.3178,3.3178,3.3962,3.4414,3.4414,3.4414,3.4414,3.4414,3.4414,3.4341,3.4196,3.4196,3.4109,3.3964,3.3964,3.4051,3.4196,3.4196,3.4283,3.4414,3.4414,3.4414,3.4414,3.4414,3.4414,3.438,3.4182,3.423,3.438,3.4182,3.423,3.4414,3.4414,3.4414,3.4288,3.3652,3.2721,3.1886,3.1701,3.0815,2.9751,2.9026,2.7979,2.7014,2.6587,2.6386,2.6172,2.5686,2.5398,2.4971,2.4155,2.3891,2.3653,2.317,2.3108,2.3108,2.3108,2.3108,2.3058,0.0,2.2907,2.2907,2.2907,2.2907,2.2957,0.0,0.0,0.0,0.0,2.282,2.2341,2.1667,2.1112,2.0975,2.1227,2.1238,2.1396,2.1682,2.1267,2.1277,2.1731,2.1512,2.1448,2.1501,2.1255,2.1012,2.0819,2.0819,2.0731,2.0605,2.0605,2.0781,2.1074,2.1074,2.1348,2.1728,3.4414,3.4414,3.4414,3.4414,3.4414,3.4414,3.4414,3.4661,3.4849,3.4849,3.5401,3.5793,3.5793,3.6098,3.6301,3.6301,3.526,3.4633,3.4633,3.4633,3.4633,3.4633,3.5047,3.514,3.4849,3.4849,3.4704,3.4414,3.4414,3.4414,3.4414,3.4414,3.4414,3.4414,3.4414,3.4414,3.4414,3.4414,3.4414,3.4414,3.4414,3.4414,3.4414,3.4414,3.4414,3.4414,3.4414,3.4414,3.4414,3.4414,3.4414,3.4414,3.4414,3.4414,3.4414,3.4414,3.3869,3.3229,3.2873,3.2067,3.1062,3.0081,2.8778,2.7798,2.7866,2.739,2.6938,2.6934,2.6511,2.5922,2.5333,2.4754,2.4192,2.3597,2.3496,2.3409,2.3145,2.3108,2.3108,2.3108,2.3108,2.3108,2.3108,2.3108,2.3108,2.3108,2.3108,0.0,2.3484,2.3496,2.3195,2.2549,2.2171,2.2098,2.2324,2.2476,2.2674,2.2831,2.2575,2.2596,2.2857,2.2392,2.2138,2.2014,2.154,2.1205,2.1032,2.1281,2.1233,2.1046,2.1243,2.1389,2.1533,2.1533,2.1807,2.2168,3.4414,3.4414,3.4414,3.4414,3.4486,3.4559,3.4559,3.5096,3.5552,3.5552,3.6054,3.646,3.646,3.6533,3.6591,3.6591,3.6591,3.6519,3.6315,3.6301,3.6301,3.6301,3.6301,3.6054,3.5552,3.5552,3.5276,3.4704,3.4704,3.4704,3.4704,3.4704,3.4704,3.469,3.4603,3.4559,3.4545,3.4443,3.4414,3.4414,3.4414,3.4414,3.4414,3.4414,3.4414,3.4414,3.4414,3.4414,3.4414,3.4414,3.4414,3.4414,3.4414,3.4414,3.4414,3.4414,3.4414,3.4264,3.3555,3.2952,3.2218,3.1007,2.9745,2.8955,2.9402,2.8625,2.7941,2.839,2.7683,2.6952,2.686,2.5859,2.4918,2.4362,2.418,2.3916,2.3321,0.0,2.3195,2.3108,2.3108,2.3145,2.3233,2.3233,2.3271,2.3346,2.3358,2.3572,2.4092,2.4117,2.389,2.3397,2.3324,2.3271,2.3228,2.3537,2.3735,2.3781,2.3985,2.4108,2.4084,2.3449,2.3091,2.2883,2.2277,2.1901,2.175,2.2094,2.2119,2.187,2.2097,2.2131,2.2065,2.2024,2.2246,2.2607,3.4414,3.4414,3.4414,3.4414,3.4849,3.5247,3.5247,3.5749,3.6156,3.6156,3.6751,3.7143,3.7143,3.7607,3.7912,3.7912,3.7912,3.7462,3.6373,3.6301,3.6301,3.6301,3.6301,3.6272,3.6156,3.6156,3.6112,3.6025,3.6025,3.6025,3.6025,3.6025,3.6025,3.5981,3.5479,3.5247,3.5218,3.4646,3.4414,3.4414,3.4414,3.4414,3.4414,3.4414,3.4414,3.4414,3.4414,3.4414,3.4414,3.4414,3.4414,3.4414,3.4414,3.4414,3.4414,3.4414,3.4414,3.4366,3.4264,3.3671,3.2932,3.2246,3.1461,3.0614,2.9726,2.936,2.9064,2.86,2.836,2.8079,2.7642,2.6927,2.6212,2.5621,2.5052,2.4462,2.3941,0.0,2.3678,2.3158,2.3108,2.3296,2.3816,2.3866,2.4054,2.4499,2.4525,2.4575,2.4662,2.4695,2.4831,2.519,2.4746,2.4738,2.5149,2.5042,2.5003,2.5003,2.4374,2.4108,2.4108,2.3975,2.3902,2.3913,2.4283,2.4326,2.4133,2.3937,2.3737,2.3429,2.2574,2.2433,2.2718,2.2506,2.2643,2.3003,3.4414,3.469,3.4922,3.4922,3.5444,3.5865,3.5865,3.6431,3.6838,3.6838,3.7404,3.7781,3.7781,3.8028,3.8202,3.8202,3.8202,3.7955,3.736,3.7331,3.7331,3.7331,3.7331,3.7172,3.6852,3.6489,3.6301,3.6301,3.6301,3.6301,3.6301,3.6301,3.6301,3.6301,3.5996,3.5865,3.5851,3.5561,3.543,3.543,3.543,3.543,3.5401,3.5053,3.4922,3.4878,3.453,3.4414,3.4414,3.4414,3.4414,3.4414,3.4414,3.4414,3.4414,3.4414,3.4414,3.4414,3.4414,3.4113,3.3788,3.3536,3.267,3.1853,3.1678,3.11,3.0484,3.0196,2.9834,2.9384,2.882,2.8162,2.7368,2.6448,2.6019,0.0,0.0,2.4443,2.4343,2.4048,2.401,2.4123,2.4418,2.4443,2.4512,2.4775,2.4788,2.4946,2.5222,2.5234,2.5485,2.6084,2.5824,2.5824,2.6097,2.6005,2.5955,2.5955,2.5581,2.5538,2.5816,2.5384,2.5345,2.5604,2.5489,2.5378,2.5299,2.5413,2.53,2.4992,2.4259,2.4033,2.4008,2.3315,2.3152,2.3276,3.4603,3.5058,3.5436,3.5581,3.6112,3.6533,3.6533,3.7099,3.752,3.752,3.7912,3.8202,3.8202,3.8202,3.8202,3.8202,3.8202,3.8202,3.8202,3.8202,3.8202,3.8202,3.8202,3.7984,3.752,3.7012,3.6751,3.6751,3.6751,3.6751,3.6751,3.6751,3.6751,3.6751,3.6606,3.6533,3.6533,3.6373,3.6301,3.6301,3.6301,3.6301,3.6257,3.5813,3.5625,3.5552,3.5024,3.4762,3.4632,3.4632,3.453,3.4414,3.4414,3.4414,3.4414,3.4414,3.4414,3.4414,3.4414,3.4414,3.4414,3.4414,3.3638,3.2986,3.3386,3.2704,3.1913,3.1748,3.1206,3.0587,3.0151,2.9348,2.8452,2.7528,0.0,0.0,0.0,2.5255,2.514,2.4833,2.4788,2.4838,2.4963,2.5008,2.5059,2.5197,2.5209,2.5372,2.5774,2.5799,2.6034,2.6474,2.6499,2.6499,2.6499,2.6499,2.6562,2.6688,2.6688,2.6977,2.7482,2.6845,2.6785,2.7162,2.6693,2.6523,2.6559,2.6854,2.6736,2.6279,2.5718,2.5231,2.4766,2.3917,2.3547,2.346,3.5252,3.5363,3.5581,3.6141,3.678,3.723,3.723,3.7738,3.813,3.813,3.8173,3.8202,3.8202,3.8202,3.8202,3.8202,3.8202,3.8202,3.8202,3.8202,3.8202,3.8202,3.8202,3.8188,3.813,3.8086,3.8057,3.8057,3.8057,3.8057,3.8057,3.8057,3.8057,3.8043,3.7491,3.723,3.7201,3.6577,3.6301,3.6301,3.6301,3.6301,3.6301,3.6257,3.6228,3.6228,3.6185,3.5793,3.5334,3.5334,3.4893,3.4414,3.4414,3.4414,3.4414,3.4414,3.4414,3.4414,3.4414,3.4414,3.4414,3.4414,3.4337,3.4114,3.3601,3.3427,3.3191,3.2539,3.1884,3.1404,3.136,3.0361,2.9501,2.9397,0.0,0.0,2.6744,2.6569,2.6129,2.4935,2.4788,2.5008,2.5485,2.5536,2.5762,2.6336,2.6373,2.6386,2.6424,2.6436,2.6449,2.6499,2.6499,2.6499,2.6499,2.6499,2.6751,2.7218,2.7218,2.7507,2.8047,2.7974,2.795,2.8061,2.8487,2.8675,2.8636,2.8421,2.7832,2.693,2.5891,2.5009,2.4239,2.3884,2.3667,2.3503,3.6192,3.6676,3.7028,3.7241,3.7798,3.8187,3.8054,3.8355,3.8538,3.8389,3.8404,3.8427,3.856,3.8352,3.824,3.8366,3.8277,3.824,3.8366,3.8277,3.8202,3.8202,3.8202,3.8202,3.8202,3.8202,3.8202,3.8202,3.8202,3.8202,3.8202,3.8202,3.8202,3.8188,3.797,3.7868,3.7839,3.7593,3.7476,3.7476,3.7476,3.7476,3.7447,3.707,3.6925,3.6881,3.646,3.6156,3.5952,3.5952,3.5793,3.5517,3.5125,3.5009,3.4922,3.453,3.4414,3.4414,3.4414,3.4414,3.4414,3.4414,3.4414,3.4356,3.4109,3.4051,3.3877,3.3238,3.2904,3.26,3.2208,3.1366,3.064,3.0217,0.0,2.8852,2.7937,2.7471,2.7013,2.6523,2.6125,2.5912,2.6147,2.6172,2.626,2.6474,2.6499,2.6499,2.6499,2.6813,2.7165,2.7469,2.7482,2.7318,2.7002,2.7341,2.7582,2.7795,2.7795,2.8084,2.8612,2.8612,2.8812,2.9164,2.9377,2.9465,2.9439,2.9369,2.8791,2.7891,2.6894,2.5955,2.5094,2.4315,2.398,2.3894,3.7078,3.7594,3.7978,3.817,3.8502,3.8745,3.8627,3.8723,3.876,3.8612,3.8575,3.8649,3.8782,3.856,3.8464,3.859,3.8464,3.8464,3.859,3.8464,3.8315,3.8202,3.8202,3.8202,3.8202,3.8202,3.8202,3.8202,3.8202,3.8202,3.8202,3.8202,3.8202,3.8202,3.8202,3.8202,3.8202,3.8202,3.8202,3.8202,3.8202,3.8202,3.8159,3.7738,3.7593,3.7535,3.707,3.678,3.662,3.662,3.6475,3.6228,3.5793,3.5697,3.5566,3.4893,3.4704,3.4661,3.4472,3.4414,3.4414,3.4414,3.4414,3.4414,3.4414,3.4414,3.4283,3.3862,3.3634,3.3373,3.2904,3.228,3.1659,3.1201,3.0782,3.0207,2.927,2.8562,2.798,2.753,2.6905,2.6499,2.6499,2.665,2.6751,2.6751,2.6914,2.7014,2.7014,2.7331,2.7708,2.8097,2.8273,2.8185,2.7808,2.8009,2.8197,2.836,2.8549,2.8925,2.9427,2.9628,2.9917,3.0294,3.0294,3.0294,3.0281,3.0118,2.9547,2.8651,2.7869,2.6812,2.5704,2.4978,2.4487,2.4163,3.7786,3.7919,3.8111,3.8715,3.8782,3.8782,3.8782,3.8782,3.8782,3.8782,3.8782,3.8782,3.8782,3.8782,3.8782,3.8782,3.8782,3.8782,3.8782,3.8782,3.8598,3.824,3.8202,3.8202,3.8202,3.8202,3.8202,3.8202,3.8202,3.8202,3.8202,3.8202,3.8202,3.8202,3.8202,3.8202,3.8202,3.8202,3.8202,3.8202,3.8202,3.8202,3.8202,3.8202,3.8202,3.8202,3.8202,3.7825,3.7317,3.7317,3.6881,3.6315,3.6315,3.6301,3.6185,3.5581,3.5407,3.5261,3.4588,3.4428,3.4428,3.4414,3.4414,3.4414,3.4414,3.4414,3.4414,3.4414,3.3906,3.3518,3.3518,3.2962,3.2495,3.2495,3.2481,3.2057,3.07,2.9923,2.9012,2.7696,2.6918,2.6512,2.6512,2.7002,2.7329,2.7329,2.7795,2.8109,2.8109,2.8109,2.8109,2.8122,2.8612,2.89,2.89,2.8398,2.8398,2.89,2.9515,3.008,3.062,3.1135,3.1386,3.1386,3.1386,3.1386,3.1348,3.0834,3.0103,2.9249,2.8719,2.7395,2.583,2.583,2.5147,2.4206,3.8811,3.8945,3.9005,3.9184,3.9228,3.9177,3.9017,3.9141,3.9177,3.9017,3.9017,3.9068,3.9228,3.898,3.887,3.898,3.887,3.8782,3.8782,3.8943,3.8907,3.8634,3.8598,3.8538,3.8404,3.8404,3.8329,3.8202,3.8202,3.8202,3.8202,3.8202,3.8202,3.8202,3.8202,3.8202,3.8202,3.8202,3.8202,3.8202,3.8202,3.8202,3.8202,3.8202,3.8202,3.8202,3.8202,3.8086,3.7941,3.7941,3.7796,3.7564,3.7143,3.6693,3.6272,3.6083,3.6025,3.5894,3.529,3.5116,3.5,3.453,3.4414,3.4414,3.4414,3.4414,3.4414,3.4414,3.4269,3.4124,3.4124,3.3616,3.3213,3.3213,3.2817,3.2344,3.195,3.1326,3.0535,2.9558,2.8873,2.8235,2.7679,2.7758,2.7858,2.7858,2.8009,2.8273,2.8624,2.865,2.8875,2.9277,2.9453,2.9528,2.9528,2.9365,2.9365,2.9528,2.9704,2.988,3.0043,3.0193,3.0482,3.0846,3.0846,3.1047,3.1386,3.1223,3.0647,2.9827,2.967,2.8668,2.7356,2.7356,2.6504,2.5295,3.9298,3.9388,3.9388,3.9388,3.9388,3.9337,3.9228,3.9301,3.9337,3.9228,3.9228,3.9265,3.9388,3.9177,3.9104,3.9228,3.9104,3.9031,3.9031,3.9141,3.9141,3.9031,3.9031,3.8922,3.8612,3.8612,3.8575,3.8464,3.8464,3.8389,3.8315,3.8315,3.8277,3.8202,3.8202,3.8202,3.8202,3.8202,3.8202,3.8202,3.8202,3.8202,3.8202,3.8202,3.8202,3.8202,3.8202,3.8202,3.8202,3.8202,3.8202,3.8144,3.7781,3.7389,3.7012,3.678,3.6707,3.6562,3.5909,3.577,3.559,3.4951,3.4603,3.4414,3.4414,3.4414,3.4414,3.4414,3.4414,3.4414,3.4414,3.4095,3.3848,3.3848,3.3514,3.318,3.2933,3.2028,3.1143,3.0371,2.9421,2.8628,2.8146,2.8298,2.8536,2.875,2.8775,2.8913,2.9252,2.9277,2.9428,2.9779,2.9792,2.9792,2.9792,2.9792,2.9792,2.9792,3.0018,3.0118,3.0118,3.0331,3.0608,3.0922,3.0922,3.1097,3.1386,3.1386,3.11,3.0621,3.0621,2.9887,2.8785,2.8585,2.7725,2.6554,3.9388,3.9388,3.9388,3.9388,3.9388,3.9388,3.9388,3.9388,3.9388,3.9388,3.9388,3.9388,3.9388,3.9388,3.9388,3.9388,3.9388,3.9388,3.9388,3.9388,3.9388,3.9388,3.9388,3.9228,3.887,3.8819,3.8819,3.8782,3.8782,3.8723,3.8516,3.8516,3.8441,3.824,3.824,3.8202,3.8202,3.8202,3.8202,3.8202,3.8202,3.8202,3.8202,3.8202,3.8202,3.8202,3.8202,3.8202,3.8202,3.8202,3.8202,3.8202,3.8202,3.8202,3.8086,3.7549,3.7389,3.7244,3.6577,3.6402,3.6243,3.5639,3.5009,3.4559,3.4443,3.4414,3.4414,3.4414,3.4414,3.4414,3.4414,3.4414,3.4414,3.4414,3.4414,3.4211,3.3663,3.2412,3.128,3.0561,2.9295,2.8394,2.826,2.8675,2.9227,2.9754,2.9792,2.9792,2.9792,2.9792,2.9792,2.9792,2.9792,2.9792,2.9792,2.9792,2.9792,2.9804,3.0306,3.0545,3.0557,3.1035,3.1273,3.1323,3.1323,3.1348,3.1386,3.1386,3.1386,3.1399,3.1449,3.0972,3.0157,2.9721,2.8876,2.7779,3.9388,3.9388,3.9388,3.9388,3.9388,3.9388,3.9388,3.9388,3.9388,3.9388,3.9388,3.9388,3.9388,3.9388,3.9388,3.9388,3.9388,3.9388,3.9388,3.9388,3.9388,3.9388,3.9388,3.9337,3.9265,3.9104,3.8943,3.8782,3.8782,3.8797,3.8723,3.8723,3.8612,3.8441,3.8441,3.8366,3.8202,3.8202,3.8202,3.8202,3.8202,3.8202,3.8202,3.8202,3.8202,3.8202,3.8202,3.8202,3.8202,3.8202,3.8202,3.8202,3.8202,3.8202,3.8173,3.8043,3.8014,3.7883,3.7259,3.7085,3.6939,3.6272,3.5996,3.5633,3.4646,3.4414,3.4414,3.4414,3.4414,3.4414,3.4414,3.4414,3.4414,3.4414,3.4414,3.4356,3.4225,3.3926,3.3224,3.1864,3.1442,3.0777,2.953,2.9541,2.9654,2.9779,2.9792,2.9792,2.9792,2.9792,2.9792,2.9792,2.9792,2.9792,2.9792,2.9792,2.9792,2.9792,2.9917,2.9967,2.998,3.008,3.0382,3.0783,3.0783,3.1009,3.1386,3.1386,3.1386,3.1436,3.1863,3.1639,3.1165,3.1435,3.0049,2.7779,3.9388,3.9388,3.9388,3.9388,3.9388,3.9388,3.9388,3.9388,3.9388,3.9388,3.9388,3.9388,3.9388,3.9388,3.9388,3.9388,3.9388,3.9388,3.9388,3.9388,3.9388,3.9388,3.9388,3.9388,3.9388,3.9301,3.9177,3.9104,3.9104,3.9031,3.8943,3.8943,3.8833,3.8649,3.8553,3.8441,3.8329,3.824,3.8202,3.8202,3.8202,3.8202,3.8202,3.8202,3.8202,3.8202,3.8202,3.8202,3.8202,3.8202,3.8202,3.8202,3.8202,3.8202,3.8202,3.8202,3.8202,3.813,3.7825,3.7738,3.7578,3.6939,3.678,3.6446,3.5154,3.4864,3.4777,3.4472,3.4414,3.4414,3.4414,3.4414,3.4414,3.4414,3.4414,3.4414,3.4414,3.4079,3.352,3.272,3.229,3.1796,3.0972,3.057,3.0305,3.0305,2.9998,2.9792,2.9792,2.9792,2.9792,2.9792,2.9792,2.9792,2.9792,2.9792,2.9792,2.9792,2.9792,2.9792,2.9792,2.9792,2.9942,3.0218,3.0218,3.0382,3.0645,3.0909,3.1022,3.1072,3.1612,3.165,3.1424,3.1712,3.044,2.8468,3.9388,3.9388,3.9388,3.9388,3.9388,3.9388,3.9388,3.9388,3.9388,3.9388,3.9388,3.9388,3.9388,3.9388,3.9388,3.9388,3.9388,3.9388,3.9388,3.9388,3.9388,3.9388,3.9388,3.9388,3.9388,3.9388,3.9388,3.9388,3.9388,3.9301,3.9141,3.9141,3.9017,3.8782,3.8612,3.8516,3.8441,3.8277,3.8202,3.8202,3.8202,3.8202,3.8202,3.8202,3.8202,3.8202,3.8202,3.8202,3.8202,3.8202,3.8202,3.8202,3.8202,3.8202,3.8202,3.8202,3.8202,3.8202,3.8202,3.8202,3.8086,3.7593,3.7462,3.7157,3.6002,3.5639,3.5378,3.4704,3.4574,3.4545,3.4428,3.4414,3.4414,3.4414,3.4414,3.4414,3.4414,3.3825,3.3367,3.3227,3.2541,3.2051,3.1892,3.1415,3.1007,3.072,3.0279,2.9934,2.9792,2.9792,2.9792,2.9792,2.9792,2.9792,2.9792,2.9792,2.9792,2.9792,2.9792,2.9792,2.9792,2.9792,2.9792,2.9792,2.9792,2.9792,2.9829,3.0281,3.047,3.0532,3.1047,3.126,3.126,3.1085,3.0286,2.9191,3.9388,3.9388,3.9388,3.9388,3.9388,3.9388,3.9388,3.9388,3.9388,3.9388,3.9388,3.9388,3.9388,3.9388,3.9388,3.9388,3.9388,3.9388,3.9388,3.9388,3.9388,3.9388,3.9388,3.9388,3.9388,3.9388,3.9388,3.9388,3.9388,3.9388,3.9337,3.9337,3.9141,3.8782,3.8745,3.8575,3.824,3.8202,3.8202,3.8202,3.8202,3.8202,3.8202,3.8202,3.8202,3.8202,3.8202,3.8202,3.8202,3.8202,3.8202,3.8202,3.8202,3.8202,3.8202,3.8202,3.8202,3.8202,3.8202,3.8202,3.8188,3.8101,3.8086,3.7897,3.7201,3.6591,3.5996,3.5392,3.5261,3.5101,3.4516,3.4414,3.4414,3.4414,3.4414,3.4414,3.4414,3.4312,3.3977,3.3297,3.2541,3.1819,3.1119,3.1586,3.1392,3.0037,3.0444,3.0482,2.983,2.9792,2.9792,2.9792,2.9792,2.9792,2.9792,2.9792,2.9792,2.9792,2.9792,2.9792,2.9792,2.9792,2.9792,2.9792,2.9792,2.9792,2.9804,2.988,2.9905,2.9955,3.0507,3.0721,3.0628,2.9866,2.9479,2.9224,3.9388,3.9388,3.9388,3.9388,3.9388,3.9388,3.9388,3.9388,3.9388,3.9388,3.9388,3.9388,3.9388,3.9388,3.9388,3.9388,3.9388,3.9388,3.9388,3.9388,3.9388,3.9388,3.9388,3.9388,3.9388,3.9388,3.9388,3.9388,3.9388,3.9388,3.9388,3.9388,3.9301,3.9141,3.9017,3.887,3.8686,3.8575,3.8464,3.8366,3.8366,3.8277,3.8202,3.8202,3.8202,3.8202,3.8202,3.8202,3.8202,3.8202,3.8202,3.8202,3.8202,3.8202,3.8202,3.8202,3.8202,3.8202,3.8202,3.8202,3.8202,3.8202,3.8202,3.813,3.7868,3.7578,3.7085,3.6098,3.5894,3.5691,3.5101,3.4951,3.4835,3.4472,3.4414,3.4414,3.4414,3.4414,3.4264,3.3894,3.3569,3.3052,3.2277,3.2146,3.1649,3.0482,3.0343,3.0139,2.983,2.9792,2.9792,2.9792,2.9792,2.9792,2.9792,2.9792,2.9792,2.9792,2.9792,2.9792,2.9792,2.9792,2.9792,2.9792,2.9792,2.9792,2.9792,2.9792,2.9792,2.9817,3.0068,3.0344,3.0528,3.0183,3.0022,2.9933]}]]